[[{"header":{"parameterUnit":"m.s-1","parameterCategory":1,"la1":30.6,"la2":29.2853,"lo1":-89.7004,"lo2":-87.6739,"dy":0.0162,"dx":0.0183,"nx":112,"ny":82,"refTime":"2024-03-31T12:00:00:Z","depth":0,"parameterNumber":2,"parameterNumberName":"U-component_of_WINDS"},"data":[0.0,0.0,0.0,0.0,0.0,0.0,0.0,0.0,0.0,0.0,0.0,0.0,0.0,0.0,0.0,0.0,0.0,0.0,0.0,0.0,0.0,0.0,0.0,0.0,0.0,0.0,0.0,0.0,0.0,0.0,0.0,0.0,0.0,0.0,0.0,0.0,0.0,0.0,0.0,0.0,0.0,0.0,0.0,0.0,0.0,0.0,0.0,0.0,0.0,0.0,0.0,0.0,0.0,0.0,0.0,0.0,0.0,0.0,0.0,0.0,0.0,0.0,0.0,0.0,0.0,0.0,0.0,0.0,0.0,0.0,0.0,0.0,0.0,0.0,0.0,0.0,0.0,0.0,0.0,0.0,0.0,0.0,0.0,0.0,0.0,0.0,0.0,0.0,0.0,0.0,5.3314,5.7131,6.3071,6.6519,6.5965,6.6027,6.3441,5.7161,0.0,0.0,0.0,0.0,0.0,0.0,0.0,0.0,0.0,0.0,0.0,0.0,0.0,0.0,0.0,0.0,0.0,0.0,0.0,0.0,0.0,0.0,0.0,0.0,0.0,0.0,0.0,0.0,0.0,0.0,0.0,0.0,0.0,0.0,0.0,0.0,0.0,0.0,0.0,0.0,0.0,0.0,0.0,0.0,0.0,0.0,0.0,0.0,0.0,0.0,0.0,0.0,0.0,0.0,0.0,0.0,0.0,0.0,0.0,0.0,0.0,0.0,0.0,0.0,0.0,0.0,0.0,0.0,0.0,0.0,0.0,0.0,0.0,0.0,0.0,0.0,0.0,0.0,0.0,0.0,0.0,0.0,0.0,0.0,0.0,0.0,0.0,0.0,0.0,0.0,0.0,0.0,0.0,0.0,0.0,0.0,0.0,0.0,0.0,0.0,0.0,0.0,0.0,0.0,5.473,6.0424,6.4057,6.6027,6.5903,6.3872,6.0917,5.7008,0.0,0.0,0.0,0.0,0.0,0.0,0.0,0.0,0.0,0.0,0.0,0.0,0.0,0.0,0.0,0.0,0.0,0.0,0.0,0.0,0.0,0.0,0.0,0.0,0.0,0.0,0.0,0.0,0.0,0.0,0.0,0.0,0.0,0.0,0.0,0.0,0.0,0.0,0.0,0.0,0.0,0.0,0.0,0.0,0.0,0.0,0.0,0.0,0.0,0.0,0.0,0.0,0.0,0.0,0.0,0.0,0.0,0.0,0.0,0.0,0.0,0.0,0.0,0.0,0.0,0.0,0.0,0.0,0.0,0.0,0.0,0.0,0.0,0.0,0.0,0.0,0.0,0.0,0.0,0.0,0.0,0.0,0.0,0.0,0.0,0.0,0.0,0.0,0.0,0.0,0.0,0.0,0.0,0.0,0.0,0.0,0.0,0.0,0.0,0.0,0.0,0.0,0.0,5.3868,5.6823,6.1809,6.4487,6.5903,6.5903,6.4057,6.1317,5.7562,5.6269,0.0,0.0,0.0,0.0,0.0,0.0,0.0,0.0,0.0,0.0,0.0,0.0,0.0,0.0,0.0,0.0,0.0,0.0,0.0,0.0,0.0,0.0,0.0,0.0,0.0,0.0,0.0,0.0,0.0,0.0,0.0,0.0,0.0,0.0,0.0,0.0,0.0,0.0,0.0,0.0,0.0,0.0,0.0,0.0,0.0,0.0,0.0,0.0,0.0,0.0,0.0,0.0,0.0,0.0,0.0,0.0,0.0,0.0,0.0,0.0,0.0,0.0,0.0,0.0,0.0,0.0,0.0,0.0,0.0,0.0,0.0,0.0,0.0,0.0,0.0,0.0,0.0,0.0,0.0,0.0,0.0,0.0,0.0,0.0,0.0,0.0,0.0,0.0,0.0,0.0,0.0,0.0,0.0,0.0,0.0,0.0,0.0,0.0,0.0,0.0,0.0,0.0,5.6053,5.8423,6.2179,6.4149,6.5165,6.5165,6.3749,6.1348,5.7746,5.5468,0.0,0.0,0.0,0.0,0.0,0.0,0.0,0.0,0.0,0.0,0.0,0.0,0.0,0.0,0.0,0.0,0.0,0.0,0.0,0.0,0.0,0.0,0.0,0.0,0.0,0.0,0.0,0.0,0.0,0.0,0.0,0.0,0.0,0.0,0.0,0.0,0.0,0.0,0.0,0.0,0.0,0.0,0.0,0.0,0.0,0.0,0.0,0.0,0.0,0.0,0.0,0.0,0.0,0.0,0.0,0.0,0.0,0.0,0.0,0.0,0.0,0.0,0.0,0.0,0.0,0.0,0.0,0.0,0.0,0.0,0.0,0.0,0.0,0.0,0.0,0.0,0.0,0.0,0.0,0.0,0.0,0.0,0.0,0.0,0.0,0.0,0.0,0.0,0.0,0.0,0.0,0.0,0.0,0.0,0.0,0.0,0.0,0.0,0.0,0.0,0.0,0.0,5.6453,5.8762,6.1563,6.2579,6.3041,6.3041,6.1225,5.9131,5.6977,5.433,0.0,0.0,0.0,0.0,0.0,0.0,0.0,0.0,0.0,0.0,0.0,0.0,0.0,0.0,0.0,0.0,0.0,0.0,0.0,0.0,0.0,0.0,0.0,0.0,0.0,0.0,0.0,0.0,0.0,0.0,0.0,0.0,0.0,0.0,0.0,0.0,0.0,0.0,0.0,0.0,0.0,0.0,0.0,0.0,0.0,0.0,0.0,0.0,0.0,0.0,0.0,0.0,0.0,0.0,0.0,0.0,0.0,0.0,0.0,0.0,0.0,0.0,0.0,0.0,0.0,0.0,0.0,0.0,0.0,0.0,0.0,0.0,0.0,0.0,0.0,0.0,0.0,0.0,0.0,0.0,0.0,0.0,0.0,0.0,0.0,0.0,0.0,0.0,0.0,0.0,0.0,0.0,0.0,0.0,0.0,0.0,0.0,0.0,0.0,0.0,0.0,0.0,5.6515,5.8978,6.2086,6.2671,6.2979,6.341,6.1963,5.9809,5.6946,0.0,0.0,0.0,0.0,0.0,0.0,0.0,0.0,0.0,0.0,0.0,0.0,0.0,0.0,0.0,0.0,0.0,0.0,0.0,0.0,0.0,0.0,0.0,0.0,0.0,0.0,0.0,0.0,0.0,0.0,0.0,0.0,0.0,0.0,0.0,0.0,0.0,0.0,0.0,0.0,0.0,0.0,0.0,0.0,0.0,0.0,0.0,0.0,0.0,0.0,0.0,0.0,0.0,0.0,0.0,0.0,0.0,0.0,0.0,0.0,0.0,0.0,0.0,0.0,0.0,0.0,0.0,0.0,0.0,0.0,0.0,0.0,0.0,0.0,0.0,0.0,0.0,0.0,0.0,0.0,0.0,0.0,0.0,0.0,0.0,0.0,0.0,0.0,0.0,0.0,0.0,0.0,0.0,0.0,0.0,0.0,0.0,0.0,0.0,0.0,0.0,0.0,5.4391,5.633,5.867,6.184,6.2179,6.2364,6.2825,6.144,5.9347,5.6607,0.0,0.0,0.0,0.0,0.0,0.0,0.0,0.0,0.0,0.0,0.0,0.0,0.0,0.0,0.0,0.0,0.0,0.0,0.0,0.0,0.0,0.0,0.0,0.0,0.0,0.0,0.0,0.0,0.0,0.0,0.0,0.0,0.0,0.0,0.0,0.0,0.0,0.0,0.0,0.0,0.0,0.0,0.0,0.0,0.0,0.0,0.0,0.0,0.0,0.0,0.0,0.0,0.0,0.0,0.0,0.0,0.0,0.0,0.0,0.0,0.0,0.0,0.0,0.0,0.0,0.0,0.0,0.0,0.0,0.0,0.0,0.0,0.0,0.0,0.0,0.0,0.0,0.0,0.0,0.0,0.0,0.0,0.0,0.0,0.0,0.0,0.0,0.0,0.0,0.0,0.0,0.0,0.0,0.0,0.0,0.0,0.0,0.0,0.0,0.0,0.0,0.0,5.4391,5.593,5.7808,6.0517,6.0794,6.0794,6.0794,5.8947,5.7192,0.0,0.0,0.0,0.0,0.0,0.0,0.0,0.0,0.0,0.0,0.0,0.0,0.0,0.0,0.0,0.0,0.0,0.0,0.0,0.0,0.0,0.0,0.0,0.0,0.0,0.0,0.0,0.0,0.0,0.0,0.0,0.0,0.0,0.0,0.0,0.0,0.0,0.0,0.0,0.0,0.0,0.0,0.0,0.0,0.0,0.0,0.0,0.0,0.0,0.0,0.0,0.0,0.0,0.0,0.0,0.0,0.0,0.0,0.0,0.0,0.0,0.0,0.0,0.0,0.0,0.0,0.0,0.0,0.0,0.0,0.0,0.0,0.0,0.0,0.0,0.0,0.0,0.0,0.0,0.0,0.0,0.0,0.0,0.0,0.0,0.0,0.0,0.0,0.0,0.0,0.0,0.0,0.0,0.0,0.0,0.0,0.0,0.0,0.0,0.0,0.0,0.0,0.0,5.4453,5.633,5.8331,6.0547,6.0794,6.0794,6.0794,5.9809,5.7993,5.5191,0.0,0.0,0.0,0.0,0.0,0.0,0.0,0.0,0.0,0.0,0.0,0.0,0.0,0.0,0.0,0.0,0.0,0.0,0.0,0.0,0.0,0.0,0.0,0.0,0.0,0.0,0.0,0.0,0.0,0.0,0.0,0.0,0.0,0.0,0.0,0.0,0.0,0.0,0.0,0.0,0.0,0.0,0.0,0.0,0.0,0.0,0.0,0.0,0.0,0.0,0.0,0.0,0.0,0.0,0.0,0.0,0.0,0.0,0.0,0.0,0.0,0.0,0.0,0.0,0.0,0.0,0.0,0.0,0.0,0.0,0.0,0.0,0.0,0.0,0.0,0.0,0.0,0.0,0.0,0.0,0.0,0.0,0.0,0.0,0.0,0.0,0.0,0.0,0.0,0.0,0.0,0.0,0.0,0.0,0.0,0.0,0.0,0.0,0.0,0.0,0.0,0.0,5.4791,5.6453,5.8239,6.0547,6.0794,6.0917,6.1194,6.0086,5.83,5.5715,0.0,0.0,0.0,0.0,0.0,0.0,0.0,0.0,0.0,0.0,0.0,0.0,0.0,0.0,0.0,0.0,0.0,0.0,0.0,0.0,0.0,0.0,0.0,0.0,0.0,0.0,0.0,0.0,0.0,0.0,0.0,0.0,0.0,0.0,0.0,0.0,0.0,0.0,0.0,0.0,0.0,0.0,0.0,0.0,0.0,0.0,0.0,0.0,0.0,0.0,0.0,0.0,0.0,0.0,0.0,0.0,0.0,0.0,0.0,0.0,0.0,0.0,0.0,0.0,0.0,0.0,0.0,0.0,0.0,0.0,0.0,0.0,0.0,0.0,0.0,0.0,0.0,0.0,0.0,0.0,0.0,0.0,0.0,0.0,0.0,0.0,0.0,0.0,0.0,0.0,0.0,0.0,0.0,0.0,0.0,0.0,0.0,0.0,0.0,0.0,0.0,0.0,5.5345,5.6453,5.7993,6.0701,6.0978,6.1225,6.184,6.0086,5.8331,5.6854,0.0,0.0,0.0,0.0,0.0,0.0,0.0,0.0,0.0,0.0,0.0,0.0,0.0,0.0,0.0,0.0,0.0,0.0,0.0,0.0,0.0,0.0,0.0,0.0,0.0,0.0,0.0,0.0,0.0,0.0,0.0,0.0,0.0,0.0,0.0,0.0,0.0,0.0,0.0,0.0,0.0,0.0,0.0,0.0,0.0,0.0,0.0,0.0,0.0,0.0,0.0,0.0,0.0,0.0,0.0,0.0,0.0,0.0,0.0,0.0,5.5288,5.4494,0.0,0.0,0.0,0.0,0.0,0.0,0.0,0.0,0.0,0.0,0.0,0.0,0.0,0.0,0.0,0.0,0.0,0.0,0.0,0.0,0.0,0.0,0.0,0.0,0.0,0.0,0.0,0.0,0.0,0.0,0.0,0.0,0.0,0.0,0.0,0.0,0.0,0.0,0.0,0.0,5.6084,5.7592,5.9378,6.2086,6.2394,6.2456,6.2579,6.1225,5.9347,5.6915,5.5222,0.0,0.0,0.0,0.0,0.0,0.0,0.0,0.0,0.0,0.0,0.0,0.0,0.0,0.0,0.0,0.0,0.0,0.0,0.0,0.0,0.0,0.0,0.0,0.0,0.0,0.0,0.0,0.0,0.0,0.0,0.0,0.0,0.0,0.0,0.0,0.0,0.0,0.0,0.0,0.0,0.0,0.0,0.0,0.0,0.0,0.0,0.0,0.0,0.0,0.0,0.0,0.0,0.0,0.0,0.0,0.0,0.0,0.0,0.0,5.7288,5.615,0.0,0.0,0.0,0.0,0.0,0.0,0.0,0.0,0.0,0.0,0.0,0.0,0.0,0.0,0.0,0.0,0.0,0.0,0.0,0.0,0.0,0.0,0.0,0.0,0.0,0.0,0.0,0.0,0.0,0.0,0.0,0.0,0.0,0.0,0.0,0.0,0.0,0.0,0.0,0.0,5.6823,5.8146,5.9686,6.2086,6.2641,6.2948,6.3256,6.1779,6.0055,5.8331,5.6023,0.0,0.0,0.0,0.0,0.0,0.0,0.0,0.0,0.0,0.0,0.0,0.0,0.0,0.0,0.0,0.0,0.0,0.0,0.0,0.0,0.0,0.0,0.0,0.0,0.0,0.0,0.0,0.0,0.0,0.0,0.0,0.0,0.0,0.0,0.0,0.0,0.0,0.0,0.0,0.0,0.0,0.0,0.0,0.0,0.0,0.0,0.0,0.0,0.0,0.0,0.0,0.0,0.0,6.322,6.3324,6.2358,6.3738,6.4117,6.3531,6.084,5.9219,5.8426,5.7702,0.0,0.0,0.0,0.0,0.0,0.0,0.0,0.0,0.0,0.0,0.0,0.0,0.0,0.0,0.0,0.0,0.0,0.0,0.0,0.0,0.0,0.0,5.7117,5.6988,5.7471,5.7507,5.6201,0.0,0.0,0.0,0.0,0.0,0.0,0.0,0.0,0.0,0.0,0.0,5.7531,5.8731,6.0086,6.2117,6.2856,6.341,6.3964,6.2364,6.0948,6.0024,5.7131,5.473,0.0,0.0,0.0,0.0,0.0,0.0,0.0,0.0,0.0,0.0,0.0,0.0,0.0,0.0,0.0,0.0,0.0,0.0,0.0,0.0,0.0,0.0,0.0,0.0,0.0,0.0,0.0,0.0,0.0,0.0,0.0,0.0,5.2873,5.2287,0.0,0.0,0.0,0.0,0.0,0.0,0.0,0.0,0.0,0.0,0.0,0.0,0.0,6.1082,6.1875,6.5324,6.6117,6.4289,6.7704,6.8256,6.6255,6.7118,6.7807,6.8325,6.7221,0.0,6.0806,6.0047,0.0,0.0,0.0,0.0,0.0,0.0,0.0,0.0,0.0,0.0,0.0,0.0,0.0,0.0,0.0,0.0,0.0,0.0,0.0,0.0,0.0,0.0,5.8636,5.9895,6.0431,6.0344,5.9323,5.691,5.4631,5.359,5.2753,5.1864,0.0,0.0,0.0,0.0,0.0,0.0,5.83,6.027,6.221,6.4272,6.458,6.4672,6.4764,6.3933,6.2641,6.0794,5.9131,5.71,5.4576,5.3745,0.0,0.0,0.0,0.0,0.0,0.0,0.0,0.0,0.0,0.0,0.0,0.0,0.0,0.0,0.0,0.0,0.0,0.0,0.0,0.0,0.0,0.0,0.0,0.0,0.0,0.0,0.0,0.0,0.0,5.4632,5.5322,5.3701,5.5219,5.5805,0.0,0.0,0.0,0.0,0.0,0.0,0.0,0.0,0.0,6.1565,6.3876,6.5497,6.629,6.8773,6.9739,6.9222,7.1291,7.1567,7.0222,7.1394,7.1877,7.1808,7.1912,7.0325,6.7428,6.4117,6.1841,6.0323,0.0,0.0,0.0,0.0,5.9668,6.0461,6.1668,6.1875,6.1599,6.1772,0.0,0.0,0.0,0.0,0.0,0.0,0.0,5.8564,5.9034,5.9469,6.0105,6.1109,6.1413,6.1354,6.0922,5.9548,5.7508,5.4844,5.3813,5.2895,5.1549,5.1512,0.0,0.0,0.0,5.6115,5.8485,6.0547,6.2456,6.4118,6.4641,6.4888,6.4888,6.3903,6.2702,6.144,5.9378,5.75,5.593,5.4483,5.3591,0.0,0.0,0.0,0.0,0.0,0.0,0.0,0.0,0.0,0.0,0.0,0.0,0.0,0.0,0.0,0.0,0.0,0.0,0.0,0.0,0.0,0.0,0.0,0.0,0.0,0.0,0.0,0.0,5.646,5.7495,5.4839,5.7391,5.8219,0.0,0.0,0.0,0.0,0.0,0.0,6.0737,6.3289,6.491,6.5324,6.7876,6.9739,7.0705,7.2222,7.336,7.4154,7.4912,7.4947,7.4464,7.5602,7.5775,7.5257,7.5637,7.5188,7.374,6.8359,6.5152,6.3427,6.1358,6.0392,6.0323,6.0875,6.1427,6.2082,6.3427,6.3772,6.3496,6.2944,6.2634,6.2186,6.0634,0.0,0.0,0.0,0.0,5.9809,6.0369,6.0963,6.1562,6.2437,6.2761,6.2825,6.2437,6.2113,6.0741,5.7052,5.5851,5.4806,5.321,5.3233,0.0,5.3497,5.5191,5.7161,5.907,6.1071,6.2794,6.3964,6.458,6.4888,6.4888,6.3933,6.2979,6.2117,6.0024,5.827,5.7069,5.5407,5.4237,5.3745,0.0,0.0,0.0,0.0,0.0,0.0,0.0,0.0,0.0,0.0,0.0,0.0,0.0,0.0,0.0,0.0,0.0,0.0,0.0,0.0,0.0,0.0,0.0,0.0,0.0,0.0,0.0,0.0,0.0,5.4943,5.9702,0.0,0.0,0.0,0.0,6.1013,6.2427,6.3945,6.5462,6.7014,6.8532,6.998,7.1601,7.3153,7.4636,7.6154,7.7327,7.812,7.8879,7.9189,7.9189,7.9258,7.9258,7.9189,7.8534,7.8189,7.7706,7.2326,6.8773,6.66,6.5048,6.3979,6.3358,6.3427,6.3427,6.36,6.4358,6.4186,6.3945,6.6014,6.6221,6.5359,6.3841,6.2878,0.0,0.0,6.1508,6.0915,6.2398,6.2787,6.3149,6.4542,6.5384,6.5513,6.4185,6.438,6.377,6.0532,5.9228,5.8255,5.6557,0.0,5.6062,5.5625,5.7315,5.9131,6.0517,6.2456,6.4026,6.4764,6.4888,6.4888,6.4888,6.4826,6.421,6.2856,6.2025,6.0424,5.7839,5.7008,5.5715,5.3775,5.3683,0.0,0.0,0.0,0.0,0.0,0.0,0.0,0.0,0.0,0.0,0.0,0.0,0.0,0.0,0.0,0.0,0.0,0.0,0.0,0.0,0.0,0.0,0.0,0.0,0.0,0.0,0.0,0.0,6.053,6.4427,0.0,6.222,6.3324,6.4255,6.4255,6.6117,6.7704,6.8739,7.1636,7.3498,7.405,7.6016,7.7327,7.7879,7.843,7.8844,7.912,7.9879,7.9982,7.9534,8.0017,7.9948,7.95,7.9224,7.912,7.8879,7.5982,7.3153,7.0394,6.7876,6.6428,6.5738,6.5255,6.5359,6.5876,6.6635,6.6704,6.6531,6.6876,6.6497,6.5773,6.5221,6.4897,6.4658,6.4228,6.412,6.4208,6.485,6.4943,6.5188,6.6213,6.6255,6.5967,6.5481,6.5546,6.532,6.419,6.2672,6.0569,5.7652,5.8026,5.8434,5.7232,5.869,6.0307,6.1286,6.2825,6.4087,6.4826,6.4888,6.4888,6.4888,6.4087,6.3349,6.2856,6.0948,5.9439,5.8454,5.6915,5.5745,5.5007,5.4145,5.3591,0.0,0.0,0.0,0.0,0.0,0.0,0.0,0.0,0.0,0.0,0.0,0.0,0.0,0.0,0.0,0.0,0.0,0.0,0.0,0.0,0.0,0.0,0.0,0.0,0.0,6.1841,6.4462,6.3669,6.7842,6.9497,6.6152,6.7256,6.8187,6.8187,7.0049,7.1636,7.2636,7.5361,7.7016,7.7258,7.8706,7.9638,7.9879,8.0155,8.0396,8.0672,8.1397,8.1362,8.0672,8.1155,8.0983,8.0293,8.0293,8.0293,8.0155,7.8637,7.6671,7.4292,7.0946,6.9015,6.8083,6.7601,6.7704,6.8221,6.8704,6.8877,6.8808,6.829,6.7807,6.7394,6.7394,6.7237,6.7021,6.681,6.657,6.6523,6.704,6.6799,6.6615,6.7391,6.7167,6.6744,6.6517,6.6647,6.6679,6.6193,6.4963,6.3065,6.0265,6.0741,6.1059,5.9632,6.0695,6.1814,6.2439,6.3472,6.4364,6.4857,6.4888,6.4888,6.4888,6.4057,6.3318,6.2856,6.0917,5.9408,5.8485,5.7346,5.6392,5.5715,5.4607,5.3837,5.3375,0.0,0.0,0.0,0.0,0.0,0.0,0.0,0.0,0.0,0.0,0.0,0.0,0.0,0.0,0.0,0.0,0.0,0.0,0.0,0.0,0.0,0.0,0.0,5.8254,6.3324,6.6324,6.4186,6.9842,7.2464,6.8739,7.1118,7.2877,7.2843,7.4223,7.574,7.7223,7.8051,7.881,7.9569,7.9603,7.9982,8.0707,8.15,8.2224,8.2949,8.3673,8.3638,8.2914,8.2914,8.25,8.181,8.181,8.181,8.1672,8.0155,7.9086,7.8017,7.4223,7.1808,7.0463,7.0429,7.0394,7.0394,7.0394,7.0394,7.0429,7.0429,7.0429,7.0463,7.0463,7.005,6.9595,7.0299,6.8924,6.7652,6.8994,6.8295,6.7491,6.8139,6.8201,6.8007,6.7359,6.7748,6.7813,6.642,6.6161,6.574,6.451,6.4382,6.3988,6.3013,6.3371,0.0,6.3888,6.4457,6.4888,6.4888,6.4888,6.4888,6.4888,6.4888,6.4272,6.2918,6.2148,6.0547,5.79,5.8393,5.7746,5.5715,5.5068,5.4083,5.276,0.0,0.0,0.0,0.0,0.0,0.0,0.0,0.0,0.0,0.0,0.0,0.0,0.0,0.0,0.0,0.0,0.0,0.0,0.0,0.0,0.0,6.0185,6.2048,6.3496,6.7014,7.0015,7.1601,7.4947,7.6499,7.4878,7.6499,7.7396,7.6878,7.7706,7.843,7.8879,7.9603,8.0362,8.1155,8.1707,8.2328,8.3087,8.3293,8.35,8.3707,8.3914,8.3638,8.2914,8.2914,8.25,8.181,8.181,8.181,8.1672,8.0155,7.9086,7.812,7.5395,7.3395,7.1981,7.1394,7.0843,7.0394,7.0394,7.0739,7.1187,7.1187,7.1567,7.205,7.205,7.1966,7.1713,7.1336,7.0866,7.0456,7.0838,6.987,6.8893,6.9666,6.9058,6.8136,6.7974,6.8072,6.8072,6.7715,6.7618,6.7031,6.5311,6.5436,6.5554,6.4839,6.4476,6.4533,6.511,6.4985,6.4888,6.4888,6.4888,6.4888,6.4888,6.4426,6.3749,6.2887,6.1255,5.9778,5.8547,5.7746,5.6577,5.5037,5.5284,5.476,0.0,0.0,0.0,0.0,0.0,0.0,0.0,0.0,0.0,0.0,0.0,0.0,0.0,0.0,0.0,0.0,0.0,0.0,0.0,0.0,0.0,0.0,6.2703,6.5393,6.8325,7.0256,7.2222,7.4636,7.6982,7.8223,7.7775,7.881,7.9327,7.8913,7.9569,8.012,8.0465,8.1155,8.1948,8.2707,8.3156,8.3569,8.4018,8.4328,8.4501,8.4501,8.4501,8.4121,8.3362,8.3052,8.25,8.181,8.181,8.181,8.1672,8.0155,7.9258,7.8637,0.0,0.0,0.0,0.0,7.2671,7.2257,7.1912,7.2084,7.2395,7.2084,7.2291,7.2671,7.2671,7.2671,7.2586,7.2124,7.1864,7.1512,7.121,7.017,6.9316,6.9541,6.8863,6.8201,6.8201,6.8201,6.8201,6.8201,6.8201,0.0,6.6703,6.6795,6.6882,6.6058,6.5639,6.5477,6.5344,6.5108,6.4888,6.4888,6.4888,6.4888,6.4888,6.4518,0.0,0.0,0.0,6.064,5.9655,5.8054,0.0,0.0,0.0,5.5468,5.4145,5.4822,0.0,0.0,5.4268,5.4145,0.0,0.0,0.0,0.0,0.0,0.0,0.0,0.0,0.0,0.0,0.0,0.0,0.0,0.0,0.0,0.0,6.5428,6.8601,7.2498,7.3119,7.374,7.5154,7.7223,7.8568,7.8637,7.9396,7.9879,7.9879,8.0603,8.1293,8.2017,8.2673,0.0,0.0,0.0,8.419,8.4259,8.4984,8.5294,8.519,8.5121,8.4639,8.388,8.3121,8.2431,8.181,8.181,8.181,8.1672,8.0155,7.9396,7.9051,7.6947,7.5671,7.505,7.4947,7.4947,7.4843,7.4154,0.0,0.0,7.3015,7.274,7.2671,7.2671,7.2671,7.2671,7.2671,7.221,7.16,7.094,7.0076,6.922,6.8567,6.8301,6.8201,6.8201,6.8201,6.8201,6.8201,6.8201,6.8201,6.8201,6.8101,6.7797,6.6901,6.6586,6.6161,6.5218,6.4998,6.4888,6.4888,6.4888,0.0,6.4888,6.498,6.4672,6.3872,6.3133,6.2148,6.0855,5.907,5.8085,5.7993,5.7408,5.6423,5.5068,5.5653,5.5899,5.5807,5.513,5.4853,0.0,0.0,0.0,0.0,0.0,0.0,0.0,0.0,0.0,0.0,0.0,0.0,0.0,0.0,0.0,6.6221,6.8049,7.0394,7.4843,7.5947,7.6706,7.7603,7.8672,7.9534,8.012,8.1431,8.2259,8.2259,8.2949,8.3431,8.3569,8.3707,8.4156,8.4949,8.4984,8.5259,8.5846,8.6018,8.5777,8.519,8.4535,0.0,8.3087,8.2362,8.1948,8.181,8.181,8.181,8.1672,8.0155,7.8775,7.7568,7.6533,7.6016,7.5809,7.5154,7.4947,7.4912,7.4774,7.4292,7.3774,7.3602,7.3153,7.2671,7.2671,7.2671,0.0,7.2671,7.2586,7.2501,7.2296,7.13,7.0203,7.011,6.9156,6.8201,6.8201,6.8201,6.8201,6.8201,6.8201,6.8201,6.8201,6.7797,6.7593,6.7899,6.6764,6.5915,6.6268,6.5437,6.4888,6.4888,6.4888,6.4888,6.4888,6.5411,6.5165,6.3903,6.2671,6.1625,6.0824,6.0424,5.9963,5.9408,5.9285,5.8547,5.7192,5.7315,5.71,5.6546,5.5838,5.5499,0.0,0.0,0.0,0.0,0.0,0.0,0.0,0.0,0.0,0.0,0.0,5.8599,6.0875,0.0,6.4393,6.8566,7.0532,7.274,7.6189,7.7327,7.7948,7.8361,7.9396,8.0362,8.1155,8.2224,8.3052,8.3431,8.4156,8.4604,8.4604,8.4949,8.5328,8.5742,8.5742,8.5949,8.6294,8.6294,8.6122,8.5742,8.457,8.3811,8.3431,8.2293,8.181,8.181,8.181,8.181,8.1707,8.0534,7.9396,7.8327,7.7948,7.7327,7.6637,7.6223,7.6085,7.5982,7.5188,7.4671,7.4223,7.3464,7.2981,7.2671,7.2671,7.2671,7.2671,7.2671,7.2671,7.2586,7.2245,7.1566,7.0849,7.0076,6.9316,6.8666,6.8301,6.8201,6.8201,6.8201,6.8201,6.8201,6.8201,6.8,6.7797,6.7797,6.6869,6.6161,6.6161,6.5623,6.5187,6.4888,6.4888,6.4888,6.4888,6.5503,6.5596,6.4918,6.4241,6.3564,6.2887,6.2179,6.1502,6.0824,6.0455,5.9963,5.9285,5.9285,5.8947,5.827,5.7562,5.6884,0.0,0.0,0.0,0.0,0.0,0.0,0.0,5.7012,5.8116,5.9668,6.0047,6.1047,6.4117,6.5704,6.7635,7.0946,7.305,7.505,7.7361,7.8327,7.8844,7.8844,8.0017,8.1155,8.1948,8.2811,8.3604,8.419,8.4984,8.5397,8.5397,8.5984,8.6294,8.6294,8.6294,8.6294,8.6294,8.6294,8.6156,8.5846,8.4604,8.388,8.3535,8.2362,8.181,8.181,8.181,8.1707,8.1535,8.0879,8.0189,7.95,7.9362,7.8534,7.7465,7.7465,7.7361,7.7051,7.5809,7.5188,7.474,7.3498,7.2912,7.2671,7.2671,7.2671,7.2671,7.2671,7.2671,7.2586,7.1951,7.16,7.103,6.9794,6.9316,6.8961,6.8301,6.8298,6.8363,6.8234,6.8428,6.8525,6.8234,6.823,6.8124,6.7818,6.7101,6.6437,6.6103,6.5918,6.553,6.4918,6.5011,6.5165,6.5288,6.5657,6.6027,6.6273,6.618,6.5842,6.5319,6.421,6.3349,6.2825,6.1994,6.1532,6.1379,6.1132,6.064,5.9963,5.9439,5.8362,5.6909,5.6736,5.6771,5.6598,5.715,5.7943,0.0,5.9806,6.122,6.2772,6.36,6.5014,6.8083,6.8773,7.036,7.4774,7.5706,7.6637,7.8948,7.9879,8.0362,8.0362,8.1155,8.1948,8.2707,8.4087,8.4984,8.5052,8.5777,8.6191,8.6191,8.626,8.6294,8.6294,8.6294,8.6294,8.6294,8.6294,8.5604,8.4259,8.4087,8.3328,8.2052,8.1879,8.181,8.181,8.181,8.1397,8.0741,8.0672,8.0189,7.9431,7.8775,7.843,7.8292,7.8292,7.781,7.7189,7.7016,7.6085,7.4912,7.474,7.3774,7.2671,7.2671,7.2671,7.2671,7.2671,7.2671,7.2671,7.2586,7.1566,7.0574,7.0389,6.9349,6.8301,6.8201,6.8687,6.8978,6.8331,6.927,6.9756,6.8428,6.8344,6.866,6.9071,6.77,6.6807,6.73,6.6526,6.5676,6.4949,6.5442,6.6027,6.6642,6.6211,6.6427,6.7627,6.7135,6.6765,6.6704,6.655,6.6427,6.6334,6.5103,6.4118,6.3472,6.2271,6.1348,6.0701,6.0609,5.9532,5.8461,5.8116,5.8081,5.8081,5.9012,6.0082,6.0875,6.222,6.3703,6.5255,6.6152,6.7601,7.0705,7.1256,7.2326,7.5568,7.6878,7.7948,7.9327,8.0155,8.0465,8.0017,8.0638,8.1741,8.3397,8.4121,8.488,8.5777,8.6122,8.6294,8.6294,8.6294,8.6294,8.6294,8.6294,8.6294,8.6294,8.6294,8.5984,8.5363,8.4383,8.3594,8.3087,8.212,8.1708,8.181,8.181,8.1603,8.1293,8.1293,8.1121,8.0776,7.9982,7.9431,7.8948,7.8051,7.7223,7.6499,7.6016,7.5154,7.4188,7.3774,7.3188,7.2671,7.2671,7.2671,7.2671,7.2671,7.2671,7.2671,7.2671,7.1951,7.103,7.0574,6.9934,6.9385,6.8918,6.9399,6.9853,6.9529,6.9982,7.0209,6.9594,6.9517,6.9769,7.0468,6.8941,6.7705,6.7565,6.7511,6.7274,6.6756,6.6919,6.7196,6.7473,6.7596,6.772,6.7904,6.7997,6.7904,6.7535,6.7504,6.7319,6.6919,6.6365,6.5934,6.5626,6.4672,6.3841,6.3164,6.2364,6.1317,5.9633,5.953,5.9702,5.9909,6.1289,6.2772,6.3565,6.4876,6.6393,6.7911,6.867,6.9842,7.2498,7.3153,7.405,7.6361,7.7844,7.9051,8.0017,8.0258,8.012,7.9569,7.9603,8.0569,8.2845,8.3466,8.4363,8.588,8.6018,8.6087,8.6294,8.6294,8.6294,8.6294,8.6294,8.6194,8.5958,8.6194,8.609,8.5648,8.4489,8.3837,8.3673,8.233,8.1684,8.1799,8.1991,8.2121,8.2121,8.2121,8.1983,8.1707,8.0914,8.0155,7.9362,7.8051,7.7051,7.6292,7.5499,7.474,7.3981,7.3222,7.2843,7.2705,7.2912,7.2981,7.2981,7.2981,7.2981,7.2946,7.274,7.2124,7.1389,7.0666,7.032,6.9977,6.9441,6.9885,7.0403,7.0403,7.0727,7.0921,7.0727,7.0857,7.1148,7.1634,7.0704,6.9564,6.859,6.8783,6.8826,6.8513,6.8421,6.8506,6.8458,6.8735,6.8766,6.8489,6.8735,6.8674,6.8212,6.8181,6.7966,6.7473,6.7289,6.7196,6.7196,6.6519,6.5934,6.5442,6.4426,6.3687,5.9978,6.0703,6.1427,6.2186,6.4083,6.5945,6.6669,6.8049,6.9566,7.105,7.136,7.1877,7.3464,7.4361,7.5637,7.7948,7.8982,8.0017,8.1535,8.0465,7.9534,7.95,7.8223,7.8223,8.05,8.2086,8.3569,8.5121,8.5225,8.5535,8.626,8.6294,8.6294,8.6294,8.6294,8.5856,8.4995,8.5856,8.5513,8.3942,8.4002,8.3673,8.2914,8.2155,8.1674,8.1696,8.2555,8.288,8.288,8.288,8.2466,8.1707,8.0914,8.0155,7.9431,7.8637,7.7879,7.7085,7.6326,7.5568,7.4774,7.4016,7.3257,7.2809,7.3533,7.374,7.374,7.374,7.374,7.3567,7.2877,7.2124,7.1389,7.0666,6.9921,6.9353,6.9311,6.9885,7.0403,7.0403,7.1504,7.2217,7.1504,7.1958,7.2443,7.2476,7.3026,7.2755,7.0806,7.018,6.989,6.987,6.9845,6.9837,6.9901,6.9259,6.9166,6.9782,6.9228,6.8889,6.8858,6.8858,6.8858,6.8828,6.8212,6.7904,6.7904,6.7227,6.6888,6.6858,6.6827,6.6765,6.0875,6.222,6.3979,6.5773,6.7187,6.8463,6.9704,7.0774,7.1394,7.0877,7.0774,7.0912,7.1429,7.1739,7.2843,7.5637,7.7154,7.8706,8.0741,8.0569,7.9672,7.8154,7.7534,7.7327,7.7603,7.9913,8.2466,8.5018,8.519,8.5535,8.626,8.6294,8.6294,8.6294,8.6294,8.6194,8.589,8.5549,8.4933,8.3874,8.3432,8.2751,8.1968,8.2874,8.3203,8.3178,8.3024,8.2914,8.288,8.2362,8.1707,8.0948,8.0189,7.9431,7.8637,7.7361,7.6706,7.6361,7.5602,7.4499,7.3395,7.3119,7.3222,7.336,7.3119,7.3395,7.3671,7.3188,7.305,7.2981,7.274,7.2501,7.2135,7.1371,7.135,7.1357,7.0837,7.1666,7.2508,7.2508,7.3253,7.3804,7.3577,7.3739,7.3954,7.3996,7.3481,7.2764,7.2199,7.1656,7.1205,7.1319,7.1316,7.1255,7.1259,7.0644,7.0305,7.0551,6.9505,6.9074,6.9536,6.9135,6.8889,6.8889,6.8674,6.8551,6.8551,6.7904,6.7596,6.7566,6.7135,6.6919,6.2703,6.46,6.6807,6.8808,7.0118,7.1153,7.2084,7.2705,7.2705,7.1463,7.0774,7.0291,7.0049,6.9773,7.0463,7.3257,7.4774,7.6602,7.9431,7.9603,7.8982,7.7775,7.7396,7.7154,7.6947,7.8913,8.1259,8.3776,8.4466,8.5121,8.588,8.6156,8.6294,8.6294,8.6294,8.5992,8.5343,8.5173,8.466,8.3909,8.3055,8.2263,8.1498,8.2547,8.2955,8.2718,8.2778,8.2634,8.2423,8.2301,8.1569,8.0569,8.0086,7.912,7.7844,7.6878,7.5982,7.5223,7.4705,7.3878,7.3015,7.2774,7.2981,7.336,7.3153,7.3395,7.3671,7.3222,7.3084,7.3084,7.3084,7.2878,7.2542,7.2109,7.2114,7.2145,7.1876,7.2541,7.335,7.3836,7.4289,7.4678,7.4937,7.5196,7.5297,7.5214,7.4395,7.3607,7.3241,7.2833,7.2542,7.2398,7.2552,7.2552,7.2337,7.169,7.129,7.129,7.0244,6.969,6.9874,6.9474,6.9135,6.8889,6.8889,6.8889,6.8889,6.8458,6.8274,6.8274,6.7812,6.7504,6.5462,6.7738,6.9877,7.1291,7.2809,7.3878,7.3843,7.3809,7.3533,7.274,7.1325,6.998,6.9256,6.8497,6.8773,7.1153,7.2257,7.4154,7.8051,7.7948,7.7706,7.8361,7.7844,7.7672,7.8396,7.9155,8.0258,8.1741,8.319,8.4363,8.5225,8.5915,8.6294,8.6294,8.6294,8.5446,8.3817,8.4592,8.4613,8.3758,8.2874,8.2093,8.1531,8.1424,8.0992,8.0443,8.196,8.2174,8.163,8.2389,8.1819,8.0441,8.0441,7.9132,7.7202,7.7133,7.5844,7.3947,7.3878,7.3809,7.3602,7.2912,7.2705,7.2843,7.3533,7.374,7.3774,7.3774,7.3809,7.3843,7.3878,7.3391,7.279,7.2848,7.228,7.1915,7.2461,7.2605,7.3059,7.4387,7.4678,7.4937,7.5649,7.6362,7.6556,7.5951,7.5803,7.5337,7.4026,7.3905,7.3661,7.3107,7.357,7.3692,7.3107,7.2368,7.1998,7.2029,7.1321,7.0644,7.0028,6.9936,6.9597,6.8951,6.8889,6.8889,6.8889,6.8889,6.8889,6.8889,6.8889,6.8551,6.7945,7.0498,7.2843,7.3809,7.4809,7.5361,7.4774,7.4188,7.3257,7.136,6.9325,6.7635,6.6876,6.66,6.7738,7.1739,7.3498,7.5878,8.0327,8.0776,8.0293,7.9327,7.9534,7.9603,7.9258,8.0431,8.1603,8.2569,8.35,8.4604,8.5949,8.6191,8.6294,8.6294,8.6294,8.5754,8.4679,8.3046,8.1813,8.0979,8.1401,8.148,8.1426,8.1976,8.2193,8.1909,8.1236,8.0842,8.0677,7.9803,7.8791,7.7981,7.7981,7.7697,7.7119,7.6539,7.6359,7.6189,7.505,7.3912,7.2946,7.274,7.305,7.3429,7.3084,7.3326,7.3774,7.3774,7.4188,7.474,7.5361,7.5754,7.5696,7.4627,7.4572,7.4511,7.3533,7.4127,7.5002,7.5358,7.5876,7.6297,7.6491,7.6686,7.6783,7.6556,7.6181,7.5337,7.4026,7.3905,7.3661,7.3107,7.3107,7.3231,7.2983,7.2368,7.2183,7.2706,7.1567,7.1075,7.1444,7.0459,6.9813,6.9628,6.9135,6.8889,6.8889,6.8889,6.8889,6.8889,6.8889,6.8797,7.0739,7.2981,7.4981,7.574,7.6016,7.5809,7.4671,7.3843,7.2567,6.9911,6.8118,6.6669,6.5566,6.5083,6.6152,7.0049,7.1946,7.4671,7.9603,8.0603,8.0741,8.0534,8.1155,8.1328,8.0603,8.1879,8.3087,8.3845,8.4294,8.4915,8.5777,8.6122,8.6294,8.6294,8.5992,8.5172,8.3959,8.2108,8.1148,8.1048,8.1148,8.1427,8.1769,8.1553,8.1335,8.0939,8.011,7.9661,7.9262,7.8883,7.8216,7.7547,7.7547,7.701,7.6121,7.5619,7.5518,7.5605,7.4693,7.41,7.3671,7.3671,7.3947,7.4223,7.3809,7.3947,7.4361,7.4705,7.4843,7.5154,7.6292,7.6334,7.5927,7.5469,7.5327,7.5092,7.4626,7.5164,7.5811,7.6135,7.6524,7.6783,7.6783,7.6783,7.667,7.6442,7.5835,7.4984,7.4026,7.3905,7.3661,7.3107,7.2983,7.2983,7.2983,7.2645,7.2583,7.2952,7.2244,7.1875,7.1967,7.1229,7.0644,7.0336,6.9967,6.9628,6.932,6.932,6.9166,6.8889,6.8889,6.8735,7.3498,7.5154,7.643,7.7051,7.6602,7.5533,7.3981,7.2912,7.1394,6.8532,6.729,6.629,6.4945,6.4186,6.4841,6.8152,6.9808,7.2602,7.8085,7.9396,8.0362,8.1776,8.2707,8.2949,8.2328,8.35,8.4604,8.5294,8.5363,8.5363,8.5363,8.5949,8.6194,8.6093,8.5446,8.4128,8.2485,8.1606,8.1606,8.2266,8.1374,8.1381,8.2133,8.0536,7.9503,7.8856,7.8775,7.8387,7.7905,7.8558,7.8441,7.784,7.784,7.6673,7.5105,7.5005,7.4657,7.4204,7.4,7.4389,7.4925,7.4894,7.4947,7.4947,7.4947,7.4947,7.5085,7.5878,7.5583,7.5357,7.6802,7.6137,7.5239,7.5773,7.5405,7.5034,7.5585,7.5811,7.6038,7.6686,7.6783,7.6783,7.6783,7.6783,7.6556,7.5919,7.5337,7.4747,7.4026,7.3783,7.357,7.3107,7.2983,7.2983,7.2983,7.2983,7.2983,7.2983,7.2983,7.2706,7.2152,7.2029,7.169,7.1075,7.0859,7.049,6.9905,6.9813,6.9443,6.8889,6.8889,6.8581,7.5257,7.6361,7.7051,7.7189,7.6189,7.474,7.3222,7.1325,6.936,6.7566,6.6083,6.5014,6.4738,6.46,6.6117,7.1084,7.2119,7.4361,8.0362,8.1328,8.1741,8.2604,8.3949,8.4742,8.4604,8.5397,8.5949,8.6087,8.6122,8.6122,8.6122,8.6225,8.5992,8.5239,8.51,8.4184,8.2425,8.2215,8.1868,8.1271,8.1079,8.1025,8.1198,7.9782,7.9017,7.8823,7.7642,7.7106,7.6943,7.6548,7.6222,7.6124,7.6124,7.6299,7.6545,7.5917,7.6036,7.6339,7.5131,7.4791,7.4877,7.4885,7.4947,7.4947,7.4947,7.4947,7.5085,7.5878,7.5948,7.6002,7.6923,7.691,7.6479,7.5983,7.6191,7.6297,7.5811,7.62,7.6653,7.6783,7.6783,7.6783,7.6783,7.6783,7.6556,7.5919,7.5687,7.522,7.4026,7.3447,7.3107,7.2983,7.2983,7.2983,7.2983,7.2983,7.2983,7.2983,7.2983,7.2922,7.2829,7.2275,7.1906,7.1783,7.0644,6.9997,6.9905,6.932,6.9012,6.8889,6.8889,6.8828,7.6376,7.7258,7.7844,7.7844,7.6085,7.3947,7.2395,7.0291,6.8014,6.5704,6.4945,6.4565,6.4186,6.4427,6.5911,6.9704,7.0636,7.305,7.9155,8.0017,8.0879,8.3225,8.4501,8.519,8.519,8.588,8.6294,8.6294,8.6294,8.6294,8.6294,8.5856,8.5204,8.4359,8.3926,8.3042,8.1701,8.1701,8.1499,8.1025,8.1025,8.1025,8.0993,7.9536,7.8888,7.8823,7.7398,7.6783,7.6783,7.6427,7.607,7.5747,7.6135,7.5806,7.5233,7.5233,7.5273,7.5236,7.4539,7.4605,7.4865,7.4924,7.515,7.5515,7.5515,7.5729,7.608,7.6071,7.6054,7.6096,7.6459,7.6473,7.63,7.5938,7.6376,7.6718,7.6362,7.6556,7.6783,7.6783,7.6783,7.6783,7.6783,7.6556,7.6181,7.5803,7.522,7.4627,7.4026,7.3324,7.2983,7.2983,7.2983,7.2983,7.2983,7.2983,7.2983,7.2983,7.2983,7.2983,7.2983,7.2675,7.2491,7.2491,7.1844,7.1321,7.0982,7.0644,7.012,6.9413,6.9413,6.9228,7.694,7.781,7.8396,7.8396,7.6085,7.3395,7.1843,6.9497,6.6807,6.3945,6.3945,6.422,6.3496,6.3979,6.5324,6.7911,6.8739,7.1153,7.7292,7.8292,7.9741,8.3362,8.4604,8.5259,8.5432,8.5949,8.6294,8.6294,8.6294,8.6294,8.6294,8.5446,8.4679,8.4035,8.3154,8.228,8.1263,8.1263,8.1144,8.1025,8.1025,8.0961,8.0766,7.9633,7.8953,7.8596,7.7495,7.6945,7.6783,7.6621,7.6232,7.5747,7.6168,7.5293,7.3836,7.4225,7.4072,7.3689,7.3525,7.3902,7.4406,7.4605,7.5161,7.5737,7.5737,7.6241,7.6597,7.6167,7.5699,7.5523,7.5873,7.5724,7.562,7.5948,7.6385,7.6783,7.6783,7.6783,7.6783,7.6783,7.6783,7.6783,7.6556,7.6181,7.5687,7.5454,7.4508,7.3905,7.3661,7.3324,7.2983,7.2983,7.2983,7.2983,7.2983,7.2983,7.2983,7.2983,7.2983,7.2983,7.2983,7.2983,7.2983,7.2983,7.2829,7.2521,7.1967,7.1813,7.1105,6.9905,6.9905,6.9536,7.663,7.781,7.8396,7.8396,7.6085,7.3395,7.1843,6.8704,6.5428,6.3082,6.3186,6.3462,6.2737,6.3186,6.491,6.8566,6.8635,7.0325,7.6464,7.7948,7.9534,8.2638,8.4294,8.5466,8.6122,8.626,8.6294,8.6294,8.6294,8.6294,8.6294,8.5446,8.4995,8.489,8.4035,8.3154,8.228,8.228,8.1818,8.1025,8.1025,8.0701,8.0054,7.9924,7.9147,7.7916,7.7754,7.7366,7.6751,7.6103,7.5779,7.5649,7.5034,7.4678,7.4419,7.3868,7.3685,7.349,7.2809,7.2688,7.2794,7.3595,7.4373,7.5,7.5,7.5097,7.5231,7.5739,7.4905,7.4199,7.5483,7.5275,7.5047,7.6377,7.6798,7.6783,7.6783,7.6783,7.6783,7.6783,7.6783,7.6556,7.6066,7.5803,7.5454,7.4268,7.4026,7.3661,7.3107,7.2983,7.2983,7.2983,7.2983,7.2983,7.2983,7.2983,7.2983,7.2983,7.2983,7.2983,7.2983,7.2983,7.2983,7.2983,7.2368,7.2029,7.1967,7.1321,7.0613,6.9905,6.9905,6.9536,7.5276,7.7066,7.846,7.8959,7.6395,7.3413,7.2005,6.867,6.5145,6.2467,6.2827,6.3358,6.2634,6.3082,6.4393,6.6842,6.6566,6.7842,7.305,7.405,7.5878,8.0327,8.2224,8.3811,8.5466,8.6053,8.6294,8.6294,8.6294,8.6294,8.6294,8.5446,8.4785,8.4251,8.3377,8.251,8.1617,8.1617,8.1381,8.1025,8.1025,8.0896,8.0572,7.9698,7.9017,7.8402,7.756,7.7042,7.6751,7.6006,7.5455,7.5002,7.471,7.4063,7.335,7.3512,7.3318,7.2897,7.2605,7.2508,7.2582,7.29,7.3181,7.3492,7.4003,7.4506,7.4771,7.4027,7.4122,7.4352,7.4449,7.4832,7.552,7.6556,7.6783,7.6783,7.6783,7.6783,7.667,7.6296,7.6181,7.5951,7.5369,7.4866,7.4508,7.4026,7.357,7.32,7.2983,7.2983,7.2983,7.2983,7.2983,7.2983,7.2983,7.2983,7.2983,7.2983,7.2983,7.2983,7.2983,7.2983,7.2983,7.2983,7.2706,7.2583,7.2583,7.2306,7.1813,7.1136,7.1136,7.0767,7.3833,7.6461,7.8503,7.9338,7.6596,7.3429,7.1708,6.8207,6.4461,6.1715,6.2261,6.3048,6.2289,6.2944,6.4083,6.5635,6.5393,6.6566,7.0877,7.1498,7.3222,7.7948,7.9672,8.1431,8.3949,8.5466,8.6294,8.6294,8.6294,8.6294,8.6294,8.5754,8.4995,8.4143,8.293,8.205,8.1381,8.1144,8.1025,8.1025,8.0831,8.0701,8.0669,7.9438,7.8758,7.8532,7.7528,7.6977,7.6751,7.6006,7.5261,7.4581,7.4387,7.3545,7.2573,7.3059,7.2929,7.2508,7.2508,7.2508,7.2508,7.2508,7.2508,7.2582,7.3181,7.3698,7.4037,7.3054,7.3714,7.4555,7.4085,7.4808,7.5844,7.6362,7.6653,7.6751,7.6524,7.6508,7.6296,7.5919,7.5687,7.5337,7.4747,7.4147,7.3783,7.3692,7.32,7.2983,7.2983,7.2983,7.2983,7.2983,7.2983,7.2983,7.2983,7.2983,7.2983,7.2983,7.2983,7.2983,7.2983,7.2983,7.2983,7.2983,7.2798,7.2768,7.2983,7.2768,7.2429,7.1967,7.1967,7.1598,7.2605,7.6051,7.8603,7.9327,7.6702,7.3322,7.111,6.7093,6.3101,6.0891,6.1508,6.2255,6.1461,6.2565,6.4083,6.5635,6.5876,6.7187,7.0981,7.1498,7.2636,7.5775,7.6809,7.8465,8.1535,8.4535,8.6294,8.6294,8.6294,8.6294,8.6294,8.6294,8.589,8.4995,8.3265,8.2395,8.2395,8.1499,8.1025,8.1025,8.0313,7.9989,7.9957,7.9212,7.8499,7.7819,7.7819,7.7431,7.6751,7.6006,7.5261,7.4516,7.3868,7.3156,7.2508,7.2508,7.2508,7.2508,7.2508,7.2508,7.2508,7.2508,7.2508,7.2508,7.2508,7.2508,7.2638,7.335,7.4063,7.4581,7.4581,7.5131,7.5714,7.5714,7.6265,7.6589,7.5876,7.5813,7.5803,7.5803,7.5369,7.4659,7.4026,7.3905,7.3661,7.3107,7.2983,7.2983,7.2983,7.2983,7.2983,7.2983,7.2983,7.2983,7.2983,7.2983,7.2983,7.2983,7.2983,7.2983,7.2983,7.2983,7.2983,7.2983,7.2337,7.2306,7.2983,7.2306,7.1998,7.1967,7.1967,7.1598,6.6531,6.93,7.1665,7.1943,7.1075,6.957,6.7413,6.5344,6.3242,6.0953,6.1588,6.2501,6.2182,6.291,6.4083,6.5635,6.5876,6.6669,6.8877,7.0084,7.1877,7.4947,7.8741,8.1914,8.3914,8.4984,8.5777,8.626,8.6294,8.6093,8.5446,8.5446,8.4995,8.4143,8.3598,8.2704,8.1499,8.1144,8.0799,8.0313,8.0572,8.0183,7.9212,7.8985,7.8499,7.7754,7.6783,7.6524,7.6653,7.4969,7.4387,7.4484,7.3285,7.2703,7.2573,7.3059,7.2929,7.2573,7.3059,7.2897,7.2508,7.2508,7.2508,7.2508,7.2508,7.2508,7.2638,7.3383,7.3739,7.3998,7.4484,7.4775,7.5099,7.5585,7.5909,7.6135,7.6394,7.6135,7.5687,7.522,7.4627,7.4026,7.3447,7.3324,7.32,7.2983,7.2983,7.2983,7.2983,7.2983,7.2983,7.2983,7.2983,7.2983,7.2983,7.2983,7.2983,7.2983,7.2983,7.2983,7.2983,7.2983,7.2983,7.2983,7.2768,7.2768,7.2983,7.2768,7.2675,7.2675,7.2675,7.1904,6.2842,6.5825,6.8178,6.873,6.8272,6.7112,6.5204,6.3723,6.2249,6.0792,6.1223,6.1859,6.209,6.2993,6.4023,6.495,6.5757,6.6842,6.8325,6.9842,7.1946,7.5016,7.9327,8.2535,8.3776,8.4949,8.5811,8.626,8.6294,8.589,8.4995,8.4995,8.4331,8.2832,8.3099,8.2345,8.0637,8.0637,8.028,7.9568,7.973,7.9503,7.8888,7.8337,7.7852,7.7366,7.6524,7.6232,0.0,7.5229,7.4872,7.4937,7.4063,7.3383,7.2962,7.3415,7.3124,7.2573,7.3026,7.2864,7.2508,7.2508,7.2508,7.2508,7.2508,7.2508,7.2605,7.3059,7.3156,7.3318,7.403,7.4387,7.4646,7.4872,7.5552,7.6038,7.5649,7.5296,7.4892,7.4256,7.3615,7.3044,7.2707,7.2829,7.2983,7.2983,7.2983,7.2983,7.2983,7.2983,7.2983,7.2983,7.2983,7.2983,7.2983,7.2983,7.2983,7.2983,7.2983,7.2983,7.2983,7.2983,7.2983,7.2983,7.2737,7.2737,7.2983,7.2737,7.2614,7.2614,7.2614,7.2243,0.0,6.4472,6.702,6.8395,6.7255,6.5453,6.4101,6.2113,0.0,6.0531,6.0525,6.0684,6.1418,6.2649,6.3713,6.3815,6.5559,6.7463,6.9049,7.0739,7.2912,7.5844,7.8913,8.1052,8.1741,8.4501,8.626,8.6294,8.626,8.5822,8.4995,8.4788,8.3672,8.1275,8.1787,8.1475,7.9892,7.9892,7.9536,7.8791,7.8175,7.8175,7.8629,7.7366,7.6783,7.6718,7.6621,7.6265,7.5844,7.6362,7.6232,7.5714,7.5617,7.4743,7.3577,7.3577,7.3124,7.2508,7.2573,7.2541,7.2508,7.2508,7.2508,7.2508,7.2508,7.2508,7.2508,7.2508,7.2508,7.267,7.3318,7.3966,7.4289,7.3706,7.5099,7.6038,7.4063,7.3788,7.3601,7.2938,7.2288,7.1906,7.1967,7.2491,7.2922,7.2922,7.2952,7.2952,7.2922,7.2952,7.2983,7.2983,7.2983,7.2983,7.2983,7.2983,7.2983,7.2983,7.2983,7.2983,7.2983,7.2983,7.2983,7.2983,7.2368,7.2368,7.2983,7.2337,7.206,7.206,7.206,7.2368,5.5879,0.0,5.9965,6.0325,6.0805,6.1117,0.0,6.0759,0.0,0.0,0.0,0.0,6.1568,6.1951,6.2717,6.4393,6.5062,6.6337,6.89,7.2602,7.5499,7.6809,8.0155,8.2224,8.1845,8.4018,8.5708,8.626,8.5777,8.507,8.411,8.2926,8.1733,8.0392,7.9918,7.9542,7.9147,7.9147,7.8791,7.8078,7.8467,7.7884,7.6459,7.6686,7.6491,7.5909,7.4808,7.5164,7.6427,7.4937,7.4872,7.5617,7.4516,7.3868,7.3577,7.3577,7.3124,7.2573,7.3124,7.2962,7.2508,7.2508,7.2508,7.2508,7.2508,7.2508,7.2508,7.2508,7.2508,7.2541,7.2703,7.2864,7.3091,7.348,7.3966,7.4322,7.4354,7.3724,7.3001,7.2843,7.1883,7.1321,7.1875,7.2091,7.2214,7.2214,7.2645,7.2798,7.2275,7.2675,7.2983,7.2983,7.2983,7.2983,7.2983,7.2983,7.2983,7.2983,7.2983,7.2983,7.2983,7.2983,7.2983,7.2983,7.2829,7.2829,7.2983,7.2829,7.2737,7.2737,7.2737,7.2425,5.4648,5.596,5.7223,5.7903,5.8389,5.8907,5.9555,0.0,0.0,0.0,0.0,0.0,0.0,6.1944,6.2656,6.4143,6.5209,6.6991,7.0412,7.3293,7.5844,7.8017,8.0707,8.25,8.2776,8.457,8.5508,8.524,8.5198,8.4251,8.2233,8.1684,8.074,7.9101,7.8596,7.8402,7.8402,7.8402,7.8046,7.7333,7.7398,7.6815,7.5714,7.5779,7.539,7.471,7.4257,7.471,7.5714,7.4905,7.5002,7.5649,7.4872,7.416,7.3577,7.3577,7.3124,7.2573,7.2962,7.2832,7.2508,7.2508,7.2508,7.2508,7.2508,7.2508,7.2508,7.2508,7.2508,7.2508,7.2508,7.2735,7.2994,7.3059,7.3577,7.3966,7.3706,7.2988,7.2243,7.1895,7.1042,7.0582,7.0952,7.129,7.1475,7.1475,7.1783,7.1906,7.1536,7.2091,7.2521,7.2521,7.2798,7.2983,7.2983,7.2983,7.2983,7.2983,7.2983,7.2983,7.2983,7.2983,7.2983,7.2983,7.2983,7.2675,7.2029,7.2368,7.2368,7.2029,7.2368,7.2147,5.5052,5.601,5.7098,5.8162,5.8097,5.8065,5.9425,0.0,0.0,0.0,0.0,0.0,0.0,6.2081,6.2896,6.3814,6.616,6.9101,7.2518,7.3891,7.5706,7.8948,8.0983,8.2535,8.3569,8.5259,8.5648,8.4045,8.4419,8.3432,8.041,8.0726,8.0034,7.7819,7.7722,7.7657,7.7657,7.756,7.7269,7.6783,7.5941,7.5552,7.552,7.4872,7.4289,7.3771,7.4354,7.471,7.4969,7.539,7.5617,7.5682,7.5488,7.4646,7.3577,7.3447,7.3026,7.2508,7.2508,7.2508,7.2508,7.2508,7.2508,7.2508,7.2508,7.2508,7.2508,7.2508,7.2508,7.2508,7.2508,7.2962,7.3253,7.2638,7.3415,7.3933,7.2767,7.2092,7.1421,7.082,7.0139,6.9782,6.9874,7.0367,7.0767,7.0767,7.0828,7.089,7.089,7.1444,7.1875,7.2091,7.2552,7.286,7.2983,7.2983,7.2983,7.2983,7.2983,7.2983,7.2983,7.2983,7.2983,7.2983,7.2983,7.2398,7.1229,7.1844,7.1813,7.1229,7.1844,7.1777,5.4468,5.6417,5.8134,5.7845,5.8097,5.868,5.9522,0.0,0.0,0.0,0.0,0.0,0.0,6.1021,6.2595,6.4539,6.8777,7.2468,7.4309,7.6359,7.7913,7.8499,8.1603,8.3259,8.2259,8.4673,8.5648,8.4045,8.3398,8.2337,8.0266,7.9111,7.8354,7.7787,7.7236,7.6945,7.6945,7.633,7.6297,7.6783,7.5423,7.4775,7.4775,7.4646,7.4516,7.4451,7.4548,7.5293,7.6362,7.5229,7.5131,7.5585,7.4387,7.3771,7.3512,7.2897,7.2605,7.2508,7.2508,7.2508,7.2508,7.2508,7.2508,7.2508,7.2508,7.2508,7.2508,7.2508,7.2508,7.2508,7.2508,7.2573,7.2638,7.2541,7.267,7.2767,7.2541,7.1676,7.0852,7.0726,6.9765,6.9228,6.9782,6.9997,7.0059,7.0059,7.0551,7.089,7.089,7.1013,7.1536,7.2706,7.2398,7.2368,7.2922,7.2983,7.2983,7.2983,7.2983,7.2983,7.2983,7.2983,7.2983,7.2983,7.2983,7.2891,7.2675,7.2768,7.2768,7.2675,7.2768,7.1825,5.4417,5.588,5.756,5.8002,5.8656,5.9376,6.0043,0.0,0.0,0.0,0.0,0.0,6.0631,6.1956,6.4051,6.7453,7.0259,7.2737,7.4718,7.5845,7.7154,7.881,8.1259,8.2707,8.2431,8.4397,8.4657,8.2202,8.214,8.101,7.8514,7.8157,7.7741,7.7269,7.6945,7.6783,7.6783,7.607,7.607,7.6783,7.5714,7.5196,7.5196,7.4775,7.4581,7.4581,7.4581,7.4969,7.5552,7.4872,7.4581,7.4484,7.3836,7.335,7.2962,7.2605,7.2508,7.2508,7.2508,7.2508,7.2508,7.2508,7.2508,7.2508,7.2508,7.2508,7.2508,7.2508,7.2508,7.2508,7.2508,7.2508,7.2508,7.2508,7.2508,7.2508,7.2508,7.1502,7.0726,7.0726,6.9703,6.8982,6.9289,6.9351,6.9474,6.9843,7.0151,7.049,7.0859,7.089,7.129,7.2337,7.2152,7.2244,7.2922,7.2983,7.2983,7.2983,7.2983,7.2983,7.2983,7.2983,7.2983,7.2983,7.2983,7.2798,7.2429,7.2798,7.2798,7.246,7.2798,7.1789,5.4496,5.5832,5.7477,5.8297,0.0,5.9745,6.0919,0.0,0.0,0.0,0.0,0.0,6.1751,6.3463,6.5899,6.9524,7.1019,7.2655,7.5187,7.5607,7.6802,7.9707,8.1397,8.237,8.2555,8.4196,8.3905,8.067,8.0816,7.979,7.7004,7.7238,7.7128,7.6556,7.6718,7.6783,7.6783,7.6232,7.6232,7.6783,7.5876,7.5552,7.5714,7.5131,7.4872,7.4872,7.4872,7.4872,7.484,7.4484,7.403,7.3577,7.3383,7.2994,7.2508,7.2508,7.2508,7.2508,7.2508,7.2508,7.2508,7.2508,7.2508,7.2508,7.2508,7.2508,7.2508,7.2508,7.2508,7.2508,7.2508,7.2508,7.2508,7.2508,7.2508,7.2508,7.2508,7.1502,7.0726,7.0726,6.9703,6.8889,6.8889,6.8889,6.9043,6.9566,6.9782,7.012,7.0828,7.0767,7.1075,7.2091,7.1906,7.206,7.2922,7.2983,7.2983,7.2983,7.2983,7.2983,7.2983,7.2983,7.2983,7.2983,7.2983,7.2737,7.2214,7.2737,7.2706,7.2214,7.2737,7.1789,5.4496,5.6874,5.9268,5.8642,0.0,0.0,6.2016,6.1607,0.0,6.2388,0.0,0.0,6.2804,6.5093,6.7525,6.9112,7.1242,7.3658,7.6508,7.757,7.8955,8.1336,8.2949,8.3277,8.1798,8.3865,8.3905,8.067,7.9827,7.8707,7.7091,7.6299,7.5779,7.5811,7.6459,7.6783,7.6783,7.6751,7.6751,7.6783,7.5358,7.5034,7.5714,7.5649,7.5649,7.5649,7.5649,7.5649,7.552,7.4192,7.3609,7.3512,7.2832,7.2541,7.2508,7.2508,7.2508,7.2508,7.2508,7.2508,7.2508,7.2508,7.2508,7.2508,7.2508,7.2508,7.2508,7.2508,7.2508,7.2508,7.2508,7.2508,7.2508,7.2508,7.2508,7.2508,7.2508,7.1502,7.0726,7.0726,6.9703,6.8889,6.8889,6.8889,6.8889,6.8951,6.9505,7.012,7.0828,7.0367,7.0705,7.2706,7.1752,7.1536,7.286,7.2983,7.2983,7.2983,7.2983,7.2983,7.2983,7.2983,7.2983,7.2983,7.2983,7.2952,7.2922,7.2952,7.2952,7.2922,7.2952,7.1789,5.4574,5.6606,0.0,0.0,0.0,0.0,0.0,0.0,0.0,6.2793,6.3603,0.0,0.0,6.6891,6.8964,7.0448,7.1815,7.384,7.7405,7.7678,7.8416,8.0731,8.1923,8.2067,8.0984,8.26,8.2805,8.0615,7.9732,7.8641,7.7132,7.6581,7.6168,7.5714,7.5973,7.6135,7.6135,7.5649,7.5423,7.5423,7.5326,7.5682,7.6362,7.5909,7.5714,7.5714,7.5714,7.5229,7.4354,7.3804,7.3318,7.2897,7.2605,7.2508,7.2508,7.2508,7.2508,7.2508,7.2508,7.2508,7.2508,7.2508,7.2508,7.2508,7.2508,7.2508,7.2508,7.2508,7.2508,7.2508,7.2508,7.2508,7.2508,7.2508,7.2508,7.2508,7.2508,7.1502,7.0726,7.0726,6.9703,6.8889,6.8889,6.8889,6.9012,6.9443,6.972,7.012,7.0828,7.0305,7.0367,7.1567,7.1629,7.1783,7.2306,7.2737,7.2798,7.2368,7.2768,7.2983,7.2983,7.2983,7.2983,7.2983,7.2983,7.2983,7.2983,7.2983,7.2983,7.2983,7.2983,7.1789,5.5226,5.6647,5.8385,0.0,0.0,0.0,0.0,0.0,0.0,6.3989,6.518,6.6229,6.7004,6.8121,6.9334,7.0391,7.149,7.3373,7.6699,7.7179,7.7714,7.9593,8.0647,8.0614,7.9196,8.1115,8.165,7.9598,7.8892,7.7944,7.639,7.6017,7.5455,7.471,7.5131,7.5358,7.5358,7.484,7.4581,7.4581,7.4905,7.5423,7.6103,7.5585,7.5247,7.5024,7.4798,7.4153,7.3327,7.3101,7.2822,7.2508,7.2508,7.2508,7.2508,7.2508,7.2508,7.2508,7.2508,7.2508,7.2508,7.2508,7.2508,7.2508,7.2508,7.2508,7.2508,7.2508,7.2508,7.2508,7.2508,7.2508,7.2508,7.2508,7.2508,7.2508,7.2262,7.1612,7.0806,7.0501,6.9818,6.9123,6.8889,6.8889,6.9043,6.9505,6.9751,7.0059,7.0521,7.0182,7.0151,7.0828,7.1352,7.1721,7.1967,7.2398,7.246,7.1998,7.2398,7.2768,7.2983,7.2768,7.2768,7.2983,7.2983,7.2983,7.2983,7.2983,7.2983,7.2983,7.2983,7.1789,5.6331,5.7222,5.8327,0.0,0.0,0.0,0.0,0.0,6.3692,6.656,6.7729,6.8469,6.9277,6.8726,6.8227,6.8174,7.0015,7.226,7.4537,7.6063,7.7296,7.8138,7.9499,7.9141,7.6175,7.9363,8.0343,7.7346,7.7044,7.6508,7.4935,7.4078,7.3253,7.2541,7.3836,7.4581,7.4581,7.4581,7.4581,7.4548,7.3901,7.3933,7.4581,7.4581,7.425,7.366,7.2988,7.27,7.2636,7.19,7.1938,7.2508,7.2508,7.2508,7.2508,7.2508,7.2508,7.2508,7.2508,7.2508,7.2508,7.2508,7.2508,7.2508,7.2508,7.2508,7.2508,7.2508,7.2508,7.2508,7.2508,7.2508,7.2508,7.2508,7.2508,7.2369,7.1689,7.158,7.125,7.0016,6.9818,6.9557,6.9006,6.8889,6.8889,6.8889,6.9443,6.9874,6.9874,6.9874,7.0151,7.0828,7.089,7.1198,7.1906,7.1967,7.1967,7.1967,7.1967,7.2275,7.2952,7.2337,7.2306,7.2983,7.2983,7.2983,7.2983,7.2983,7.2983,7.2983,7.2983,7.1789,5.7083,5.822,0.0,0.0,0.0,0.0,0.0,6.4228,0.0,0.0,6.9689,7.0282,6.9451,6.9977,7.0206,6.9148,7.0819,7.2638,7.3972,7.4893,7.5719,7.6535,7.6959,7.6882,7.5938,7.7951,7.888,7.8006,7.7938,7.7205,7.5771,7.486,7.4057,7.3253,7.3156,7.335,7.3868,7.3383,7.3124,7.3124,7.2897,7.3231,7.3916,7.3435,7.2988,7.2394,7.2203,7.2046,7.19,7.2143,7.2369,7.2508,7.2508,7.2508,7.2508,7.2508,7.2508,7.2508,7.2508,7.2508,7.2508,7.2508,7.2508,7.2508,7.2508,7.2508,7.2508,7.2508,7.2508,7.2508,7.2508,7.2508,7.2508,7.2508,7.2508,7.2369,7.1689,7.125,7.0694,6.9901,6.9472,6.9123,6.8889,6.8889,6.8889,6.8889,6.9043,6.9197,6.9197,6.9197,6.9628,7.0767,7.049,7.0459,7.1167,7.169,7.1752,7.1259,7.169,7.2275,7.2952,7.2337,7.2306,7.2983,7.2983,7.2983,7.2983,7.2983,7.2983,7.2983,7.217,7.1118,5.7933,5.9074,0.0,0.0,6.2415,6.3396,6.4784,0.0,0.0,0.0,7.1059,7.1258,7.076,7.0666,7.0436,6.9793,7.1043,7.2437,7.3204,7.4078,7.4727,7.5016,7.5279,7.524,7.4628,7.6007,7.6995,7.6995,7.6864,7.6197,7.4798,7.4138,7.3351,7.2314,7.2152,7.2411,7.3156,7.2703,7.2508,7.2508,7.2508,7.2606,7.2828,7.2444,7.1919,7.1358,7.1131,7.0992,7.0917,7.1502,7.1938,7.2154,7.2154,7.2262,7.2508,7.2508,7.2508,7.2508,7.2508,7.2508,7.2508,7.2508,7.2508,7.2508,7.2508,7.2508,7.2508,7.2508,7.2508,7.2508,7.2508,7.2508,7.2508,7.2508,7.2508,7.2369,7.1689,7.147,7.1029,7.0016,6.9672,6.9441,6.9006,6.8889,6.8889,6.8889,6.8889,6.8889,6.8889,6.8889,6.9289,7.0398,6.9905,6.9751,7.0459,7.089,7.1075,7.0921,7.1321,7.1875,7.2552,7.2183,7.2152,7.2583,7.2829,7.2983,7.2983,7.2983,7.2983,7.2983,7.1916,7.0859,5.8841,0.0,0.0,6.3117,6.3872,0.0,6.6799,6.7817,6.9051,7.1884,7.1917,7.1685,7.2477,7.093,6.9714,7.0377,7.1019,7.1688,7.2309,7.3592,7.43,7.3558,7.4089,7.3973,7.2753,7.3836,7.4835,7.4966,7.4899,7.4262,7.2887,7.258,7.188,7.05,7.1051,7.1699,7.2476,7.2508,7.2508,7.2508,7.2476,7.2154,7.1689,7.158,7.125,7.0613,7.0016,6.9787,6.9818,7.0501,7.106,7.158,7.158,7.1938,7.2508,7.2508,7.2508,7.2508,7.2508,7.2508,7.2508,7.2508,7.2508,7.2508,7.2508,7.2508,7.2508,7.2508,7.2508,7.2508,7.2508,7.2508,7.2508,7.2508,7.2508,7.2369,7.1689,7.2046,7.183,7.013,7.0161,7.013,6.9123,6.8889,6.8889,6.8889,6.8889,6.8889,6.8889,6.8889,6.9135,6.9813,6.9289,6.9166,6.9843,6.9936,7.0244,7.0859,7.1013,7.1352,7.1937,7.1967,7.1967,7.1967,7.2645,7.2983,7.2983,7.2983,7.2983,7.2983,7.1789,7.0729,5.9495,6.0496,0.0,0.0,6.54,6.6811,6.8435,6.8958,6.9376,7.0568,7.1541,7.2266,7.2534,7.1617,7.1032,7.1148,7.1798,7.2008,7.0973,7.2658,7.3416,7.2046,7.1974,7.2444,7.3356,7.3272,7.384,7.5574,7.5195,7.4533,7.3658,7.2462,7.1622,7.118,7.0824,7.1213,7.2476,7.2046,7.2046,7.2508,7.2046,7.1938,7.2262,7.1798,7.1029,7.0016,6.9901,6.9787,6.9818,7.0501,7.106,7.158,7.158,7.1938,7.2508,7.2508,7.2508,7.2508,7.2508,7.2508,7.2508,7.2508,7.2508,7.2508,7.2508,7.2508,7.2508,7.2508,7.2508,7.2508,7.2508,7.2508,7.2508,7.2508,7.2508,7.2369,7.1689,7.136,7.0838,6.9901,6.9557,6.9209,6.9006,6.8889,6.8889,6.8889,6.8889,6.8889,6.8889,6.8889,6.9135,6.9813,6.9289,6.9166,6.9843,7.0367,7.0767,7.089,7.1937,7.2368,7.1998,7.1967,7.1967,7.1967,7.2645,7.2983,7.2983,7.2983,7.2983,7.2983,7.0988,7.0075,5.9219,0.0,0.0,6.4736,0.0,6.9538,6.8444,6.931,7.0338,7.03,7.1526,7.2508,7.2508,7.1925,7.1407,7.1407,7.1428,7.1276,7.0572,7.1694,7.2222,7.1019,7.1493,7.213,7.2522,7.2309,7.3011,7.5253,7.4438,7.3831,7.3797,7.2438,7.1413,7.0953,7.061,7.0921,7.1958,7.1745,7.1798,7.2046,7.147,7.136,7.1612,7.125,7.0469,6.9356,6.9356,6.9356,6.9325,6.9672,7.0243,7.0806,7.1029,7.147,7.2154,7.2369,7.2508,7.2508,7.2508,7.2508,7.2508,7.2508,7.2508,7.2508,7.2508,7.2508,7.2508,7.2508,7.2508,7.2508,7.2508,7.2508,7.2508,7.2508,7.2508,7.2369,7.2154,7.183,7.1282,7.0356,7.0016,6.9588,6.9006,6.8889,6.8889,6.8889,6.8889,6.8889,6.8889,6.8889,6.9012,6.9382,6.9105,6.9012,6.9382,6.972,7.0213,7.0859,7.1598,7.1998,7.1967,7.2275,7.2306,7.1998,7.2645,7.2983,7.2983,7.2983,7.2983,7.2983,7.0859,6.981,5.8736,0.0,6.3383,6.5585,6.9145,0.0,6.8311,6.9583,7.1184,7.0558,7.135,7.2217,7.2443,7.1699,7.1148,7.1375,7.0727,7.0209,7.0209,7.0824,7.0986,7.0306,7.128,7.1909,7.1584,7.148,7.2316,7.4703,7.3529,7.2976,7.3593,7.2195,7.1137,7.0403,7.0392,7.0727,7.1407,7.1445,7.147,7.158,7.1029,7.0613,7.0501,7.0501,7.0016,6.9006,6.9006,6.8889,6.8889,6.8889,6.924,6.9901,7.0469,7.1029,7.1689,7.2262,7.2508,7.2508,7.2508,7.2508,7.2508,7.2508,7.2508,7.2508,7.2508,7.2508,7.2508,7.2508,7.2508,7.2508,7.2508,7.2508,7.2508,7.2508,7.2508,7.2508,7.2508,7.2401,7.2046,7.0949,7.0469,7.0016,6.9123,6.8889,6.8889,6.8889,6.8889,6.8889,6.8889,6.8889,6.892,6.9043,6.9043,6.9043,6.9043,6.9289,6.9843,7.0828,7.1136,7.1536,7.2121,7.2675,7.2706,7.2152,7.2706,7.2859,7.2703,7.2703,7.2578,7.2452,7.0468,6.9545,0.0,0.0,6.4807,0.0,6.8357,6.9764,0.0,7.023,7.0534,7.047,7.0591,7.1051,7.2282,7.0889,6.9982,7.1213,7.0306,6.9432,6.9432,7.0079,7.0274,6.9529,6.9599,7.0424,7.2277,7.1276,7.1778,7.4703,7.3529,7.2692,7.2787,7.1479,7.0542,7.0403,7.0392,7.0727,7.1407,7.1009,7.1029,7.158,7.1029,7.0388,6.9901,6.9901,6.9787,6.9672,6.9123,6.8889,6.8889,6.8889,6.924,6.9901,7.0469,7.1029,7.1689,7.2262,7.2508,7.2508,7.2508,7.2508,7.2508,7.2508,7.2508,7.2508,7.2508,7.2508,7.2508,7.2508,7.2508,7.2508,7.2508,7.2508,7.2508,7.2508,7.2508,7.2508,7.2508,7.2046,7.147,7.0838,6.9818,6.9123,6.8889,6.8889,6.8889,6.8889,6.8889,6.8889,6.8889,6.8889,6.9105,6.969,6.9751,6.9751,6.9751,7.0859,7.1383,7.0921,7.2029,7.2737,7.2829,7.2922,7.2952,7.286,7.2922,7.2578,7.1631,7.1631,7.1118,7.0206,6.901,6.847,6.0038,6.2247,6.4462,0.0,6.812,6.9764,6.9296,7.0152,7.0803,6.9944,6.9777,7.0102,7.1155,7.0565,6.9982,7.0177,6.9691,6.914,6.8719,6.9302,6.9496,6.8752,6.9773,7.0725,7.1276,7.1476,7.2178,7.3509,7.2971,7.2586,7.265,7.1639,7.0864,7.0481,7.0365,7.0565,7.0857,7.0326,7.0091,7.013,7.013,6.9901,6.9356,6.9703,6.9588,6.924,6.9006,6.8889,6.8889,6.8889,6.9123,6.9356,6.9901,7.0582,7.114,7.1798,7.2154,7.2508,7.2508,7.2508,7.2508,7.2508,7.2508,7.2508,7.2508,7.2508,7.2508,7.2508,7.2508,7.2508,7.2508,7.2508,7.2508,7.2508,7.2508,7.2508,7.2508,7.2262,7.183,7.0949,6.9703,6.8889,6.8889,6.8889,6.8889,6.8889,6.8889,6.8889,6.8889,6.8889,6.9135,6.9813,6.9566,6.9628,7.0398,7.0675,7.1013,7.1475,7.2091,7.2583,7.2952,7.2983,7.2983,7.2983,7.2983,7.2452,7.1375,7.1375,7.0859,6.981,6.8741,6.8198,0.0,0.0,6.3634,6.4979,6.7566,6.955,6.8702,6.9904,7.0963,6.9616,6.9321,6.9386,6.9728,6.9853,6.9723,6.9335,6.9108,6.8816,6.8266,6.8655,6.8816,6.8266,6.9612,7.0529,7.0474,7.1513,7.238,7.2545,7.2804,7.2894,7.2994,7.2211,7.1598,7.1026,7.0799,7.0615,7.042,6.9893,6.944,6.9123,6.9441,6.9356,6.8889,6.917,6.917,6.8889,6.8889,6.8889,6.8889,6.8889,6.8889,6.9006,6.9557,7.0047,7.0582,7.136,7.1906,7.2262,7.2508,7.2508,7.2508,7.2508,7.2508,7.2508,7.2508,7.2508,7.2508,7.2508,7.2508,7.2508,7.2508,7.2508,7.2508,7.2508,7.2508,7.2508,7.2508,7.2369,7.1938,7.0917,6.9787,6.9123,6.8889,6.8889,6.8889,6.8889,6.8889,6.8889,6.8889,6.9043,6.9413,7.009,6.969,6.9874,7.1075,7.0705,7.0859,7.1906,7.2152,7.2336,7.2547,7.2859,7.2859,7.2578,7.2578,7.2043,7.0988,7.0699,7.0045,6.901,6.8198,6.7788,0.0,6.0522,0.0,6.3531,6.5979,6.8441,6.9101,6.9848,7.0242,6.9504,6.9252,6.9058,6.8399,6.8298,6.8525,6.9173,6.8687,6.8234,6.8201,6.8234,6.8234,6.8201,6.8266,6.8849,7.0274,7.1189,7.1853,7.2512,7.3251,7.3719,7.3776,7.3062,7.2654,7.262,7.1908,7.1194,7.0404,6.9926,6.9664,6.9818,6.924,6.8889,6.8858,6.8243,6.8304,6.8889,6.8889,6.8889,6.8889,6.8889,6.8889,6.9006,6.9557,6.9787,7.0016,7.114,7.158,7.1689,7.2262,7.2508,7.2508,7.2508,7.2508,7.2508,7.2508,7.2508,7.2508,7.2508,7.2508,7.2508,7.2508,7.2508,7.2508,7.2508,7.2508,7.2508,7.2508,7.2046,7.147,7.0806,7.013,6.9557,6.9006,6.8889,6.8889,6.8889,6.8889,6.8889,6.8889,6.9443,7.009,7.0767,7.0828,7.1105,7.1844,7.1875,7.1906,7.1967,7.2583,7.2547,7.1503,7.2452,7.2578,7.1503,7.1503,7.0988,6.9943,6.8876,6.7788,6.6735,6.6735,6.6735,0.0,0.0,0.0,6.3289,6.5152,6.6892,6.7638,6.8808,6.9475,6.8693,6.8951,6.923,6.896,6.8468,6.8298,6.8557,6.8363,6.8201,6.8201,6.8201,6.8201,6.8201,6.8567,6.9157,6.9696,7.126,7.2047,7.1194,7.3245,7.3695,7.1816,7.2733,7.27,7.1378,7.1029,7.0322,6.9135,6.9404,6.9586,6.9696,6.8582,6.8386,6.8789,6.7681,6.7412,6.7627,6.7627,6.8089,6.8858,6.8427,6.852,6.8889,6.9123,6.9441,6.9787,7.0243,7.0917,7.158,7.183,7.2154,7.2508,7.2508,7.2508,7.2508,7.2508,7.2508,7.2508,7.2508,7.2508,7.2508,7.2508,7.2508,7.2508,7.2508,7.2508,7.2508,7.2508,7.2046,7.136,7.0838,7.0243,6.9588,6.9006,6.8889,6.8889,6.8889,6.8889,6.8889,6.8889,6.9105,6.9505,7.0182,7.0244,7.0705,7.1875,7.1967,7.2152,7.2583,7.2174,7.1789,7.1375,7.1118,7.0729,7.0337,6.9648,6.9545,6.981,6.8741,6.7679,6.6595,6.6595,6.6595,5.908,6.0075,6.1418,6.3112,6.4565,6.5723,6.648,6.7638,6.8439,6.827,6.8819,6.9276,6.9343,6.8863,6.8468,6.8201,6.8201,6.8201,6.8201,6.8201,6.8201,6.8201,6.8863,6.9418,6.9677,7.1745,7.2647,7.1575,7.3849,7.4366,7.2146,7.3299,7.3245,7.1285,7.0763,7.0004,6.9033,6.9102,6.9287,6.9523,6.8501,6.82,6.8414,6.7311,6.69,6.6888,6.6427,6.7135,6.852,6.8089,6.8304,6.8889,6.8889,6.9123,6.9557,6.9703,7.0469,7.136,7.158,7.2046,7.2508,7.2508,7.2508,7.2508,7.2508,7.2508,7.2508,7.2508,7.2508,7.2508,7.2508,7.2508,7.2508,7.2508,7.2508,7.2508,7.2508,7.2154,7.1689,7.114,7.0469,6.9901,6.9356,6.9006,6.8889,6.8889,6.8889,6.8889,6.8889,6.9074,6.9413,6.9843,7.009,7.0705,7.1875,7.1967,7.2121,7.2391,7.1759,7.1118,7.0308,6.9943,6.9678,6.9278,6.8606,6.8606,6.9278,6.8198,6.7264,6.6595,6.6595,6.6595,0.0,0.0,0.0,6.3147,6.4117,6.4897,6.5663,6.6439,6.7136,6.7934,6.8702,6.9262,6.924,6.925,6.909,6.8336,6.8169,6.8201,6.8201,6.8201,6.8201,6.8169,6.883,6.9483,7.0174,7.2344,7.3651,7.3617,7.5125,7.5618,7.4825,7.4787,7.4119,7.2692,7.1252,7.0443,7.0305,6.9103,6.8764,6.95,6.8901,6.8249,6.7697,6.701,6.6741,6.6765,6.5472,6.6027,6.7873,6.7873,6.8243,6.8828,6.8858,6.8858,6.8976,6.9557,7.0161,7.0726,7.136,7.1938,7.2508,7.2508,7.2508,7.2508,7.2508,7.2508,7.2508,7.2508,7.2508,7.2508,7.2508,7.2508,7.2508,7.2508,7.2508,7.2508,7.2508,7.2508,7.2262,7.1689,7.114,7.0501,6.9933,6.9356,6.8889,6.8889,6.8889,6.8889,6.8889,6.9443,6.9874,6.9905,7.049,7.1198,7.1906,7.1998,7.1749,7.1345,7.1375,7.0308,6.8334,6.9144,6.9278,6.8198,6.8198,6.8198,6.8198,6.7125,6.6595,6.6595,6.6595,6.6595,5.9976,0.0,0.0,0.0,0.0,0.0,6.4855,6.5172,6.5593,6.6371,6.7141,6.7828,6.8345,6.8506,6.8201,6.7484,6.7818,6.8201,6.8201,6.8201,6.8007,6.7521,6.8076,6.8143,6.733,6.9775,7.098,6.9916,7.2699,7.3629,7.1796,7.1748,7.152,7.0993,7.067,6.9988,6.8761,6.896,6.9119,6.9356,6.822,6.7938,6.8203,6.6726,6.5966,6.6043,6.5263,6.5503,6.6457,6.6457,6.6858,6.7504,6.7997,6.8181,6.8243,6.8938,6.9588,7.0161,7.0694,7.136,7.1938,7.2369,7.2508,7.2508,7.2508,7.2508,7.2508,7.2508,7.2508,7.2508,7.2508,7.2508,7.2508,7.2508,7.2508,7.2508,7.2508,7.2508,7.2262,7.1689,7.147,7.1029,7.0016,6.9672,6.9441,6.9006,6.8889,6.8889,6.8889,6.9043,6.9351,6.9843,7.049,7.0924,7.0854,7.1213,7.1194,7.0337,6.9516,6.8876,6.8198,6.7816,6.7403,6.6986,6.6986,6.6986,6.6986,6.6735,6.6595,6.6595,6.6595,6.6595,6.0563,6.1387,6.2483,6.3698,0.0,0.0,6.4152,6.3979,6.3979,6.4772,6.5534,6.6268,6.7112,6.7471,6.7523,6.714,6.7438,6.762,6.7361,6.7327,6.7165,6.6776,6.7362,6.7459,6.6611,6.8719,6.9755,6.8892,7.1304,7.2515,7.1419,7.1094,7.0909,7.0855,7.0641,6.9888,6.8663,6.8792,6.8829,6.8862,6.8064,6.7818,6.7996,6.6955,6.613,6.57,6.5406,6.5324,6.5472,6.5472,6.6057,6.695,6.735,6.7658,6.7966,6.8335,6.8992,6.9901,7.0501,7.114,7.1689,7.2262,7.2508,7.2508,7.2508,7.2508,7.2508,7.2508,7.2508,7.2508,7.2508,7.2508,7.2508,7.2508,7.2508,7.2508,7.2508,7.2508,7.2401,7.2046,7.1798,7.125,7.0356,6.9933,6.9588,6.9006,6.8889,6.8889,6.8889,6.9135,6.9325,6.9214,7.0129,7.0459,6.9842,7.0341,7.0219,6.8898,6.8461,6.7947,6.717,6.6873,6.6595,6.6595,6.6595,6.6595,6.6595,6.6595,6.6595,6.6595,6.6595,6.6595,6.1321,6.1834,6.269,6.4255,6.4152,0.0,6.36,6.3151,6.291,6.3462,6.4255,6.5069,6.5778,6.6534,6.7116,6.7007,6.6933,6.6699,6.6352,6.629,6.6161,6.6096,6.6671,6.7015,6.6851,6.8227,6.9119,6.9142,7.0608,7.1714,7.229,7.1796,7.1424,7.1231,7.0625,6.9883,6.9069,6.8446,6.8068,6.7973,6.8013,6.7802,6.7395,6.7356,6.6764,6.5808,6.57,6.5406,6.4888,6.4888,6.5596,6.6704,6.6765,6.7227,6.7812,6.7904,6.8683,6.9818,7.0356,7.1029,7.158,7.2154,7.2508,7.2508,7.2508,7.2508,7.2508,7.2508,7.2508,7.2508,7.2508,7.2508,7.2508,7.2508,7.2508,7.2508,7.2508,7.2508,7.2508,7.2508,7.2046,7.147,7.0917,7.0243,6.9703,6.9123,6.9006,6.8889,6.8889,6.9474,6.9546,6.8635,6.9627,7.0029,6.8956,6.9295,6.8823,6.7257,6.7688,6.7336,6.5808,6.6314,6.6595,6.6595,6.6595,6.6595,6.6595,6.6595,6.6595,6.6595,6.6595,6.6595,6.2082,6.2806,6.3462,6.3738,6.4152,0.0,6.3738,6.3945,6.4152,6.3669,6.4703,6.5738,6.586,6.703,6.7547,6.6452,6.5766,6.5975,6.7554,6.7268,6.6696,6.6199,6.6187,6.5835,6.4699,6.5929,6.6799,6.6733,6.8669,6.9846,7.0013,7.0498,7.0423,6.9706,6.9628,6.901,6.7622,6.748,6.7123,6.6517,6.7134,6.7392,6.7193,6.7368,6.7005,6.6374,6.5915,6.5406,6.4888,6.4888,6.5042,6.5349,6.5903,6.6519,6.7165,6.772,6.8451,6.9123,6.9787,7.0356,7.0917,7.158,7.2154,7.2508,7.2508,7.2508,7.2508,7.2508,7.2508,7.2508,7.2508,7.2508,7.2508,7.2508,7.2508,7.2508,7.2508,7.2508,7.2508,7.2508,7.2369,7.2154,7.147,7.0917,7.0388,6.9703,6.924,6.8889,6.8889,6.9474,6.997,7.0402,7.0429,7.0209,6.9706,6.8456,6.7487,6.6788,6.6339,6.6282,6.6398,6.6539,6.6595,6.6595,6.6595,6.6595,6.6595,6.6595,6.6595,6.6595,6.6595,6.6595,6.2393,6.3013,6.3669,6.4048,6.4152,0.0,0.0,6.3876,6.3945,6.3186,6.3945,6.4738,6.4738,6.5359,6.5903,6.597,6.538,6.5651,6.7894,6.5969,6.4355,6.3995,6.4583,6.4747,6.4028,6.522,6.6212,6.6543,6.7297,6.8045,6.8808,6.8869,6.8825,6.8825,6.8819,6.8272,6.7175,6.7148,6.6799,6.6119,6.6842,6.7197,6.7197,6.7608,6.7491,6.7005,6.6374,6.5839,6.5297,6.4998,6.4888,6.4918,6.5288,6.6027,6.695,6.7289,6.8058,6.9006,6.9557,7.0047,7.0356,7.136,7.1798,7.2154,7.2401,7.2508,7.2508,7.2508,7.2508,7.2508,7.2508,7.2508,7.2508,7.2508,7.2508,7.2508,7.2508,7.2508,7.2508,7.2508,7.2508,7.2262,7.1689,7.114,7.0501,6.9901,6.9356,6.8889,6.8889,6.9782,7.0005,6.8997,6.9273,6.9086,6.7844,6.6757,6.6157,6.6089,6.5836,6.5808,6.6117,6.6426,6.6595,6.6595,6.6595,6.6595,6.6595,6.6595,6.6595,6.6595,6.6595,6.6595,6.2634,6.3151,6.3738,6.4324,6.4152,6.3772,0.0,0.0,0.0,6.2841,6.3289,6.3807,6.3807,6.3945,6.4393,6.5462,6.5145,6.5378,6.7237,6.4419,6.2403,6.2795,6.3261,6.3636,6.3932,6.5072,6.6009,6.6401,6.6467,6.6832,6.7625,6.7654,6.7696,6.8092,6.8147,6.7742,6.6868,6.6735,6.6311,6.5739,6.6419,6.6776,6.6809,6.7618,6.7705,6.7196,6.6837,6.6374,6.57,6.5187,6.4998,6.4888,6.4888,6.5719,6.6919,6.6919,6.775,6.9006,6.9472,6.9672,6.9901,7.0917,7.136,7.1689,7.2262,7.2508,7.2508,7.2508,7.2508,7.2508,7.2508,7.2508,7.2508,7.2508,7.2508,7.2508,7.2508,7.2508,7.2508,7.2508,7.2508,7.2401,7.183,7.125,7.0726,7.0016,6.9441,6.9006,6.8889,6.9967,6.9854,6.7677,6.8427,6.8444,6.6736,6.6008,6.5737,6.6223,6.6,6.5944,6.5668,6.6145,6.6483,6.6595,6.6595,6.6595,6.6595,6.6595,6.6595,6.6595,6.6595,6.6595,6.3082,6.3531,6.36,6.3703,6.4152,6.4393,6.3738,0.0,6.4358,6.3634,0.0,6.4565,6.4565,0.0,0.0,6.491,6.483,6.496,6.5233,6.4368,6.4419,6.6268,6.3899,6.2528,6.3826,6.4674,6.4867,6.4354,6.6517,6.7194,6.5354,6.7712,6.8539,6.7268,6.7887,6.7603,6.6179,6.5519,6.4859,6.4215,6.4898,6.5287,6.5319,6.6679,6.6996,6.6492,6.7029,6.6659,6.57,6.5592,6.5297,6.4888,6.4888,6.5719,6.6919,6.6919,6.775,6.8889,6.9006,6.9356,6.9787,6.9901,7.0694,7.1689,7.2262,7.2508,7.2508,7.2508,7.2508,7.2508,7.2508,7.2508,7.2508,7.2508,7.2508,7.2508,7.2508,7.2508,7.2508,7.2508,7.2508,7.2508,7.2401,7.1938,7.125,7.0726,7.0016,6.9441,6.9006,6.9536,6.9847,6.9515,6.9971,7.0127,6.9871,6.9039,6.8223,6.7918,6.7429,6.6736,6.5668,6.5752,6.6033,6.6595,6.6595,6.6595,6.6595,6.6595,6.6595,6.6595,6.6595,6.6595,6.3841,6.391,6.3703,6.4117,6.4152,6.4083,6.422,6.4462,6.46,6.4289,0.0,0.0,0.0,0.0,0.0,0.0,6.4717,6.4941,6.5387,6.4087,6.3579,6.4627,6.4081,6.4002,6.4976,6.5759,6.5705,6.4606,6.6,6.639,6.4993,6.6081,6.6877,6.7054,6.7045,6.6877,6.6705,6.5581,6.4819,6.461,6.4861,6.5254,6.5675,6.629,6.6678,6.6767,6.6754,6.6472,6.609,6.5866,6.5592,6.5297,6.4998,6.5472,6.6334,6.6334,6.7165,6.8335,6.8335,6.8698,6.9356,6.9703,7.0582,7.1689,7.1938,7.2262,7.2508,7.2508,7.2508,7.2508,7.2508,7.2508,7.2508,7.2508,7.2508,7.2508,7.2508,7.2508,7.2508,7.2508,7.2508,7.2508,7.2508,7.2046,7.136,7.0838,7.013,6.9557,6.9006,6.9474,6.9513,6.8605,6.9272,6.9556,6.9049,6.8536,6.856,6.9086,6.8026,6.7043,6.6202,6.5864,6.5949,6.6595,6.6595,6.6595,6.6595,6.6595,6.6595,6.6595,6.6595,6.6595,6.4048,6.4014,6.3738,6.4255,6.3979,6.3738,6.4289,6.4565,6.4703,6.4703,6.4876,0.0,0.0,0.0,6.4945,6.4738,0.0,6.529,6.6083,6.4633,6.3555,6.38,6.4404,6.5094,6.5607,6.6323,6.6141,6.471,6.5607,6.5753,6.442,6.5042,6.5899,6.6806,6.6677,6.6694,6.6862,6.5975,6.5359,6.5,6.5008,6.5378,6.6094,6.5901,6.6193,6.6906,6.667,6.6433,6.6294,6.6059,6.5808,6.57,6.5297,6.5306,6.5688,6.6057,6.7042,6.8181,6.8181,6.8489,6.9006,6.9557,7.0356,7.114,7.147,7.1938,7.2262,7.2508,7.2508,7.2508,7.2508,7.2508,7.2508,7.2508,7.2508,7.2508,7.2508,7.2508,7.2508,7.2508,7.2508,7.2508,7.2508,7.2154,7.158,7.106,7.0469,6.988,6.9488,6.9531,6.9237,6.8213,6.9092,6.951,6.8758,6.8832,6.898,6.9089,6.7642,6.6663,6.6314,6.5921,6.5949,6.6595,6.6595,6.6595,6.6595,6.6595,6.6595,6.6595,6.6595,6.6595,6.3427,6.36,6.36,6.3634,6.36,6.36,6.3634,6.4186,6.4703,6.4703,6.5324,6.5842,6.5842,6.5842,6.56,6.4841,6.5359,0.0,0.0,6.629,6.5774,6.5773,6.5262,6.4924,6.5009,6.5595,6.5425,6.3883,6.573,6.5705,6.2863,6.5387,6.6666,6.6058,6.7307,6.7441,6.6182,6.6779,6.632,6.5,6.5033,6.5429,6.6028,6.5313,6.5448,6.6193,6.6873,6.6867,6.6294,6.6511,6.6268,6.57,6.57,6.5406,6.5103,6.6396,6.772,6.8858,6.8858,6.8858,6.9006,6.9557,6.9787,7.0016,7.125,7.158,7.1689,7.2369,7.2508,7.2508,7.2508,7.2508,7.2508,7.2508,7.2508,7.2508,7.2508,7.2508,7.2508,7.2508,7.2508,7.2508,7.2508,7.2508,7.2262,7.1689,7.1029,7.0721,7.0692,6.9642,6.9166,6.9782,7.049,7.089,7.0769,7.1097,7.0141,6.7603,6.6356,6.5696,6.5696,6.5696,6.5949,6.6595,6.6595,6.6595,6.6595,6.6595,6.6595,6.6595,6.6595,6.6595,6.5048,6.4738,6.422,6.3703,6.36,6.36,6.36,6.4152,6.4703,6.4703,6.5324,6.5876,6.5876,6.629,6.6359,6.56,6.6117,6.6359,0.0,6.4841,6.4559,6.5053,6.4574,6.4335,6.4732,6.4967,6.4161,6.1807,6.3144,6.3391,6.2076,6.376,6.5352,6.6632,6.6667,6.6963,6.7407,6.6287,6.5975,6.6406,6.5448,6.5396,6.6087,6.5318,6.5143,6.5416,6.6161,6.6354,6.6155,6.6425,6.648,6.6268,6.5808,6.5685,6.5626,6.6474,6.7105,6.7689,6.8581,6.8612,6.8304,6.8969,6.9441,6.9901,7.0243,7.0917,7.1689,7.183,7.2154,7.2508,7.2508,7.2508,7.2508,7.2508,7.2508,7.2508,7.2508,7.2508,7.2508,7.2508,7.2508,7.2508,7.2508,7.2154,7.183,7.158,7.1029,7.0564,7.0245,6.9364,6.9135,6.9813,7.049,7.1105,7.1567,7.2182,7.1825,7.0141,6.9335,6.8752,6.8392,6.8015,6.7834,6.765,6.7679,6.7264,6.6595,6.6595,6.6595,6.6595,6.6595,6.6595,6.5876,6.5497,6.4945,6.4186,6.3979,6.3979,6.3979,6.4565,6.5117,6.5117,6.5945,6.6497,6.5979,6.6704,6.7049,6.6048,6.629,6.6048,0.0,6.4117,6.4152,6.4634,6.4641,6.4633,6.4738,6.5186,6.4229,6.1113,6.209,6.2513,6.1656,6.2884,6.4393,6.6117,6.6313,6.6667,6.7387,6.6492,6.6491,6.7112,6.6148,6.5991,6.6419,6.542,6.5101,6.5448,6.5902,6.6258,6.6484,6.6735,6.6796,6.6617,6.6343,6.6089,6.5868,6.6526,6.6722,6.7104,6.8427,6.8458,6.8027,6.8674,6.9123,6.9557,6.9672,7.0356,7.1092,7.1569,7.1913,7.2219,7.2477,7.2563,7.2508,7.2508,7.2508,7.2508,7.2508,7.2508,7.2508,7.2508,7.2508,7.2508,7.2508,7.2154,7.1938,7.1938,7.125,7.0708,7.0474,6.9712,6.9463,7.0151,7.0644,7.1169,7.1719,7.2177,7.1952,7.0659,7.032,7.0062,6.9457,6.8884,6.8788,6.9206,6.816,6.7605,6.7578,6.6904,6.6595,6.6595,6.6595,6.6595]},{"header":{"parameterUnit":"m.s-1","parameterCategory":1,"la1":30.6,"la2":29.2853,"lo1":-89.7004,"lo2":-87.6739,"dy":0.0162,"dx":0.0183,"nx":112,"ny":82,"refTime":"2024-03-31T12:00:00:Z","depth":0,"parameterNumber":3,"parameterNumberName":"V-component_of_WINDS"},"data":[0.0,0.0,0.0,0.0,0.0,0.0,0.0,0.0,0.0,0.0,0.0,0.0,0.0,0.0,0.0,0.0,0.0,0.0,0.0,0.0,0.0,0.0,0.0,0.0,0.0,0.0,0.0,0.0,0.0,0.0,0.0,0.0,0.0,0.0,0.0,0.0,0.0,0.0,0.0,0.0,0.0,0.0,0.0,0.0,0.0,0.0,0.0,0.0,0.0,0.0,0.0,0.0,0.0,0.0,0.0,0.0,0.0,0.0,0.0,0.0,0.0,0.0,0.0,0.0,0.0,0.0,0.0,0.0,0.0,0.0,0.0,0.0,0.0,0.0,0.0,0.0,0.0,0.0,0.0,0.0,0.0,0.0,0.0,0.0,0.0,0.0,0.0,0.0,0.0,0.0,-4.1653,-4.4635,-4.9277,-5.197,-5.1537,-5.1586,-4.9565,-4.4659,0.0,0.0,0.0,0.0,0.0,0.0,0.0,0.0,0.0,0.0,0.0,0.0,0.0,0.0,0.0,0.0,0.0,0.0,0.0,0.0,0.0,0.0,0.0,0.0,0.0,0.0,0.0,0.0,0.0,0.0,0.0,0.0,0.0,0.0,0.0,0.0,0.0,0.0,0.0,0.0,0.0,0.0,0.0,0.0,0.0,0.0,0.0,0.0,0.0,0.0,0.0,0.0,0.0,0.0,0.0,0.0,0.0,0.0,0.0,0.0,0.0,0.0,0.0,0.0,0.0,0.0,0.0,0.0,0.0,0.0,0.0,0.0,0.0,0.0,0.0,0.0,0.0,0.0,0.0,0.0,0.0,0.0,0.0,0.0,0.0,0.0,0.0,0.0,0.0,0.0,0.0,0.0,0.0,0.0,0.0,0.0,0.0,0.0,0.0,0.0,0.0,0.0,0.0,0.0,-4.276,-4.7209,-5.0046,-5.1586,-5.1489,-4.9902,-4.7593,-4.4539,0.0,0.0,0.0,0.0,0.0,0.0,0.0,0.0,0.0,0.0,0.0,0.0,0.0,0.0,0.0,0.0,0.0,0.0,0.0,0.0,0.0,0.0,0.0,0.0,0.0,0.0,0.0,0.0,0.0,0.0,0.0,0.0,0.0,0.0,0.0,0.0,0.0,0.0,0.0,0.0,0.0,0.0,0.0,0.0,0.0,0.0,0.0,0.0,0.0,0.0,0.0,0.0,0.0,0.0,0.0,0.0,0.0,0.0,0.0,0.0,0.0,0.0,0.0,0.0,0.0,0.0,0.0,0.0,0.0,0.0,0.0,0.0,0.0,0.0,0.0,0.0,0.0,0.0,0.0,0.0,0.0,0.0,0.0,0.0,0.0,0.0,0.0,0.0,0.0,0.0,0.0,0.0,0.0,0.0,0.0,0.0,0.0,0.0,0.0,0.0,0.0,0.0,0.0,-4.2086,-4.4395,-4.8291,-5.0383,-5.1489,-5.1489,-5.0046,-4.7906,-4.4972,-4.3962,0.0,0.0,0.0,0.0,0.0,0.0,0.0,0.0,0.0,0.0,0.0,0.0,0.0,0.0,0.0,0.0,0.0,0.0,0.0,0.0,0.0,0.0,0.0,0.0,0.0,0.0,0.0,0.0,0.0,0.0,0.0,0.0,0.0,0.0,0.0,0.0,0.0,0.0,0.0,0.0,0.0,0.0,0.0,0.0,0.0,0.0,0.0,0.0,0.0,0.0,0.0,0.0,0.0,0.0,0.0,0.0,0.0,0.0,0.0,0.0,0.0,0.0,0.0,0.0,0.0,0.0,0.0,0.0,0.0,0.0,0.0,0.0,0.0,0.0,0.0,0.0,0.0,0.0,0.0,0.0,0.0,0.0,0.0,0.0,0.0,0.0,0.0,0.0,0.0,0.0,0.0,0.0,0.0,0.0,0.0,0.0,0.0,0.0,0.0,0.0,0.0,0.0,-4.3794,-4.5645,-4.8579,-5.0119,-5.0912,-5.0912,-4.9806,-4.793,-4.5116,-4.3337,0.0,0.0,0.0,0.0,0.0,0.0,0.0,0.0,0.0,0.0,0.0,0.0,0.0,0.0,0.0,0.0,0.0,0.0,0.0,0.0,0.0,0.0,0.0,0.0,0.0,0.0,0.0,0.0,0.0,0.0,0.0,0.0,0.0,0.0,0.0,0.0,0.0,0.0,0.0,0.0,0.0,0.0,0.0,0.0,0.0,0.0,0.0,0.0,0.0,0.0,0.0,0.0,0.0,0.0,0.0,0.0,0.0,0.0,0.0,0.0,0.0,0.0,0.0,0.0,0.0,0.0,0.0,0.0,0.0,0.0,0.0,0.0,0.0,0.0,0.0,0.0,0.0,0.0,0.0,0.0,0.0,0.0,0.0,0.0,0.0,0.0,0.0,0.0,0.0,0.0,0.0,0.0,0.0,0.0,0.0,0.0,0.0,0.0,0.0,0.0,0.0,0.0,-4.4106,-4.591,-4.8098,-4.8892,-4.9253,-4.9253,-4.7834,-4.6199,-4.4515,-4.2447,0.0,0.0,0.0,0.0,0.0,0.0,0.0,0.0,0.0,0.0,0.0,0.0,0.0,0.0,0.0,0.0,0.0,0.0,0.0,0.0,0.0,0.0,0.0,0.0,0.0,0.0,0.0,0.0,0.0,0.0,0.0,0.0,0.0,0.0,0.0,0.0,0.0,0.0,0.0,0.0,0.0,0.0,0.0,0.0,0.0,0.0,0.0,0.0,0.0,0.0,0.0,0.0,0.0,0.0,0.0,0.0,0.0,0.0,0.0,0.0,0.0,0.0,0.0,0.0,0.0,0.0,0.0,0.0,0.0,0.0,0.0,0.0,0.0,0.0,0.0,0.0,0.0,0.0,0.0,0.0,0.0,0.0,0.0,0.0,0.0,0.0,0.0,0.0,0.0,0.0,0.0,0.0,0.0,0.0,0.0,0.0,0.0,0.0,0.0,0.0,0.0,0.0,-4.4154,-4.6078,-4.8507,-4.8964,-4.9205,-4.9541,-4.8411,-4.6728,-4.4491,0.0,0.0,0.0,0.0,0.0,0.0,0.0,0.0,0.0,0.0,0.0,0.0,0.0,0.0,0.0,0.0,0.0,0.0,0.0,0.0,0.0,0.0,0.0,0.0,0.0,0.0,0.0,0.0,0.0,0.0,0.0,0.0,0.0,0.0,0.0,0.0,0.0,0.0,0.0,0.0,0.0,0.0,0.0,0.0,0.0,0.0,0.0,0.0,0.0,0.0,0.0,0.0,0.0,0.0,0.0,0.0,0.0,0.0,0.0,0.0,0.0,0.0,0.0,0.0,0.0,0.0,0.0,0.0,0.0,0.0,0.0,0.0,0.0,0.0,0.0,0.0,0.0,0.0,0.0,0.0,0.0,0.0,0.0,0.0,0.0,0.0,0.0,0.0,0.0,0.0,0.0,0.0,0.0,0.0,0.0,0.0,0.0,0.0,0.0,0.0,0.0,0.0,-4.2495,-4.401,-4.5838,-4.8315,-4.8579,-4.8724,-4.9084,-4.8002,-4.6367,-4.4227,0.0,0.0,0.0,0.0,0.0,0.0,0.0,0.0,0.0,0.0,0.0,0.0,0.0,0.0,0.0,0.0,0.0,0.0,0.0,0.0,0.0,0.0,0.0,0.0,0.0,0.0,0.0,0.0,0.0,0.0,0.0,0.0,0.0,0.0,0.0,0.0,0.0,0.0,0.0,0.0,0.0,0.0,0.0,0.0,0.0,0.0,0.0,0.0,0.0,0.0,0.0,0.0,0.0,0.0,0.0,0.0,0.0,0.0,0.0,0.0,0.0,0.0,0.0,0.0,0.0,0.0,0.0,0.0,0.0,0.0,0.0,0.0,0.0,0.0,0.0,0.0,0.0,0.0,0.0,0.0,0.0,0.0,0.0,0.0,0.0,0.0,0.0,0.0,0.0,0.0,0.0,0.0,0.0,0.0,0.0,0.0,0.0,0.0,0.0,0.0,0.0,0.0,-4.2495,-4.3697,-4.5164,-4.7281,-4.7497,-4.7497,-4.7497,-4.6054,-4.4683,0.0,0.0,0.0,0.0,0.0,0.0,0.0,0.0,0.0,0.0,0.0,0.0,0.0,0.0,0.0,0.0,0.0,0.0,0.0,0.0,0.0,0.0,0.0,0.0,0.0,0.0,0.0,0.0,0.0,0.0,0.0,0.0,0.0,0.0,0.0,0.0,0.0,0.0,0.0,0.0,0.0,0.0,0.0,0.0,0.0,0.0,0.0,0.0,0.0,0.0,0.0,0.0,0.0,0.0,0.0,0.0,0.0,0.0,0.0,0.0,0.0,0.0,0.0,0.0,0.0,0.0,0.0,0.0,0.0,0.0,0.0,0.0,0.0,0.0,0.0,0.0,0.0,0.0,0.0,0.0,0.0,0.0,0.0,0.0,0.0,0.0,0.0,0.0,0.0,0.0,0.0,0.0,0.0,0.0,0.0,0.0,0.0,0.0,0.0,0.0,0.0,0.0,0.0,-4.2543,-4.401,-4.5573,-4.7305,-4.7497,-4.7497,-4.7497,-4.6728,-4.5309,-4.312,0.0,0.0,0.0,0.0,0.0,0.0,0.0,0.0,0.0,0.0,0.0,0.0,0.0,0.0,0.0,0.0,0.0,0.0,0.0,0.0,0.0,0.0,0.0,0.0,0.0,0.0,0.0,0.0,0.0,0.0,0.0,0.0,0.0,0.0,0.0,0.0,0.0,0.0,0.0,0.0,0.0,0.0,0.0,0.0,0.0,0.0,0.0,0.0,0.0,0.0,0.0,0.0,0.0,0.0,0.0,0.0,0.0,0.0,0.0,0.0,0.0,0.0,0.0,0.0,0.0,0.0,0.0,0.0,0.0,0.0,0.0,0.0,0.0,0.0,0.0,0.0,0.0,0.0,0.0,0.0,0.0,0.0,0.0,0.0,0.0,0.0,0.0,0.0,0.0,0.0,0.0,0.0,0.0,0.0,0.0,0.0,0.0,0.0,0.0,0.0,0.0,0.0,-4.2808,-4.4106,-4.5501,-4.7305,-4.7497,-4.7593,-4.781,-4.6944,-4.5549,-4.3529,0.0,0.0,0.0,0.0,0.0,0.0,0.0,0.0,0.0,0.0,0.0,0.0,0.0,0.0,0.0,0.0,0.0,0.0,0.0,0.0,0.0,0.0,0.0,0.0,0.0,0.0,0.0,0.0,0.0,0.0,0.0,0.0,0.0,0.0,0.0,0.0,0.0,0.0,0.0,0.0,0.0,0.0,0.0,0.0,0.0,0.0,0.0,0.0,0.0,0.0,0.0,0.0,0.0,0.0,0.0,0.0,0.0,0.0,0.0,0.0,0.0,0.0,0.0,0.0,0.0,0.0,0.0,0.0,0.0,0.0,0.0,0.0,0.0,0.0,0.0,0.0,0.0,0.0,0.0,0.0,0.0,0.0,0.0,0.0,0.0,0.0,0.0,0.0,0.0,0.0,0.0,0.0,0.0,0.0,0.0,0.0,0.0,0.0,0.0,0.0,0.0,0.0,-4.3241,-4.4106,-4.5309,-4.7425,-4.7642,-4.7834,-4.8315,-4.6944,-4.5573,-4.4419,0.0,0.0,0.0,0.0,0.0,0.0,0.0,0.0,0.0,0.0,0.0,0.0,0.0,0.0,0.0,0.0,0.0,0.0,0.0,0.0,0.0,0.0,0.0,0.0,0.0,0.0,0.0,0.0,0.0,0.0,0.0,0.0,0.0,0.0,0.0,0.0,0.0,0.0,0.0,0.0,0.0,0.0,0.0,0.0,0.0,0.0,0.0,0.0,0.0,0.0,0.0,0.0,0.0,0.0,0.0,0.0,0.0,0.0,0.0,0.0,-2.9397,-2.8975,0.0,0.0,0.0,0.0,0.0,0.0,0.0,0.0,0.0,0.0,0.0,0.0,0.0,0.0,0.0,0.0,0.0,0.0,0.0,0.0,0.0,0.0,0.0,0.0,0.0,0.0,0.0,0.0,0.0,0.0,0.0,0.0,0.0,0.0,0.0,0.0,0.0,0.0,0.0,0.0,-4.3818,-4.4996,-4.6391,-4.8507,-4.8748,-4.8796,-4.8892,-4.7834,-4.6367,-4.4467,-4.3144,0.0,0.0,0.0,0.0,0.0,0.0,0.0,0.0,0.0,0.0,0.0,0.0,0.0,0.0,0.0,0.0,0.0,0.0,0.0,0.0,0.0,0.0,0.0,0.0,0.0,0.0,0.0,0.0,0.0,0.0,0.0,0.0,0.0,0.0,0.0,0.0,0.0,0.0,0.0,0.0,0.0,0.0,0.0,0.0,0.0,0.0,0.0,0.0,0.0,0.0,0.0,0.0,0.0,0.0,0.0,0.0,0.0,0.0,0.0,-3.0461,-2.9855,0.0,0.0,0.0,0.0,0.0,0.0,0.0,0.0,0.0,0.0,0.0,0.0,0.0,0.0,0.0,0.0,0.0,0.0,0.0,0.0,0.0,0.0,0.0,0.0,0.0,0.0,0.0,0.0,0.0,0.0,0.0,0.0,0.0,0.0,0.0,0.0,0.0,0.0,0.0,0.0,-4.4395,-4.5429,-4.6631,-4.8507,-4.894,-4.9181,-4.9421,-4.8267,-4.692,-4.5573,-4.377,0.0,0.0,0.0,0.0,0.0,0.0,0.0,0.0,0.0,0.0,0.0,0.0,0.0,0.0,0.0,0.0,0.0,0.0,0.0,0.0,0.0,0.0,0.0,0.0,0.0,0.0,0.0,0.0,0.0,0.0,0.0,0.0,0.0,0.0,0.0,0.0,0.0,0.0,0.0,0.0,0.0,0.0,0.0,0.0,0.0,0.0,0.0,0.0,0.0,0.0,0.0,0.0,0.0,-3.3615,-3.367,-3.3156,-3.389,-3.4092,-3.378,-3.2349,-3.1488,-3.1066,-3.0681,0.0,0.0,0.0,0.0,0.0,0.0,0.0,0.0,0.0,0.0,0.0,0.0,0.0,0.0,0.0,0.0,0.0,0.0,0.0,0.0,0.0,0.0,-3.9993,-4.0649,-4.1183,-4.1399,-4.0273,0.0,0.0,0.0,0.0,0.0,0.0,0.0,0.0,0.0,0.0,0.0,-4.4948,-4.5886,-4.6944,-4.8531,-4.9109,-4.9541,-4.9974,-4.8724,-4.7617,-4.6896,-4.4635,-4.276,0.0,0.0,0.0,0.0,0.0,0.0,0.0,0.0,0.0,0.0,0.0,0.0,0.0,0.0,0.0,0.0,0.0,0.0,0.0,0.0,0.0,0.0,0.0,0.0,0.0,0.0,0.0,0.0,0.0,0.0,0.0,0.0,-2.8113,-2.7801,0.0,0.0,0.0,0.0,0.0,0.0,0.0,0.0,0.0,0.0,0.0,0.0,0.0,-3.2478,-3.29,-3.4733,-3.5155,-3.4183,-3.5999,-3.6292,-3.5229,-3.5687,-3.6054,-3.6329,-3.5742,0.0,-3.2331,-3.1928,0.0,0.0,0.0,0.0,0.0,0.0,0.0,0.0,0.0,0.0,0.0,0.0,0.0,0.0,0.0,0.0,0.0,0.0,0.0,0.0,0.0,0.0,-3.9924,-4.0781,-4.1727,-4.2058,-4.0581,-4.022,-4.024,-4.02,-3.9753,-3.9439,0.0,0.0,0.0,0.0,0.0,0.0,-4.5549,-4.7088,-4.8603,-5.0215,-5.0455,-5.0527,-5.06,-4.995,-4.894,-4.7497,-4.6199,-4.4611,-4.2639,-4.199,0.0,0.0,0.0,0.0,0.0,0.0,0.0,0.0,0.0,0.0,0.0,0.0,0.0,0.0,0.0,0.0,0.0,0.0,0.0,0.0,0.0,0.0,0.0,0.0,0.0,0.0,0.0,0.0,0.0,-2.9048,-2.9415,-2.8553,-2.936,-2.9672,0.0,0.0,0.0,0.0,0.0,0.0,0.0,0.0,0.0,-3.2735,-3.3963,-3.4825,-3.5247,-3.6567,-3.7081,-3.6806,-3.7906,-3.8053,-3.7338,-3.7961,-3.8218,-3.8181,-3.8236,-3.7393,-3.5852,-3.4092,-3.2881,-3.2074,0.0,0.0,0.0,0.0,-3.1726,-3.2148,-3.279,-3.29,-3.2753,-3.2845,0.0,0.0,0.0,0.0,0.0,0.0,0.0,-3.5712,-3.8337,-3.9736,-4.0541,-4.1219,-4.1815,-4.197,-4.1286,-4.0735,-4.0455,-4.0214,-3.9638,-3.9499,-3.9914,-3.9706,0.0,0.0,0.0,-4.3842,-4.5694,-4.7305,-4.8796,-5.0095,-5.0503,-5.0696,-5.0696,-4.9926,-4.8988,-4.8002,-4.6391,-4.4924,-4.3697,-4.2567,-4.187,0.0,0.0,0.0,0.0,0.0,0.0,0.0,0.0,0.0,0.0,0.0,0.0,0.0,0.0,0.0,0.0,0.0,0.0,0.0,0.0,0.0,0.0,0.0,0.0,0.0,0.0,0.0,0.0,-3.002,-3.0571,-2.9159,-3.0516,-3.0956,0.0,0.0,0.0,0.0,0.0,0.0,-3.2294,-3.3651,-3.4513,-3.4733,-3.6091,-3.7081,-3.7594,-3.8401,-3.9006,-3.9428,-3.9832,-3.985,-3.9593,-4.0198,-4.029,-4.0015,-4.0217,-3.9978,-3.9208,-3.6347,-3.4642,-3.3725,-3.2625,-3.2111,-3.2074,-3.2368,-3.2661,-3.301,-3.3725,-3.3908,-3.3762,-3.3468,-3.3303,-3.3065,-3.2239,0.0,0.0,0.0,0.0,-3.7192,-3.958,-4.0734,-4.1524,-4.2114,-4.2333,-4.2376,-4.2114,-4.1896,-4.1551,-4.0694,-4.0022,-4.0002,-4.083,-4.0479,0.0,-4.1609,-4.312,-4.4659,-4.615,-4.7714,-4.906,-4.9974,-5.0455,-5.0696,-5.0696,-4.995,-4.9205,-4.8531,-4.6896,-4.5525,-4.4587,-4.3289,-4.2375,-4.199,0.0,0.0,0.0,0.0,0.0,0.0,0.0,0.0,0.0,0.0,0.0,0.0,0.0,0.0,0.0,0.0,0.0,0.0,0.0,0.0,0.0,0.0,0.0,0.0,0.0,0.0,0.0,0.0,0.0,-2.9214,-3.1744,0.0,0.0,0.0,0.0,-3.2441,-3.3193,-3.4,-3.4807,-3.5632,-3.6439,-3.7209,-3.8071,-3.8896,-3.9685,-4.0492,-4.1115,-4.1537,-4.1941,-4.2106,-4.2106,-4.2142,-4.2142,-4.2106,-4.1757,-4.1574,-4.1317,-3.8456,-3.6567,-3.5412,-3.4587,-3.4018,-3.3688,-3.3725,-3.3725,-3.3817,-3.422,-3.4128,-3.4,-3.51,-3.521,-3.4752,-3.3945,-3.4496,0.0,0.0,-3.6958,-3.8807,-3.9752,-4.1165,-4.2595,-4.3534,-4.4102,-4.4189,-4.3294,-4.3425,-4.3419,-4.1993,-4.1472,-4.1361,-4.2233,0.0,-4.2631,-4.3264,-4.478,-4.6199,-4.7281,-4.8796,-5.0022,-5.06,-5.0696,-5.0696,-5.0696,-5.0648,-5.0167,-4.9109,-4.8459,-4.7209,-4.5188,-4.4539,-4.3529,-4.2014,-4.1942,0.0,0.0,0.0,0.0,0.0,0.0,0.0,0.0,0.0,0.0,0.0,0.0,0.0,0.0,0.0,0.0,0.0,0.0,0.0,0.0,0.0,0.0,0.0,0.0,0.0,0.0,0.0,0.0,-3.2184,-3.4257,0.0,-3.3083,-3.367,-3.4165,-3.4165,-3.5155,-3.5999,-3.6549,-3.8089,-3.908,-3.9373,-4.0418,-4.1115,-4.1409,-4.1702,-4.1922,-4.2069,-4.2472,-4.2527,-4.2289,-4.2546,-4.2509,-4.2271,-4.2124,-4.2069,-4.1941,-4.04,-3.8896,-3.7429,-3.6091,-3.532,-3.4954,-3.4697,-3.4752,-3.5027,-3.543,-3.5467,-3.5375,-3.5559,-3.5357,-3.4972,-3.4678,-3.487,-3.5473,-3.7269,-3.8527,-3.9733,-4.0917,-4.2578,-4.3763,-4.3205,-4.3853,-4.4495,-4.4167,-4.4211,-4.4266,-4.3705,-4.2672,-4.2214,-4.2855,-4.2546,-4.265,-4.4314,-4.5238,-4.6275,-4.7882,-4.9084,-5.007,-5.0648,-5.0696,-5.0696,-5.0696,-5.007,-4.9493,-4.9109,-4.7617,-4.6439,-4.5669,-4.4467,-4.3553,-4.2976,-4.2303,-4.187,0.0,0.0,0.0,0.0,0.0,0.0,0.0,0.0,0.0,0.0,0.0,0.0,0.0,0.0,0.0,0.0,0.0,0.0,0.0,0.0,0.0,0.0,0.0,0.0,0.0,-3.2881,-3.4275,-3.3853,-3.6072,-3.6952,-3.5174,-3.576,-3.6256,-3.6256,-3.7246,-3.8089,-3.8621,-4.007,-4.095,-4.1079,-4.1849,-4.2344,-4.2472,-4.2619,-4.2747,-4.2894,-4.3279,-4.3261,-4.2894,-4.3151,-4.3059,-4.2692,-4.2692,-4.2692,-4.2619,-4.1812,-4.0767,-3.9502,-3.7723,-3.6696,-3.6201,-3.5944,-3.5999,-3.6274,-3.6531,-3.6622,-3.6586,-3.6311,-3.6054,-3.5834,-3.5834,-3.6128,-3.6769,-3.8185,-3.9605,-4.0965,-4.1688,-4.338,-4.4721,-4.3973,-4.4457,-4.5019,-4.4866,-4.4954,-4.4976,-4.4648,-4.3818,-4.3343,-4.3785,-4.3326,-4.3553,-4.5551,-4.6154,-4.7005,-4.8564,-4.9589,-5.0287,-5.0672,-5.0696,-5.0696,-5.0696,-5.0046,-4.9469,-4.9109,-4.7593,-4.6415,-4.5694,-4.4804,-4.4058,-4.3529,-4.2663,-4.2062,-4.1701,0.0,0.0,0.0,0.0,0.0,0.0,0.0,0.0,0.0,0.0,0.0,0.0,0.0,0.0,0.0,0.0,0.0,0.0,0.0,0.0,0.0,0.0,0.0,-3.0974,-3.367,-3.5265,-3.4128,-3.7136,-3.853,-3.6549,-3.7814,-3.875,-3.8731,-3.9465,-4.0272,-4.106,-4.15,-4.1904,-4.2307,-4.2326,-4.2527,-4.2913,-4.3334,-4.3719,-4.4105,-4.449,-4.4471,-4.4086,-4.4086,-4.3866,-4.3499,-4.3499,-4.3499,-4.3426,-4.2619,-4.2051,-4.1482,-3.9465,-3.8181,-3.7466,-3.7448,-3.7429,-3.7429,-3.7429,-3.7429,-3.7448,-3.7448,-3.7448,-3.7466,-3.7466,-3.8232,-3.8975,-3.7773,-3.9994,-4.2479,-4.1867,-4.3509,-4.5309,-4.5744,-4.6002,-4.5871,-4.5434,-4.5696,-4.574,-4.4801,-4.4626,-4.476,-4.4961,-4.4872,-4.5432,-4.684,-4.7537,0.0,-4.9691,-5.0359,-5.0696,-5.0696,-5.0696,-5.0696,-5.0696,-5.0696,-5.0215,-4.9157,-4.8555,-4.7305,-4.5237,-4.5621,-4.5116,-4.3529,-4.3024,-4.2254,-4.122,0.0,0.0,0.0,0.0,0.0,0.0,0.0,0.0,0.0,0.0,0.0,0.0,0.0,0.0,0.0,0.0,0.0,0.0,0.0,0.0,0.0,-3.2001,-3.2991,-3.3762,-3.5632,-3.7228,-3.8071,-3.985,-4.0675,-3.9813,-4.0675,-4.1152,-4.0877,-4.1317,-4.1702,-4.1941,-4.2326,-4.2729,-4.3151,-4.3444,-4.3774,-4.4178,-4.4288,-4.4398,-4.4508,-4.4618,-4.4471,-4.4086,-4.4086,-4.3866,-4.3499,-4.3499,-4.3499,-4.3426,-4.2619,-4.2051,-4.1537,-4.0088,-3.9025,-3.8273,-3.7961,-3.7668,-3.7429,-3.7429,-3.7613,-3.7851,-3.7851,-3.8053,-3.831,-3.831,-3.8467,-3.8937,-3.9542,-4.0299,-4.1089,-4.0898,-4.2607,-4.4313,-4.3532,-4.4633,-4.5959,-4.5849,-4.5915,-4.5915,-4.5675,-4.5609,-4.564,-4.552,-4.5819,-4.6329,-4.7325,-4.8146,-4.885,-4.9511,-5.0316,-5.0696,-5.0696,-5.0696,-5.0696,-5.0696,-5.0335,-4.9806,-4.9133,-4.7858,-4.6704,-4.5742,-4.5116,-4.4202,-4.3,-4.3192,-4.2784,0.0,0.0,0.0,0.0,0.0,0.0,0.0,0.0,0.0,0.0,0.0,0.0,0.0,0.0,0.0,0.0,0.0,0.0,0.0,0.0,0.0,0.0,-3.334,-3.477,-3.6329,-3.7356,-3.8401,-3.9685,-4.0932,-4.1592,-4.1354,-4.1904,-4.2179,-4.1959,-4.2307,-4.2601,-4.2784,-4.3151,-4.3573,-4.3976,-4.4215,-4.4435,-4.4673,-4.4838,-4.493,-4.493,-4.493,-4.4728,-4.4325,-4.416,-4.3866,-4.3499,-4.3499,-4.3499,-4.3426,-4.2619,-4.2142,-4.1812,0.0,0.0,0.0,0.0,-3.864,-3.842,-3.8236,-3.8328,-3.8493,-3.8328,-3.8438,-3.864,-3.864,-3.864,-3.8798,-3.9569,-4.004,-4.0666,-4.1113,-4.279,-4.4159,-4.3877,-4.4934,-4.6002,-4.6002,-4.6002,-4.6002,-4.6002,-4.6002,0.0,-4.5843,-4.6122,-4.6614,-4.7774,-4.8349,-4.8894,-4.9914,-5.0412,-5.0696,-5.0696,-5.0696,-5.0696,-5.0696,-5.0407,0.0,0.0,0.0,-4.7377,-4.6607,-4.5357,0.0,0.0,0.0,-4.3337,-4.2303,-4.2832,0.0,0.0,-4.2399,-4.2303,0.0,0.0,0.0,0.0,0.0,0.0,0.0,0.0,0.0,0.0,0.0,0.0,0.0,0.0,0.0,0.0,-3.4788,-3.6476,-3.8548,-3.8878,-3.9208,-3.996,-4.106,-4.1776,-4.1812,-4.2216,-4.2472,-4.2472,-4.2858,-4.3224,-4.3609,-4.3958,0.0,0.0,0.0,-4.4765,-4.4801,-4.5187,-4.5352,-4.5297,-4.526,-4.5003,-4.46,-4.4196,-4.3829,-4.3499,-4.3499,-4.3499,-4.3426,-4.2619,-4.2216,-4.2032,-4.0914,-4.0235,-3.9905,-3.985,-3.985,-3.9795,-3.9428,0.0,0.0,-3.8823,-3.8676,-3.864,-3.864,-3.864,-3.864,-3.864,-3.9411,-4.0509,-4.1578,-4.2943,-4.431,-4.5384,-4.5853,-4.6002,-4.6002,-4.6002,-4.6002,-4.6002,-4.6002,-4.6002,-4.6002,-4.6151,-4.6596,-4.7941,-4.8377,-4.8957,-5.027,-5.0554,-5.0696,-5.0696,-5.0696,0.0,-5.0696,-5.0768,-5.0527,-4.9902,-4.9325,-4.8555,-4.7545,-4.615,-4.5381,-4.5309,-4.4852,-4.4082,-4.3024,-4.3481,-4.3673,-4.3601,-4.3072,-4.2856,0.0,0.0,0.0,0.0,0.0,0.0,0.0,0.0,0.0,0.0,0.0,0.0,0.0,0.0,0.0,-3.521,-3.6182,-3.7429,-3.9795,-4.0382,-4.0785,-4.1262,-4.1831,-4.2289,-4.2601,-4.3298,-4.3738,-4.3738,-4.4105,-4.4361,-4.4435,-4.4508,-4.4746,-4.5168,-4.5187,-4.5333,-4.5645,-4.5737,-4.5608,-4.5297,-4.4948,0.0,-4.4178,-4.3793,-4.3573,-4.3499,-4.3499,-4.3499,-4.3426,-4.2619,-4.1886,-4.1244,-4.0694,-4.0418,-4.0308,-3.996,-3.985,-3.9832,-3.9758,-3.9502,-3.9226,-3.9135,-3.8896,-3.864,-3.864,-3.864,0.0,-3.864,-3.8798,-3.8956,-3.9254,-4.0958,-4.281,-4.2963,-4.4482,-4.6002,-4.6002,-4.6002,-4.6002,-4.6002,-4.6002,-4.6002,-4.6002,-4.6596,-4.6891,-4.6448,-4.8064,-4.9221,-4.8812,-4.9985,-5.0696,-5.0696,-5.0696,-5.0696,-5.0696,-5.1105,-5.0912,-4.9926,-4.8964,-4.8147,-4.7521,-4.7209,-4.6848,-4.6415,-4.6319,-4.5742,-4.4683,-4.478,-4.4611,-4.4178,-4.3625,-4.3361,0.0,0.0,0.0,0.0,0.0,0.0,0.0,0.0,0.0,0.0,0.0,-3.1157,-3.2368,0.0,-3.4238,-3.6457,-3.7503,-3.8676,-4.051,-4.1115,-4.1445,-4.1666,-4.2216,-4.2729,-4.3151,-4.3719,-4.416,-4.4361,-4.4746,-4.4985,-4.4985,-4.5168,-4.537,-4.559,-4.559,-4.57,-4.5883,-4.5883,-4.5792,-4.559,-4.4966,-4.4563,-4.4361,-4.3756,-4.3499,-4.3499,-4.3499,-4.3499,-4.3444,-4.2821,-4.2216,-4.1647,-4.1445,-4.1115,-4.0749,-4.0529,-4.0455,-4.04,-3.9978,-3.9703,-3.9465,-3.9061,-3.8805,-3.864,-3.864,-3.864,-3.864,-3.864,-3.864,-3.8798,-3.943,-4.049,-4.1733,-4.2943,-4.4159,-4.5234,-4.5853,-4.6002,-4.6002,-4.6002,-4.6002,-4.6002,-4.6002,-4.6299,-4.6596,-4.6596,-4.7918,-4.8957,-4.8957,-4.9675,-5.0246,-5.0696,-5.0696,-5.0696,-5.0696,-5.1177,-5.1249,-5.072,-5.0191,-4.9662,-4.9133,-4.8579,-4.805,-4.7521,-4.7233,-4.6848,-4.6319,-4.6319,-4.6054,-4.5525,-4.4972,-4.4443,0.0,0.0,0.0,0.0,0.0,0.0,0.0,-3.0314,-3.0901,-3.1726,-3.1928,-3.2459,-3.4092,-3.4935,-3.5962,-3.7723,-3.8841,-3.9905,-4.1134,-4.1647,-4.1922,-4.1922,-4.2546,-4.3151,-4.3573,-4.4031,-4.4453,-4.4765,-4.5187,-4.5407,-4.5407,-4.5718,-4.5883,-4.5883,-4.5883,-4.5883,-4.5883,-4.5883,-4.581,-4.5645,-4.4985,-4.46,-4.4416,-4.3793,-4.3499,-4.3499,-4.3499,-4.3444,-4.3353,-4.3004,-4.2637,-4.2271,-4.2197,-4.1757,-4.1189,-4.1189,-4.1134,-4.0969,-4.0308,-3.9978,-3.974,-3.908,-3.8768,-3.864,-3.864,-3.864,-3.864,-3.864,-3.864,-3.8798,-3.9883,-4.0509,-4.1424,-4.34,-4.4159,-4.4784,-4.5853,-4.6068,-4.6111,-4.6024,-4.6155,-4.6221,-4.6024,-4.6239,-4.6602,-4.7047,-4.7863,-4.8714,-4.9362,-4.9673,-5.0056,-5.072,-5.0792,-5.0912,-5.1008,-5.1297,-5.1586,-5.1778,-5.1706,-5.1441,-5.1032,-5.0167,-4.9493,-4.9084,-4.8435,-4.8074,-4.7954,-4.7762,-4.7377,-4.6848,-4.6439,-4.5597,-3.0259,-3.0167,-3.0185,-3.0094,-3.0387,-3.0809,0.0,-3.1799,-3.2551,-3.3376,-3.3817,-3.4568,-3.6201,-3.6567,-3.7411,-3.9758,-4.0253,-4.0749,-4.1977,-4.2472,-4.2729,-4.2729,-4.3151,-4.3573,-4.3976,-4.471,-4.5187,-4.5223,-4.5608,-4.5828,-4.5828,-4.5865,-4.5883,-4.5883,-4.5883,-4.5883,-4.5883,-4.5883,-4.5517,-4.4801,-4.471,-4.4306,-4.3628,-4.3536,-4.3499,-4.3499,-4.3499,-4.3279,-4.2931,-4.2894,-4.2637,-4.2234,-4.1886,-4.1702,-4.1629,-4.1629,-4.1372,-4.1042,-4.095,-4.0455,-3.9832,-3.974,-3.9226,-3.864,-3.864,-3.864,-3.864,-3.864,-3.864,-3.864,-3.8798,-4.049,-4.2196,-4.2503,-4.418,-4.5853,-4.6002,-4.633,-4.6526,-4.609,-4.6723,-4.7051,-4.6155,-4.6972,-4.7409,-4.6808,-4.7625,-4.8538,-4.9121,-5.0359,-5.1082,-5.0744,-5.1129,-5.1586,-5.2067,-5.173,-5.1898,-5.2836,-5.2451,-5.2163,-5.2115,-5.1994,-5.1898,-5.1826,-5.0864,-5.0095,-4.9589,-4.8652,-4.793,-4.7425,-4.7353,-4.6511,-3.1084,-3.0901,-3.0882,-3.0882,-3.1377,-3.1946,-3.2368,-3.3083,-3.3872,-3.4697,-3.5174,-3.5944,-3.7594,-3.7888,-3.8456,-4.018,-4.0877,-4.1445,-4.2179,-4.2619,-4.2784,-4.2546,-4.2876,-4.3463,-4.4343,-4.4728,-4.5132,-4.5608,-4.5792,-4.5883,-4.5883,-4.5883,-4.5883,-4.5883,-4.5883,-4.5883,-4.5883,-4.5883,-4.5718,-4.5388,-4.6055,-4.5624,-4.4178,-4.482,-4.4595,-4.3499,-4.3499,-4.3389,-4.3224,-4.3224,-4.3133,-4.2949,-4.2527,-4.2234,-4.1977,-4.15,-4.106,-4.0675,-4.0418,-3.996,-3.9447,-3.9226,-3.8915,-3.864,-3.864,-3.864,-3.864,-3.864,-3.864,-3.864,-3.864,-3.9883,-4.1424,-4.2196,-4.3912,-4.5491,-4.6267,-4.681,-4.7116,-4.6898,-4.7204,-4.7357,-4.6942,-4.7333,-4.7727,-4.7531,-4.7826,-4.8294,-4.9089,-4.9956,-5.0925,-5.1921,-5.2283,-5.2499,-5.2716,-5.2812,-5.2908,-5.3053,-5.3125,-5.3053,-5.2764,-5.274,-5.2596,-5.2283,-5.185,-5.1513,-5.1273,-5.0527,-4.9878,-4.9349,-4.8724,-4.7906,-3.1708,-3.1653,-3.1744,-3.1854,-3.2588,-3.3376,-3.3798,-3.4495,-3.5302,-3.6109,-3.6512,-3.7136,-3.8548,-3.8896,-3.9373,-4.0602,-4.139,-4.2032,-4.2546,-4.2674,-4.2601,-4.2307,-4.2326,-4.2839,-4.405,-4.438,-4.4856,-4.5663,-4.5737,-4.5773,-4.5883,-4.5883,-4.5883,-4.5883,-4.5883,-4.6072,-4.6429,-4.6072,-4.6016,-4.6262,-4.6592,-4.5994,-4.449,-4.5168,-4.5045,-4.4182,-4.3825,-4.3664,-4.3664,-4.3664,-4.3591,-4.3444,-4.3023,-4.2619,-4.2197,-4.15,-4.0969,-4.0565,-4.0143,-3.974,-3.9336,-3.8933,-3.8731,-3.8658,-3.8768,-3.8805,-3.8805,-3.8805,-3.8805,-3.8786,-3.8676,-3.9569,-4.0802,-4.2042,-4.3515,-4.5011,-4.6399,-4.7138,-4.7488,-4.7488,-4.7706,-4.7837,-4.7706,-4.7793,-4.799,-4.8318,-4.8366,-4.8709,-4.9605,-5.0204,-5.1395,-5.3288,-5.3216,-5.3043,-5.3485,-5.3702,-5.3726,-5.351,-5.3702,-5.3654,-5.3293,-5.3269,-5.3101,-5.2716,-5.2572,-5.2499,-5.2499,-5.197,-5.1513,-5.1129,-5.0335,-4.9758,-3.1891,-3.2276,-3.2661,-3.3065,-3.4073,-3.5064,-3.5449,-3.6182,-3.6989,-3.7778,-3.7943,-3.8218,-3.9061,-3.9538,-4.0217,-4.1445,-4.1996,-4.2546,-4.3353,-4.2784,-4.2289,-4.2271,-4.1592,-4.1592,-4.2803,-4.3646,-4.4435,-4.526,-4.5315,-4.548,-4.5865,-4.5883,-4.5883,-4.5883,-4.5883,-4.6616,-4.8088,-4.6616,-4.643,-4.7492,-4.561,-4.449,-4.4086,-4.3683,-4.4576,-4.5986,-4.4591,-4.4068,-4.4068,-4.4068,-4.3848,-4.3444,-4.3023,-4.2619,-4.2234,-4.1812,-4.1409,-4.0987,-4.0584,-4.018,-3.9758,-3.9355,-3.8951,-3.8713,-3.9098,-3.9208,-3.9208,-3.9208,-3.9208,-3.9116,-3.875,-3.9569,-4.0802,-4.2042,-4.3269,-4.4609,-4.6312,-4.7138,-4.7488,-4.7488,-4.823,-4.8711,-4.823,-4.8536,-4.8864,-4.8886,-4.9257,-5.0003,-5.1208,-5.1931,-5.2905,-5.4343,-5.3352,-5.3105,-5.4367,-5.4111,-5.4039,-5.452,-5.4087,-5.3822,-5.3798,-5.3798,-5.3798,-5.3774,-5.3293,-5.3053,-5.3053,-5.2524,-5.2259,-5.2235,-5.2211,-5.2163,-3.2368,-3.3083,-3.4018,-3.4972,-3.5724,-3.6402,-3.7062,-3.7631,-3.7961,-3.7686,-3.7631,-3.7704,-3.7979,-3.8144,-3.8731,-4.0217,-4.1024,-4.1849,-4.2931,-4.2839,-4.2362,-4.1555,-4.1225,-4.1115,-4.1262,-4.2491,-4.3848,-4.5205,-4.5297,-4.548,-4.5865,-4.5883,-4.5883,-4.5883,-4.5883,-4.6072,-4.6635,-4.7177,-4.7322,-4.7453,-4.6485,-4.658,-4.7324,-4.5231,-4.4706,-4.5162,-4.4377,-4.4086,-4.4068,-4.3793,-4.3444,-4.3041,-4.2637,-4.2234,-4.1812,-4.1134,-4.0785,-4.0602,-4.0198,-3.9612,-3.9025,-3.8878,-3.8933,-3.9006,-3.8878,-3.9025,-3.9171,-3.8915,-3.8841,-3.8805,-3.8676,-3.9775,-4.1229,-4.2461,-4.4153,-4.5898,-4.7332,-4.8339,-4.8907,-4.8907,-4.941,-4.9781,-4.9628,-4.9737,-5.0117,-5.1094,-5.0739,-5.095,-5.2215,-5.3023,-5.4145,-5.547,-5.5219,-5.5171,-5.5674,-5.5193,-5.4928,-5.5121,-5.4303,-5.3966,-5.4327,-5.4015,-5.3822,-5.3822,-5.3654,-5.3558,-5.3558,-5.3053,-5.2812,-5.2788,-5.2451,-5.2283,-3.334,-3.4348,-3.5522,-3.6586,-3.7283,-3.7833,-3.8328,-3.8658,-3.8658,-3.7998,-3.7631,-3.7374,-3.7246,-3.7099,-3.7466,-3.8951,-3.9758,-4.073,-4.2234,-4.2326,-4.1996,-4.1354,-4.1152,-4.1024,-4.0914,-4.1959,-4.3206,-4.4545,-4.4911,-4.526,-4.5663,-4.581,-4.5883,-4.5883,-4.5883,-4.6447,-4.755,-4.7212,-4.6928,-4.6511,-4.747,-4.8215,-4.8969,-4.7179,-4.6457,-4.6799,-4.5649,-4.51,-4.4752,-4.3991,-4.3371,-4.2839,-4.2582,-4.2069,-4.139,-4.0877,-4.04,-3.9997,-3.9722,-3.9281,-3.8823,-3.8695,-3.8805,-3.9006,-3.8896,-3.9025,-3.9171,-3.8933,-3.886,-3.886,-3.886,-3.9982,-4.1461,-4.2901,-4.4625,-4.6405,-4.8026,-4.8929,-4.9475,-4.9803,-5.0109,-5.0371,-5.0546,-5.072,-5.1268,-5.2421,-5.2092,-5.2261,-5.3703,-5.4387,-5.5162,-5.631,-5.6176,-5.6176,-5.6516,-5.6011,-5.5698,-5.5698,-5.488,-5.4447,-5.4592,-5.4279,-5.4015,-5.3822,-5.3822,-5.3822,-5.3822,-5.3485,-5.3341,-5.3341,-5.298,-5.274,-3.4807,-3.6017,-3.7154,-3.7906,-3.8713,-3.9281,-3.9263,-3.9245,-3.9098,-3.8676,-3.7924,-3.7209,-3.6824,-3.6421,-3.6567,-3.7833,-3.842,-3.9428,-4.15,-4.1445,-4.1317,-4.1666,-4.139,-4.1299,-4.1684,-4.2087,-4.2674,-4.3463,-4.4233,-4.4856,-4.5315,-4.5682,-4.5883,-4.5883,-4.5883,-4.7364,-5.0114,-4.7132,-4.5464,-4.5241,-4.8331,-4.957,-4.8989,-4.9167,-4.9875,-5.0756,-4.8037,-4.6729,-4.6184,-4.4734,-4.3733,-4.2996,-4.2996,-4.2297,-4.1266,-4.1229,-4.0327,-3.9318,-3.9281,-3.9245,-3.9135,-3.8768,-3.8658,-3.8731,-3.9098,-3.9208,-3.9226,-3.9226,-3.9245,-3.9263,-3.9281,-4.0264,-4.1814,-4.334,-4.4728,-4.6257,-4.8417,-4.8973,-4.9279,-5.0174,-5.0371,-5.0546,-5.1026,-5.1507,-5.2125,-5.2935,-5.3078,-5.3738,-5.553,-5.5691,-5.6013,-5.6861,-5.6197,-5.6037,-5.6861,-5.654,-5.6251,-5.6275,-5.5722,-5.5193,-5.4712,-5.464,-5.4375,-5.387,-5.3822,-5.3822,-5.3822,-5.3822,-5.3822,-5.3822,-5.3822,-5.3558,-3.6127,-3.7484,-3.8731,-3.9245,-3.9777,-4.007,-3.9758,-3.9447,-3.8951,-3.7943,-3.6861,-3.5962,-3.5559,-3.5412,-3.6017,-3.8144,-3.908,-4.0345,-4.2711,-4.2949,-4.2692,-4.2179,-4.2289,-4.2326,-4.2142,-4.2766,-4.3389,-4.3903,-4.4398,-4.4985,-4.57,-4.5828,-4.5883,-4.5883,-4.5883,-4.6803,-4.8643,-4.9653,-5.0627,-5.1589,-5.136,-5.1162,-5.088,-4.9989,-4.9631,-4.9949,-4.857,-4.7857,-4.7522,-4.654,-4.595,-4.5477,-4.5477,-4.4407,-4.2968,-4.2645,-4.1676,-4.051,-3.9905,-3.93,-3.8786,-3.8676,-3.8841,-3.9043,-3.886,-3.8988,-3.9226,-3.9226,-3.9447,-3.974,-4.007,-4.156,-4.3264,-4.4399,-4.6146,-4.7927,-4.9133,-5.0,-5.0589,-5.083,-5.1179,-5.1463,-5.1594,-5.1725,-5.1791,-5.2125,-5.2603,-5.3738,-5.553,-5.5691,-5.6013,-5.6861,-5.6861,-5.6702,-5.7021,-5.654,-5.6395,-5.6804,-5.5914,-5.553,-5.5818,-5.5049,-5.4544,-5.4399,-5.4015,-5.3822,-5.3822,-5.3822,-5.3822,-5.3822,-5.3822,-5.375,-3.7613,-3.8805,-3.9868,-4.0272,-4.0418,-4.0308,-3.9703,-3.9263,-3.8585,-3.7173,-3.6219,-3.5449,-3.4862,-3.4605,-3.5174,-3.7246,-3.8255,-3.9703,-4.2326,-4.2858,-4.2931,-4.2821,-4.3151,-4.3243,-4.2858,-4.3536,-4.4178,-4.4581,-4.482,-4.515,-4.5608,-4.5792,-4.5883,-4.5883,-4.6447,-4.7455,-4.8718,-5.1556,-5.2698,-5.2132,-5.2698,-5.2627,-5.2093,-5.1705,-5.1319,-5.1068,-4.9816,-4.9056,-4.881,-4.7632,-4.6997,-4.6595,-4.6595,-4.5589,-4.417,-4.41,-4.2944,-4.1264,-4.0978,-4.0024,-3.9171,-3.9171,-3.9318,-3.9465,-3.9245,-3.9318,-3.9538,-3.9722,-3.9795,-3.996,-4.0565,-4.2531,-4.4502,-4.5122,-4.7298,-4.9467,-5.0099,-5.0699,-5.1135,-5.1354,-5.1616,-5.1791,-5.1791,-5.1791,-5.1958,-5.2292,-5.3101,-5.423,-5.553,-5.5691,-5.6013,-5.6861,-5.7021,-5.7021,-5.7021,-5.6756,-5.6708,-5.6997,-5.6444,-5.6155,-5.6227,-5.565,-5.5193,-5.4952,-5.4664,-5.4399,-5.4159,-5.4159,-5.4039,-5.3822,-5.3822,-5.3702,-3.908,-3.996,-4.0639,-4.0969,-4.073,-4.0162,-3.9336,-3.8768,-3.7961,-3.6439,-3.5779,-3.5247,-3.4532,-3.4128,-3.4477,-3.6237,-3.7118,-3.8603,-4.1519,-4.2216,-4.2729,-4.3481,-4.3976,-4.4105,-4.3774,-4.4398,-4.4985,-4.5352,-4.5388,-4.5388,-4.5388,-4.57,-4.6072,-4.6259,-4.7364,-4.8816,-5.0053,-5.2996,-5.2996,-5.0413,-5.3351,-5.4121,-5.2829,-5.3558,-5.3626,-5.3189,-5.1402,-5.042,-4.987,-4.8613,-4.7833,-4.7467,-4.7467,-4.6756,-4.5575,-4.5514,-4.4196,-4.2411,-4.2295,-4.1447,-4.047,-4.0032,-3.985,-3.985,-3.985,-3.985,-3.9923,-4.0345,-4.04,-4.0491,-4.1267,-4.3516,-4.5656,-4.598,-4.827,-5.0611,-5.0983,-5.1135,-5.1288,-5.1725,-5.1791,-5.1791,-5.1791,-5.1791,-5.2125,-5.2913,-5.3738,-5.4556,-5.553,-5.5852,-5.6197,-5.6861,-5.7021,-5.7021,-5.7021,-5.7021,-5.7021,-5.7021,-5.7021,-5.6804,-5.6371,-5.6275,-5.6011,-5.553,-5.5361,-5.5073,-5.4616,-5.4544,-5.4255,-5.3822,-5.3822,-5.3582,-4.0015,-4.0602,-4.0969,-4.1042,-4.051,-3.974,-3.8933,-3.7924,-3.6879,-3.5925,-3.5137,-3.4568,-3.4422,-3.4348,-3.5155,-3.7796,-3.8346,-3.9538,-4.2729,-4.3243,-4.3463,-4.3921,-4.4636,-4.5058,-4.4985,-4.5407,-4.57,-4.5773,-4.5792,-4.5792,-4.5792,-4.5847,-4.6447,-4.7736,-4.7903,-4.9341,-5.2006,-5.2629,-5.3166,-5.3792,-5.4432,-5.4652,-5.4255,-5.3561,-5.3298,-5.3167,-5.2124,-5.152,-5.1412,-5.0666,-5.045,-5.0386,-5.0386,-4.9549,-4.8296,-4.79,-4.6823,-4.5417,-4.4698,-4.4275,-4.3667,-4.0871,-3.985,-3.985,-3.985,-3.985,-3.9923,-4.0345,-4.1451,-4.2563,-4.3079,-4.5757,-4.8254,-4.7942,-4.9716,-5.1463,-5.1135,-5.1398,-5.1703,-5.1791,-5.1791,-5.1791,-5.1791,-5.1791,-5.2125,-5.2913,-5.3243,-5.3902,-5.553,-5.6358,-5.6861,-5.7021,-5.7021,-5.7021,-5.7021,-5.7021,-5.7021,-5.7021,-5.7021,-5.6973,-5.69,-5.6468,-5.6179,-5.6083,-5.5193,-5.4688,-5.4616,-5.4159,-5.3918,-5.3822,-5.3822,-5.3774,-4.0824,-4.1079,-4.139,-4.139,-4.0455,-3.9318,-3.8493,-3.7374,-3.6164,-3.4935,-3.4532,-3.433,-3.4128,-3.4257,-3.5045,-3.7062,-3.7558,-3.8841,-4.2087,-4.2546,-4.3004,-4.4251,-4.493,-4.5297,-4.5297,-4.5663,-4.5883,-4.5883,-4.5883,-4.5883,-4.5883,-4.6616,-4.7717,-4.9197,-4.9931,-5.1388,-5.3566,-5.3566,-5.3943,-5.4652,-5.4652,-5.4652,-5.463,-5.3647,-5.3211,-5.3167,-5.2206,-5.1791,-5.1791,-5.155,-5.131,-5.1092,-5.1354,-5.0652,-4.9325,-4.9325,-4.8185,-4.6557,-4.6126,-4.5495,-4.4762,-4.304,-4.2086,-4.1429,-4.1429,-4.1118,-4.0879,-4.2602,-4.3029,-4.3272,-4.4366,-4.6634,-4.8609,-4.8378,-5.0074,-5.1747,-5.1507,-5.1638,-5.1791,-5.1791,-5.1791,-5.1791,-5.1791,-5.2125,-5.2603,-5.3078,-5.3902,-5.4719,-5.553,-5.6518,-5.7021,-5.7021,-5.7021,-5.7021,-5.7021,-5.7021,-5.7021,-5.7021,-5.7021,-5.7021,-5.7021,-5.678,-5.6636,-5.6636,-5.6131,-5.5722,-5.5458,-5.5193,-5.4784,-5.4231,-5.4231,-5.4087,-4.1341,-4.1372,-4.1684,-4.1684,-4.0455,-3.9025,-3.8199,-3.6952,-3.5522,-3.4,-3.4,-3.4147,-3.3762,-3.4018,-3.4733,-3.6109,-3.6549,-3.7833,-4.1097,-4.1629,-4.2399,-4.4325,-4.4985,-4.5333,-4.5425,-4.57,-4.5883,-4.5883,-4.5883,-4.5883,-4.5883,-4.7364,-4.8643,-4.9748,-5.1207,-5.2671,-5.4298,-5.4298,-5.4475,-5.4652,-5.4652,-5.4609,-5.4477,-5.3713,-5.3254,-5.3014,-5.2271,-5.19,-5.1791,-5.1682,-5.1419,-5.1092,-5.1376,-5.0786,-4.9803,-5.0065,-4.9027,-4.7399,-4.7293,-4.6629,-4.582,-4.5495,-4.4494,-4.3507,-4.3507,-4.2697,-4.2459,-4.4865,-4.4813,-4.4265,-4.5815,-4.7547,-4.8874,-4.9086,-5.0558,-5.1791,-5.1791,-5.1791,-5.1791,-5.1791,-5.1791,-5.1791,-5.2125,-5.2603,-5.3243,-5.3573,-5.4882,-5.5691,-5.6013,-5.6518,-5.7021,-5.7021,-5.7021,-5.7021,-5.7021,-5.7021,-5.7021,-5.7021,-5.7021,-5.7021,-5.7021,-5.7021,-5.7021,-5.7021,-5.69,-5.666,-5.6227,-5.6107,-5.5554,-5.4616,-5.4616,-5.4327,-4.1175,-4.1372,-4.1684,-4.1684,-4.0455,-3.9025,-3.8199,-3.6531,-3.4788,-3.3541,-3.3596,-3.3743,-3.3358,-3.3596,-3.4513,-3.6457,-3.6494,-3.7393,-4.0657,-4.1445,-4.2289,-4.394,-4.482,-4.5443,-4.5792,-4.5865,-4.5883,-4.5883,-4.5883,-4.5883,-4.5883,-4.7364,-4.8088,-4.8273,-4.9748,-5.1207,-5.2671,-5.2671,-5.3387,-5.4652,-5.4652,-5.4434,-5.3997,-5.391,-5.3385,-5.2555,-5.2446,-5.2184,-5.1769,-5.1332,-5.1114,-5.1026,-5.0611,-5.0371,-5.0196,-4.9825,-4.9468,-4.9337,-4.888,-4.8569,-4.841,-4.7111,-4.5799,-4.4842,-4.4842,-4.4678,-4.4758,-4.5508,-4.6127,-4.6816,-4.7856,-4.9118,-5.0382,-5.1275,-5.1558,-5.1791,-5.1791,-5.1791,-5.1791,-5.1791,-5.1791,-5.2125,-5.2769,-5.3078,-5.3573,-5.5206,-5.553,-5.6013,-5.6861,-5.7021,-5.7021,-5.7021,-5.7021,-5.7021,-5.7021,-5.7021,-5.7021,-5.7021,-5.7021,-5.7021,-5.7021,-5.7021,-5.7021,-5.7021,-5.654,-5.6275,-5.6227,-5.5722,-5.5169,-5.4616,-5.4616,-5.4327,-4.1941,-4.2499,-4.3045,-4.2205,-4.062,-3.924,-3.9299,-3.7091,-3.4821,-3.427,-3.3935,-3.3688,-3.3303,-3.3541,-3.4238,-3.554,-3.5394,-3.6072,-3.8841,-3.9373,-4.0345,-4.2711,-4.3719,-4.4563,-4.5443,-4.5755,-4.5883,-4.5883,-4.5883,-4.5883,-4.5883,-4.7364,-4.8459,-4.938,-5.0843,-5.2312,-5.3765,-5.3765,-5.4121,-5.4652,-5.4652,-5.4565,-5.4346,-5.3757,-5.3298,-5.2883,-5.2315,-5.1966,-5.1769,-5.1267,-5.0895,-5.0589,-5.0393,-4.9956,-4.9475,-4.9585,-4.9454,-4.917,-4.8973,-4.8907,-4.8727,-4.8251,-4.7752,-4.7272,-4.6467,-4.5657,-4.5372,-4.7161,-4.7448,-4.7596,-4.8811,-5.0001,-5.0939,-5.1638,-5.1791,-5.1791,-5.1791,-5.1791,-5.1958,-5.2437,-5.2603,-5.2935,-5.376,-5.4393,-5.4882,-5.553,-5.6197,-5.6678,-5.7021,-5.7021,-5.7021,-5.7021,-5.7021,-5.7021,-5.7021,-5.7021,-5.7021,-5.7021,-5.7021,-5.7021,-5.7021,-5.7021,-5.7021,-5.7021,-5.6804,-5.6708,-5.6708,-5.6492,-5.6107,-5.5578,-5.5578,-5.5289,-4.156,-4.2383,-4.3291,-4.2407,-4.1157,-3.9869,-4.0158,-3.7613,-3.5182,-3.4739,-3.4158,-3.3523,-3.312,-3.3468,-3.4073,-3.4899,-3.477,-3.5394,-3.7686,-3.8016,-3.8933,-4.1445,-4.2362,-4.3298,-4.4636,-4.5443,-4.5883,-4.5883,-4.5883,-4.5883,-4.5883,-4.6803,-4.8088,-4.9564,-5.1569,-5.303,-5.4121,-5.4475,-5.4652,-5.4652,-5.4521,-5.4434,-5.4412,-5.3582,-5.3123,-5.297,-5.2293,-5.1922,-5.1769,-5.1267,-5.0764,-5.0305,-5.0174,-4.9606,-4.8951,-4.9279,-4.9191,-4.8907,-4.8907,-4.8907,-4.8907,-4.8907,-4.8907,-4.8727,-4.7752,-4.6951,-4.6488,-4.8583,-4.879,-4.8648,-4.9502,-5.0458,-5.1157,-5.1507,-5.1703,-5.1769,-5.1616,-5.1849,-5.2437,-5.2913,-5.3243,-5.3738,-5.4556,-5.5368,-5.5852,-5.6037,-5.6678,-5.7021,-5.7021,-5.7021,-5.7021,-5.7021,-5.7021,-5.7021,-5.7021,-5.7021,-5.7021,-5.7021,-5.7021,-5.7021,-5.7021,-5.7021,-5.7021,-5.7021,-5.6876,-5.6852,-5.7021,-5.6852,-5.6588,-5.6227,-5.6227,-5.5938,-3.9421,-4.0437,-4.1794,-4.2179,-4.1863,-4.1273,-4.0027,-3.7766,-3.5701,-3.445,-3.3744,-3.3101,-3.268,-3.3266,-3.4073,-3.4899,-3.5027,-3.5724,-3.7741,-3.8016,-3.8621,-4.029,-4.084,-4.1721,-4.3353,-4.4948,-4.5883,-4.5883,-4.5883,-4.5883,-4.5883,-4.5883,-4.6635,-4.8088,-5.1025,-5.2492,-5.2492,-5.3943,-5.4652,-5.4652,-5.4172,-5.3953,-5.3931,-5.3429,-5.2948,-5.249,-5.249,-5.2228,-5.1769,-5.1267,-5.0764,-5.0262,-4.9825,-4.9344,-4.8907,-4.8907,-4.8907,-4.8907,-4.8907,-4.8907,-4.8907,-4.8907,-4.8907,-4.8907,-4.8907,-4.8907,-4.8995,-4.9475,-4.9956,-5.0305,-5.0305,-5.0677,-5.107,-5.107,-5.1441,-5.166,-5.1179,-5.2105,-5.3078,-5.3078,-5.376,-5.4742,-5.553,-5.5691,-5.6013,-5.6861,-5.7021,-5.7021,-5.7021,-5.7021,-5.7021,-5.7021,-5.7021,-5.7021,-5.7021,-5.7021,-5.7021,-5.7021,-5.7021,-5.7021,-5.7021,-5.7021,-5.7021,-5.7021,-5.6516,-5.6492,-5.7021,-5.6492,-5.6251,-5.6227,-5.6227,-5.5938,-3.9976,-4.1434,-4.2425,-4.1327,-4.1035,-4.098,-4.0706,-3.9069,-3.7252,-3.5904,-3.52,-3.4289,-3.3237,-3.345,-3.4073,-3.4899,-3.5027,-3.5449,-3.6622,-3.7264,-3.8218,-3.985,-4.1867,-4.3554,-4.4618,-4.5187,-4.5608,-4.5865,-4.5883,-4.6259,-4.7364,-4.7364,-4.8088,-4.9564,-5.0479,-5.193,-5.3943,-5.4475,-5.4499,-5.4172,-5.4346,-5.4084,-5.3429,-5.3276,-5.2948,-5.2446,-5.1791,-5.1616,-5.1703,-5.0568,-5.0174,-5.024,-4.9432,-4.9038,-4.8951,-4.9279,-4.9191,-4.8951,-4.9279,-4.917,-4.8907,-4.8907,-4.8907,-4.8907,-4.8907,-4.8907,-4.8995,-4.9497,-4.9737,-4.9912,-5.024,-5.0436,-5.0655,-5.0983,-5.1201,-5.1354,-5.1529,-5.2326,-5.3243,-5.3902,-5.4719,-5.553,-5.6358,-5.6518,-5.6678,-5.7021,-5.7021,-5.7021,-5.7021,-5.7021,-5.7021,-5.7021,-5.7021,-5.7021,-5.7021,-5.7021,-5.7021,-5.7021,-5.7021,-5.7021,-5.7021,-5.7021,-5.7021,-5.7021,-5.6852,-5.6852,-5.7021,-5.6852,-5.678,-5.678,-5.678,-5.6939,-3.9268,-4.0535,-4.1779,-4.1093,-4.1022,-4.1126,-4.0942,-3.9626,-3.8146,-3.6708,-3.6063,-3.5355,-3.4064,-3.4203,-3.4762,-3.5265,-3.5332,-3.554,-3.6329,-3.7136,-3.8255,-3.9887,-4.2179,-4.3884,-4.4545,-4.5168,-4.5627,-4.5865,-4.5883,-4.6635,-4.8088,-4.8088,-4.8934,-5.076,-5.0923,-5.2207,-5.439,-5.439,-5.415,-5.3669,-5.3779,-5.3626,-5.3211,-5.2839,-5.2512,-5.2184,-5.1616,-5.1419,0.0,-5.0742,-5.0502,-5.0546,-4.9956,-4.9497,-4.9213,-4.9519,-4.9322,-4.8951,-4.9257,-4.9148,-4.8907,-4.8907,-4.8907,-4.8907,-4.8907,-4.8907,-4.8973,-4.9279,-4.9344,-4.9454,-4.9934,-5.0174,-5.0349,-5.0502,-5.0961,-5.1288,-5.1026,-5.2235,-5.342,-5.3703,-5.4971,-5.6049,-5.655,-5.69,-5.7021,-5.7021,-5.7021,-5.7021,-5.7021,-5.7021,-5.7021,-5.7021,-5.7021,-5.7021,-5.7021,-5.7021,-5.7021,-5.7021,-5.7021,-5.7021,-5.7021,-5.7021,-5.7021,-5.7021,-5.6828,-5.6828,-5.7021,-5.6828,-5.6732,-5.6732,-5.6732,-5.6952,0.0,-3.8548,-4.0071,-4.0893,-4.1416,-4.1498,-4.064,-3.9761,0.0,-3.6912,-3.6547,-3.6282,-3.5103,-3.5626,-3.6047,-3.6105,-3.5781,-3.587,-3.6714,-3.7613,-3.8768,-4.0327,-4.1959,-4.3096,-4.3463,-4.493,-4.5865,-4.5883,-4.5865,-4.6597,-4.8088,-4.8216,-4.9287,-5.1778,-5.2355,-5.2911,-5.3888,-5.3888,-5.3647,-5.3145,-5.273,-5.273,-5.3036,-5.2184,-5.1791,-5.1747,-5.1682,-5.1441,-5.1157,-5.1507,-5.1419,-5.107,-5.1004,-5.0415,-4.9628,-4.9628,-4.9322,-4.8907,-4.8951,-4.8929,-4.8907,-4.8907,-4.8907,-4.8907,-4.8907,-4.8907,-4.8907,-4.8907,-4.8907,-4.9017,-4.9454,-4.989,-5.0109,-4.9716,-5.0655,-5.1288,-4.9956,-5.1667,-5.3475,-5.2992,-5.4721,-5.6179,-5.6227,-5.6636,-5.6973,-5.6973,-5.6997,-5.6997,-5.6973,-5.6997,-5.7021,-5.7021,-5.7021,-5.7021,-5.7021,-5.7021,-5.7021,-5.7021,-5.7021,-5.7021,-5.7021,-5.7021,-5.7021,-5.7021,-5.654,-5.654,-5.7021,-5.6516,-5.6299,-5.6299,-5.6299,-5.654,-3.681,0.0,-3.9128,-3.9363,-4.0055,-4.0645,0.0,-4.0407,0.0,0.0,0.0,0.0,-3.6629,-3.6674,-3.6759,-3.6432,-3.6437,-3.6393,-3.6828,-3.8603,-4.0143,-4.084,-4.2619,-4.3719,-4.3518,-4.4673,-4.5572,-4.5865,-4.5608,-4.6671,-4.9544,-4.9091,-5.0086,-5.321,-5.3147,-5.3148,-5.3385,-5.3385,-5.3145,-5.2664,-5.2927,-5.2533,-5.1572,-5.1725,-5.1594,-5.1201,-5.0458,-5.0699,-5.155,-5.0546,-5.0502,-5.1004,-5.0262,-4.9825,-4.9628,-4.9628,-4.9322,-4.8951,-4.9322,-4.9213,-4.8907,-4.8907,-4.8907,-4.8907,-4.8907,-4.8907,-4.8907,-4.8907,-4.8907,-4.8929,-4.9038,-4.9148,-4.9301,-4.9563,-4.989,-5.0131,-5.0152,-5.1622,-5.3038,-5.2924,-5.4414,-5.5722,-5.6155,-5.6323,-5.6419,-5.6419,-5.6756,-5.6876,-5.6468,-5.678,-5.7021,-5.7021,-5.7021,-5.7021,-5.7021,-5.7021,-5.7021,-5.7021,-5.7021,-5.7021,-5.7021,-5.7021,-5.7021,-5.7021,-5.69,-5.69,-5.7021,-5.69,-5.6828,-5.6828,-5.6828,-5.7352,-3.6687,-3.7745,-3.8597,-3.9056,-3.9384,-3.9733,-4.017,0.0,0.0,0.0,0.0,0.0,0.0,-3.7219,-3.7092,-3.6475,-3.6893,-3.7709,-3.8629,-3.9382,-4.0327,-4.1482,-4.2913,-4.3866,-4.4013,-4.4966,-4.5945,-4.6523,-4.5779,-4.6941,-5.0392,-4.9567,-5.0208,-5.3104,-5.3014,-5.2883,-5.2883,-5.2883,-5.2643,-5.2162,-5.2206,-5.1813,-5.107,-5.1114,-5.0851,-5.0393,-5.0087,-5.0393,-5.107,-5.0524,-5.0589,-5.1026,-5.0502,-5.0021,-4.9628,-4.9628,-4.9322,-4.8951,-4.9213,-4.9126,-4.8907,-4.8907,-4.8907,-4.8907,-4.8907,-4.8907,-4.8907,-4.8907,-4.8907,-4.8907,-4.8907,-4.906,-4.9235,-4.9279,-4.9628,-4.989,-4.9716,-5.1106,-5.2487,-5.2235,-5.3778,-5.5145,-5.5433,-5.5698,-5.5842,-5.5842,-5.6083,-5.6179,-5.589,-5.6323,-5.666,-5.666,-5.6876,-5.7021,-5.7021,-5.7021,-5.7021,-5.7021,-5.7021,-5.7021,-5.7021,-5.7021,-5.7021,-5.7021,-5.7021,-5.678,-5.6275,-5.654,-5.654,-5.6275,-5.654,-5.7388,-3.6785,-3.7601,-3.8152,-3.9231,-3.9187,-3.9165,-4.0083,0.0,0.0,0.0,0.0,0.0,0.0,-3.7672,-3.7605,-3.6658,-3.7432,-3.8897,-4.1029,-4.0328,-4.0253,-4.1977,-4.3059,-4.3884,-4.4435,-4.5333,-4.6262,-4.7309,-4.6314,-4.7203,-5.0735,-4.9711,-5.0011,-5.249,-5.2424,-5.2381,-5.2381,-5.2315,-5.2118,-5.1791,-5.1223,-5.0961,-5.0939,-5.0502,-5.0109,-4.9759,-5.0152,-5.0393,-5.0568,-5.0851,-5.1004,-5.1048,-5.0917,-5.0349,-4.9628,-4.9541,-4.9257,-4.8907,-4.8907,-4.8907,-4.8907,-4.8907,-4.8907,-4.8907,-4.8907,-4.8907,-4.8907,-4.8907,-4.8907,-4.8907,-4.8907,-4.9213,-4.941,-4.8995,-4.9519,-4.9869,-4.9082,-5.0479,-5.189,-5.1454,-5.3094,-5.452,-5.4592,-5.4977,-5.5289,-5.5289,-5.5337,-5.5385,-5.5385,-5.5818,-5.6155,-5.6323,-5.6684,-5.6925,-5.7021,-5.7021,-5.7021,-5.7021,-5.7021,-5.7021,-5.7021,-5.7021,-5.7021,-5.7021,-5.7021,-5.6564,-5.565,-5.6131,-5.6107,-5.565,-5.6131,-5.735,-3.6394,-3.6988,-3.7572,-3.8651,-3.9187,-3.958,-4.0148,0.0,0.0,0.0,0.0,0.0,0.0,-3.9438,-3.8924,-3.8588,-3.8517,-3.9347,-4.1829,-4.1676,-4.1427,-4.1739,-4.3389,-4.427,-4.3738,-4.5021,-4.6262,-4.7309,-4.6945,-4.7777,-5.0889,-5.0157,-5.0399,-5.2468,-5.2097,-5.19,-5.19,-5.1485,-5.1463,-5.1791,-5.0873,-5.0436,-5.0436,-5.0349,-5.0262,-5.0218,-5.0284,-5.0786,-5.1507,-5.0742,-5.0677,-5.0983,-5.0174,-4.9759,-4.9585,-4.917,-4.8973,-4.8907,-4.8907,-4.8907,-4.8907,-4.8907,-4.8907,-4.8907,-4.8907,-4.8907,-4.8907,-4.8907,-4.8907,-4.8907,-4.8907,-4.8951,-4.8995,-4.8929,-4.9017,-4.9082,-4.8929,-5.0188,-5.1477,-5.1385,-5.2811,-5.4087,-5.452,-5.4688,-5.4736,-5.4736,-5.5121,-5.5385,-5.5385,-5.5482,-5.589,-5.6804,-5.6564,-5.654,-5.6973,-5.7021,-5.7021,-5.7021,-5.7021,-5.7021,-5.7021,-5.7021,-5.7021,-5.7021,-5.7021,-5.6949,-5.678,-5.6852,-5.6852,-5.678,-5.6852,-5.8163,-3.6189,-3.7162,-3.7738,-3.7847,-3.8274,-3.8744,-3.9366,0.0,0.0,0.0,0.0,0.0,-3.9751,-3.9281,-3.8867,-3.9338,-3.9548,-4.0319,-4.2058,-4.1395,-4.1024,-4.1904,-4.3206,-4.3976,-4.3829,-4.4875,-4.6204,-4.7699,-4.6947,-4.7957,-5.1231,-5.0272,-5.0485,-5.2118,-5.19,-5.1791,-5.1791,-5.131,-5.131,-5.1791,-5.107,-5.072,-5.072,-5.0436,-5.0305,-5.0305,-5.0305,-5.0568,-5.0961,-5.0502,-5.0305,-5.024,-4.9803,-4.9475,-4.9213,-4.8973,-4.8907,-4.8907,-4.8907,-4.8907,-4.8907,-4.8907,-4.8907,-4.8907,-4.8907,-4.8907,-4.8907,-4.8907,-4.8907,-4.8907,-4.8907,-4.8907,-4.8907,-4.8907,-4.8907,-4.8907,-4.8907,-5.0299,-5.1385,-5.1385,-5.2764,-5.3894,-5.4135,-5.4183,-5.4279,-5.4568,-5.4808,-5.5073,-5.5361,-5.5385,-5.5698,-5.6516,-5.6371,-5.6444,-5.6973,-5.7021,-5.7021,-5.7021,-5.7021,-5.7021,-5.7021,-5.7021,-5.7021,-5.7021,-5.7021,-5.6876,-5.6588,-5.6876,-5.6876,-5.6612,-5.6876,-5.8393,-3.607,-3.7306,-3.7863,-3.7318,0.0,-3.8245,-3.8437,0.0,0.0,0.0,0.0,0.0,-3.953,-3.9081,-3.9206,-4.0749,-4.121,-4.1736,-4.2973,-4.1909,-4.1267,-4.2381,-4.3279,-4.4028,-4.4591,-4.5004,-4.6032,-4.7994,-4.713,-4.7943,-5.0968,-5.0399,-5.0567,-5.1638,-5.1747,-5.1791,-5.1791,-5.1419,-5.1419,-5.1791,-5.1179,-5.0961,-5.107,-5.0677,-5.0502,-5.0502,-5.0502,-5.0502,-5.048,-5.024,-4.9934,-4.9628,-4.9497,-4.9235,-4.8907,-4.8907,-4.8907,-4.8907,-4.8907,-4.8907,-4.8907,-4.8907,-4.8907,-4.8907,-4.8907,-4.8907,-4.8907,-4.8907,-4.8907,-4.8907,-4.8907,-4.8907,-4.8907,-4.8907,-4.8907,-4.8907,-4.8907,-5.0299,-5.1385,-5.1385,-5.2764,-5.3822,-5.3822,-5.3822,-5.3942,-5.4351,-5.452,-5.4784,-5.5337,-5.5289,-5.553,-5.6323,-5.6179,-5.6299,-5.6973,-5.7021,-5.7021,-5.7021,-5.7021,-5.7021,-5.7021,-5.7021,-5.7021,-5.7021,-5.7021,-5.6828,-5.6419,-5.6828,-5.6804,-5.6419,-5.6828,-5.8393,-3.607,-3.7288,-3.7758,-3.7359,0.0,0.0,-3.8004,-3.9248,0.0,-4.0129,0.0,0.0,-4.0204,-4.0085,-4.0975,-4.3606,-4.3657,-4.404,-4.5744,-4.4785,-4.3765,-4.3475,-4.4105,-4.4981,-4.6044,-4.5535,-4.6032,-4.7994,-4.7728,-4.7996,-4.9112,-5.0262,-5.1114,-5.1135,-5.1572,-5.1791,-5.1791,-5.1769,-5.1769,-5.1791,-5.083,-5.0611,-5.107,-5.1026,-5.1026,-5.1026,-5.1026,-5.1026,-5.0939,-5.0043,-4.965,-4.9585,-4.9126,-4.8929,-4.8907,-4.8907,-4.8907,-4.8907,-4.8907,-4.8907,-4.8907,-4.8907,-4.8907,-4.8907,-4.8907,-4.8907,-4.8907,-4.8907,-4.8907,-4.8907,-4.8907,-4.8907,-4.8907,-4.8907,-4.8907,-4.8907,-4.8907,-5.0299,-5.1385,-5.1385,-5.2764,-5.3822,-5.3822,-5.3822,-5.3822,-5.387,-5.4303,-5.4784,-5.5337,-5.4977,-5.5241,-5.6804,-5.6059,-5.589,-5.6925,-5.7021,-5.7021,-5.7021,-5.7021,-5.7021,-5.7021,-5.7021,-5.7021,-5.7021,-5.7021,-5.6997,-5.6973,-5.6997,-5.6997,-5.6973,-5.6997,-5.8393,-3.5951,-3.641,0.0,0.0,0.0,0.0,0.0,0.0,0.0,-4.0004,-4.0911,0.0,0.0,-4.2001,-4.2885,-4.3382,-4.444,-4.5249,-4.4915,-4.53,-4.5273,-4.475,-4.5177,-4.5725,-4.5818,-4.5082,-4.5194,-4.6543,-4.7201,-4.7955,-4.8902,-5.0688,-5.1376,-5.107,-5.1245,-5.1354,-5.1354,-5.1026,-5.0873,-5.0873,-5.0808,-5.1048,-5.1507,-5.1201,-5.107,-5.107,-5.107,-5.0742,-5.0152,-4.9781,-4.9454,-4.917,-4.8973,-4.8907,-4.8907,-4.8907,-4.8907,-4.8907,-4.8907,-4.8907,-4.8907,-4.8907,-4.8907,-4.8907,-4.8907,-4.8907,-4.8907,-4.8907,-4.8907,-4.8907,-4.8907,-4.8907,-4.8907,-4.8907,-4.8907,-4.8907,-4.8907,-5.0299,-5.1385,-5.1385,-5.2764,-5.3822,-5.3822,-5.3822,-5.3918,-5.4255,-5.4471,-5.4784,-5.5337,-5.4928,-5.4977,-5.5914,-5.5963,-5.6083,-5.6492,-5.6828,-5.6876,-5.654,-5.6852,-5.7021,-5.7021,-5.7021,-5.7021,-5.7021,-5.7021,-5.7021,-5.7021,-5.7021,-5.7021,-5.7021,-5.7021,-5.8393,-3.5014,-3.5397,-3.5255,0.0,0.0,0.0,0.0,0.0,0.0,-4.0962,-4.1126,-4.1586,-4.2481,-4.2981,-4.3325,-4.3772,-4.5544,-4.6295,-4.473,-4.5916,-4.6695,-4.5261,-4.6094,-4.6777,-4.6418,-4.5426,-4.5027,-4.5725,-4.6703,-4.7297,-4.7734,-4.9839,-5.0895,-5.0393,-5.0677,-5.083,-5.083,-5.048,-5.0305,-5.0305,-5.0524,-5.0873,-5.1332,-5.0983,-5.0994,-5.1322,-5.1167,-5.0726,-4.9927,-4.9773,-4.935,-4.8907,-4.8907,-4.8907,-4.8907,-4.8907,-4.8907,-4.8907,-4.8907,-4.8907,-4.8907,-4.8907,-4.8907,-4.8907,-4.8907,-4.8907,-4.8907,-4.8907,-4.8907,-4.8907,-4.8907,-4.8907,-4.8907,-4.8907,-4.8907,-4.8907,-4.9201,-5.0143,-5.1208,-5.1693,-5.2612,-5.3521,-5.3822,-5.3822,-5.3942,-5.4303,-5.4496,-5.4736,-5.5097,-5.4832,-5.4808,-5.5337,-5.5746,-5.6035,-5.6227,-5.6564,-5.6612,-5.6251,-5.6564,-5.6852,-5.7021,-5.6852,-5.6852,-5.7021,-5.7021,-5.7021,-5.7021,-5.7021,-5.7021,-5.7021,-5.7021,-5.8393,-3.3514,-3.4383,-3.5047,0.0,0.0,0.0,0.0,0.0,-4.2557,-4.2813,-4.1912,-4.1753,-4.371,-4.2529,-4.222,-4.5552,-4.7225,-4.7376,-4.523,-4.7299,-4.7832,-4.4659,-4.6595,-4.8261,-4.8296,-4.6982,-4.6153,-4.6245,-4.6293,-4.5744,-4.5025,-4.7877,-4.941,-4.8929,-4.9803,-5.0305,-5.0305,-5.0305,-5.0305,-5.0284,-4.9847,-4.9869,-5.0305,-5.0305,-5.0792,-5.1577,-5.1106,-5.0905,-5.086,-5.0345,-4.9673,-4.8907,-4.8907,-4.8907,-4.8907,-4.8907,-4.8907,-4.8907,-4.8907,-4.8907,-4.8907,-4.8907,-4.8907,-4.8907,-4.8907,-4.8907,-4.8907,-4.8907,-4.8907,-4.8907,-4.8907,-4.8907,-4.8907,-4.8907,-4.8907,-4.9044,-4.9964,-5.0121,-5.0588,-5.2283,-5.2612,-5.2892,-5.3672,-5.3822,-5.3822,-5.3822,-5.4255,-5.4592,-5.4592,-5.4592,-5.4808,-5.5337,-5.5385,-5.5626,-5.6179,-5.6227,-5.6227,-5.6227,-5.6227,-5.6468,-5.6997,-5.6516,-5.6492,-5.7021,-5.7021,-5.7021,-5.7021,-5.7021,-5.7021,-5.7021,-5.7021,-5.8393,-3.3624,-3.3613,0.0,0.0,0.0,0.0,0.0,-4.1313,0.0,0.0,-4.3125,-4.328,-4.5534,-4.5011,-4.4726,-4.6203,-4.6652,-4.6722,-4.6223,-4.7254,-4.7775,-4.7131,-4.7856,-4.8274,-4.8378,-4.6146,-4.4856,-4.481,-4.4771,-4.5025,-4.5303,-4.7233,-4.8554,-4.941,-4.9344,-4.9475,-4.9825,-4.9497,-4.9322,-4.9322,-4.917,-4.9861,-5.1277,-5.0943,-5.1106,-5.1877,-5.174,-5.1153,-5.0345,-4.9583,-4.9044,-4.8907,-4.8907,-4.8907,-4.8907,-4.8907,-4.8907,-4.8907,-4.8907,-4.8907,-4.8907,-4.8907,-4.8907,-4.8907,-4.8907,-4.8907,-4.8907,-4.8907,-4.8907,-4.8907,-4.8907,-4.8907,-4.8907,-4.8907,-4.8907,-4.9044,-4.9964,-5.0588,-5.1362,-5.2436,-5.3068,-5.3521,-5.3822,-5.3822,-5.3822,-5.3822,-5.3942,-5.4063,-5.4063,-5.4063,-5.4399,-5.5289,-5.5073,-5.5049,-5.5602,-5.6011,-5.6059,-5.5674,-5.6011,-5.6468,-5.6997,-5.6516,-5.6492,-5.7021,-5.7021,-5.7021,-5.7021,-5.7021,-5.7021,-5.7021,-5.7922,-5.9148,-3.2777,-3.2577,0.0,0.0,-3.6035,-3.753,-4.0876,0.0,0.0,0.0,-4.4619,-4.4743,-4.6172,-4.5672,-4.5524,-4.6855,-4.7022,-4.6817,-4.6636,-4.7877,-4.8528,-4.779,-4.7958,-4.8164,-4.8464,-4.6122,-4.4453,-4.4453,-4.4601,-4.466,-4.4722,-4.6326,-4.7635,-4.8776,-4.8667,-4.8842,-4.9344,-4.9038,-4.8907,-4.8907,-4.8907,-4.9668,-5.0994,-5.0726,-5.1063,-5.1844,-5.2155,-5.1816,-5.1053,-5.0299,-4.9673,-4.9359,-4.9359,-4.9201,-4.8907,-4.8907,-4.8907,-4.8907,-4.8907,-4.8907,-4.8907,-4.8907,-4.8907,-4.8907,-4.8907,-4.8907,-4.8907,-4.8907,-4.8907,-4.8907,-4.8907,-4.8907,-4.8907,-4.8907,-4.8907,-4.9044,-4.9964,-5.0277,-5.0898,-5.2283,-5.274,-5.3044,-5.3672,-5.3822,-5.3822,-5.3822,-5.3822,-5.3822,-5.3822,-5.3822,-5.4135,-5.5001,-5.4616,-5.4496,-5.5049,-5.5385,-5.553,-5.5409,-5.5722,-5.6155,-5.6684,-5.6395,-5.6371,-5.6708,-5.69,-5.7021,-5.7021,-5.7021,-5.7021,-5.7021,-5.8237,-5.9458,-3.1451,0.0,0.0,-3.356,-3.6321,0.0,-4.2147,-4.4463,-4.6138,-4.6016,-4.6037,-4.611,-4.6395,-4.5405,-4.5273,-4.7247,-4.7903,-4.7675,-4.6511,-4.8479,-4.9178,-4.7314,-4.7427,-4.8039,-4.8612,-4.6587,-4.4965,-4.4822,-4.4782,-4.4401,-4.3579,-4.5133,-4.6457,-4.7553,-4.7924,-4.8361,-4.8886,-4.8907,-4.8907,-4.8907,-4.8886,-4.9359,-4.9964,-5.0121,-5.0588,-5.1539,-5.2283,-5.2588,-5.2612,-5.1693,-5.0921,-5.0121,-5.0121,-4.9673,-4.8907,-4.8907,-4.8907,-4.8907,-4.8907,-4.8907,-4.8907,-4.8907,-4.8907,-4.8907,-4.8907,-4.8907,-4.8907,-4.8907,-4.8907,-4.8907,-4.8907,-4.8907,-4.8907,-4.8907,-4.8907,-4.9044,-4.9964,-4.9516,-4.983,-5.213,-5.2154,-5.213,-5.3521,-5.3822,-5.3822,-5.3822,-5.3822,-5.3822,-5.3822,-5.3822,-5.4015,-5.4544,-5.4135,-5.4039,-5.4568,-5.464,-5.488,-5.5361,-5.5482,-5.5746,-5.6203,-5.6227,-5.6227,-5.6227,-5.6756,-5.7021,-5.7021,-5.7021,-5.7021,-5.7021,-5.8393,-5.9612,-3.1801,-3.2166,0.0,0.0,-3.719,-4.0343,-4.1732,-4.4356,-4.6355,-4.5391,-4.6905,-4.8287,-4.8237,-4.7853,-4.7462,-4.799,-4.7297,-4.6762,-4.7199,-4.741,-4.7677,-4.7913,-4.8091,-4.7949,-4.7411,-4.6455,-4.5249,-4.3633,-4.3195,-4.3249,-4.404,-4.3755,-4.4972,-4.8012,-4.7772,-4.8034,-4.8886,-4.9516,-4.9516,-4.8907,-4.9516,-4.9673,-4.9201,-4.9808,-5.0898,-5.2283,-5.2436,-5.2588,-5.2612,-5.1693,-5.0921,-5.0121,-5.0121,-4.9673,-4.8907,-4.8907,-4.8907,-4.8907,-4.8907,-4.8907,-4.8907,-4.8907,-4.8907,-4.8907,-4.8907,-4.8907,-4.8907,-4.8907,-4.8907,-4.8907,-4.8907,-4.8907,-4.8907,-4.8907,-4.8907,-4.9044,-4.9964,-5.0432,-5.1231,-5.2436,-5.2892,-5.3346,-5.3672,-5.3822,-5.3822,-5.3822,-5.3822,-5.3822,-5.3822,-5.3822,-5.4015,-5.4544,-5.4135,-5.4039,-5.4568,-5.4977,-5.5289,-5.5385,-5.6203,-5.654,-5.6251,-5.6227,-5.6227,-5.6227,-5.6756,-5.7021,-5.7021,-5.7021,-5.7021,-5.7021,-5.9303,-6.038,-3.182,0.0,0.0,-3.5332,0.0,-3.9946,-4.1943,-4.3731,-4.5243,-4.6091,-4.7567,-4.8907,-4.8907,-4.8514,-4.8165,-4.8165,-4.7502,-4.6953,-4.7377,-4.7454,-4.7576,-4.7903,-4.7545,-4.729,-4.7547,-4.6511,-4.5401,-4.4107,-4.3411,-4.3057,-4.3037,-4.2882,-4.3976,-4.6519,-4.718,-4.7837,-4.8536,-4.954,-4.9808,-4.9516,-5.0277,-5.0432,-5.0143,-5.0588,-5.167,-5.3219,-5.3219,-5.3219,-5.3195,-5.274,-5.1977,-5.1208,-5.0898,-5.0277,-4.9359,-4.9044,-4.8907,-4.8907,-4.8907,-4.8907,-4.8907,-4.8907,-4.8907,-4.8907,-4.8907,-4.8907,-4.8907,-4.8907,-4.8907,-4.8907,-4.8907,-4.8907,-4.8907,-4.8907,-4.8907,-4.9044,-4.9359,-4.983,-5.0611,-5.1824,-5.2283,-5.2916,-5.3672,-5.3822,-5.3822,-5.3822,-5.3822,-5.3822,-5.3822,-5.3822,-5.3918,-5.4207,-5.3991,-5.3918,-5.4207,-5.4471,-5.4856,-5.5361,-5.5938,-5.6251,-5.6227,-5.6468,-5.6492,-5.6251,-5.6756,-5.7021,-5.7021,-5.7021,-5.7021,-5.7021,-5.9458,-6.0685,-3.1891,0.0,-3.4057,-3.6542,-3.7934,0.0,-4.1861,-4.285,-4.405,-4.648,-4.79,-4.8711,-4.8864,-4.8361,-4.799,-4.8143,-4.7706,-4.7357,-4.7357,-4.7772,-4.7881,-4.7422,-4.6733,-4.6698,-4.7831,-4.6642,-4.5628,-4.5108,-4.4181,-4.3201,-4.2062,-4.2526,-4.338,-4.4852,-4.6591,-4.7706,-4.8165,-4.9563,-5.0277,-5.0121,-5.0898,-5.1539,-5.1693,-5.1693,-5.2283,-5.3672,-5.3672,-5.3822,-5.3822,-5.3822,-5.337,-5.2436,-5.167,-5.0898,-4.9964,-4.9201,-4.8907,-4.8907,-4.8907,-4.8907,-4.8907,-4.8907,-4.8907,-4.8907,-4.8907,-4.8907,-4.8907,-4.8907,-4.8907,-4.8907,-4.8907,-4.8907,-4.8907,-4.8907,-4.8907,-4.8907,-4.8907,-4.9065,-4.9516,-5.1076,-5.167,-5.2283,-5.3521,-5.3822,-5.3822,-5.3822,-5.3822,-5.3822,-5.3822,-5.3822,-5.3846,-5.3942,-5.3942,-5.3942,-5.3942,-5.4135,-5.4568,-5.5337,-5.5578,-5.589,-5.6347,-5.678,-5.6804,-5.6371,-5.6804,-5.718,-5.7314,-5.7314,-5.7473,-5.7631,-5.992,-6.0989,0.0,0.0,-3.4458,0.0,-3.7502,-3.9471,0.0,-4.2616,-4.4719,-4.5111,-4.6502,-4.7924,-4.8755,-4.7815,-4.7204,-4.8034,-4.7422,-4.6832,-4.6832,-4.7269,-4.74,-4.6898,-4.6724,-4.6613,-4.649,-4.6953,-4.6613,-4.5108,-4.4181,-4.3678,-4.3519,-4.2737,-4.3228,-4.4852,-4.6591,-4.7706,-4.8165,-5.0184,-5.0898,-5.0121,-5.0898,-5.1847,-5.2436,-5.2436,-5.2588,-5.274,-5.3521,-5.3822,-5.3822,-5.3822,-5.337,-5.2436,-5.167,-5.0898,-4.9964,-4.9201,-4.8907,-4.8907,-4.8907,-4.8907,-4.8907,-4.8907,-4.8907,-4.8907,-4.8907,-4.8907,-4.8907,-4.8907,-4.8907,-4.8907,-4.8907,-4.8907,-4.8907,-4.8907,-4.8907,-4.8907,-4.8907,-4.9516,-5.0277,-5.1231,-5.2612,-5.3521,-5.3822,-5.3822,-5.3822,-5.3822,-5.3822,-5.3822,-5.3822,-5.3822,-5.3991,-5.4447,-5.4496,-5.4496,-5.4496,-5.5361,-5.577,-5.5409,-5.6275,-5.6828,-5.69,-5.6973,-5.6997,-5.6925,-5.6973,-5.7473,-5.8525,-5.8525,-5.9148,-6.0227,-6.1594,-6.2194,-3.2768,-3.3447,-3.4275,0.0,-3.6794,-3.8671,-4.021,-4.1529,-4.3176,-4.5422,-4.5748,-4.618,-4.7769,-4.7597,-4.7204,-4.7335,-4.7007,-4.6636,-4.6352,-4.6745,-4.6876,-4.6374,-4.6181,-4.6369,-4.6953,-4.6862,-4.6426,-4.5711,-4.4498,-4.3399,-4.2368,-4.2621,-4.3001,-4.3403,-4.6134,-4.7597,-4.7793,-4.9932,-5.1393,-5.213,-5.213,-5.2436,-5.3219,-5.2764,-5.2916,-5.337,-5.3672,-5.3822,-5.3822,-5.3822,-5.3521,-5.3219,-5.2436,-5.1516,-5.0743,-4.9808,-4.9359,-4.8907,-4.8907,-4.8907,-4.8907,-4.8907,-4.8907,-4.8907,-4.8907,-4.8907,-4.8907,-4.8907,-4.8907,-4.8907,-4.8907,-4.8907,-4.8907,-4.8907,-4.8907,-4.8907,-4.8907,-4.9201,-4.983,-5.1076,-5.2764,-5.3822,-5.3822,-5.3822,-5.3822,-5.3822,-5.3822,-5.3822,-5.3822,-5.3822,-5.4015,-5.4544,-5.4351,-5.4399,-5.5001,-5.5217,-5.5482,-5.5842,-5.6323,-5.6708,-5.6997,-5.7021,-5.7021,-5.7021,-5.7021,-5.7631,-5.8837,-5.8837,-5.9458,-6.0685,-6.1894,-6.2492,0.0,0.0,-3.3835,-3.455,-3.5925,-3.7763,-4.0066,-4.0563,-4.1384,-4.5209,-4.5018,-4.4845,-4.6811,-4.7116,-4.7029,-4.6767,-4.6614,-4.6417,-4.6046,-4.6308,-4.6417,-4.6046,-4.5857,-4.6241,-4.7312,-4.6663,-4.6111,-4.6216,-4.4396,-4.2724,-4.1298,-4.2112,-4.2385,-4.2047,-4.5321,-4.6961,-4.6831,-4.9395,-5.1618,-5.3521,-5.3044,-5.3219,-5.3822,-5.3076,-5.3076,-5.3822,-5.3822,-5.3822,-5.3822,-5.3822,-5.3822,-5.3672,-5.2892,-5.2307,-5.1516,-5.0432,-4.9651,-4.9201,-4.8907,-4.8907,-4.8907,-4.8907,-4.8907,-4.8907,-4.8907,-4.8907,-4.8907,-4.8907,-4.8907,-4.8907,-4.8907,-4.8907,-4.8907,-4.8907,-4.8907,-4.8907,-4.8907,-4.9044,-4.9673,-5.1053,-5.2588,-5.3521,-5.3822,-5.3822,-5.3822,-5.3822,-5.3822,-5.3822,-5.3822,-5.3942,-5.4231,-5.476,-5.4447,-5.4592,-5.553,-5.5241,-5.5361,-5.6179,-5.6371,-5.677,-5.7449,-5.718,-5.718,-5.7473,-5.7473,-5.808,-5.9303,-5.9587,-6.0355,-6.1594,-6.2492,-6.2937,0.0,-3.2861,0.0,-3.378,-3.5082,-3.6775,-3.8897,-3.9719,-4.0759,-4.3642,-4.4331,-4.4633,-4.5919,-4.6068,-4.6221,-4.6658,-4.633,-4.6024,-4.6002,-4.6024,-4.6024,-4.6002,-4.6046,-4.6439,-4.74,-4.623,-4.5775,-4.6195,-4.358,-4.1921,-4.174,-4.1337,-4.1106,-4.1086,-4.4065,-4.5356,-4.5068,-4.8736,-5.1314,-5.2612,-5.337,-5.3822,-5.3798,-5.3317,-5.3365,-5.3822,-5.3822,-5.3822,-5.3822,-5.3822,-5.3822,-5.3672,-5.2892,-5.2588,-5.2283,-5.0743,-5.0121,-4.9964,-4.9201,-4.8907,-4.8907,-4.8907,-4.8907,-4.8907,-4.8907,-4.8907,-4.8907,-4.8907,-4.8907,-4.8907,-4.8907,-4.8907,-4.8907,-4.8907,-4.8907,-4.8907,-4.8907,-4.9516,-5.0277,-5.1208,-5.213,-5.2892,-5.3672,-5.3822,-5.3822,-5.3822,-5.3822,-5.3822,-5.3822,-5.4255,-5.476,-5.5289,-5.5337,-5.5554,-5.6131,-5.6155,-5.6179,-5.6227,-5.6708,-5.7449,-5.8681,-5.7631,-5.7473,-5.8681,-5.8681,-5.9303,-6.0533,-6.1744,-6.2937,-6.4165,-6.4165,-6.4165,0.0,0.0,0.0,-3.3651,-3.4642,-3.5943,-3.8073,-3.8141,-3.8709,-4.1684,-4.2461,-4.305,-4.457,-4.5533,-4.6068,-4.6243,-4.6111,-4.6002,-4.6002,-4.6002,-4.6002,-4.6002,-4.5384,-4.5341,-4.679,-4.5398,-4.4584,-4.5356,-4.336,-4.212,-4.2092,-4.2843,-4.2823,-4.1835,-4.5033,-4.6766,-4.6852,-4.8597,-5.0095,-5.1337,-5.1915,-5.2238,-5.2546,-5.2641,-5.2668,-5.2836,-5.2836,-5.3197,-5.3798,-5.3461,-5.3534,-5.3822,-5.3521,-5.3044,-5.2588,-5.1977,-5.1053,-5.0121,-4.983,-4.9359,-4.8907,-4.8907,-4.8907,-4.8907,-4.8907,-4.8907,-4.8907,-4.8907,-4.8907,-4.8907,-4.8907,-4.8907,-4.8907,-4.8907,-4.8907,-4.8907,-4.8907,-4.9516,-5.0432,-5.1231,-5.1977,-5.2916,-5.3672,-5.3822,-5.3822,-5.3822,-5.3822,-5.3822,-5.3822,-5.3991,-5.4303,-5.4832,-5.488,-5.5241,-5.6155,-5.6227,-5.6371,-5.6708,-5.7667,-5.8393,-5.8837,-5.9148,-5.9612,-6.0074,-6.0812,-6.0989,-6.0685,-6.1894,-6.3111,-6.431,-6.431,-6.431,-3.2078,-3.2618,-3.3174,-3.3734,-3.433,-3.5314,-3.7421,-3.7107,-3.7353,-4.0415,-4.0943,-4.1625,-4.3752,-4.4934,-4.5533,-4.6002,-4.6002,-4.6002,-4.6002,-4.6002,-4.6002,-4.6002,-4.4934,-4.4651,-4.59,-4.4181,-4.322,-4.3861,-4.2637,-4.1647,-4.1444,-4.2961,-4.336,-4.2833,-4.4648,-4.6115,-4.7003,-4.7938,-4.8967,-5.0049,-5.0457,-5.0928,-5.1554,-5.1649,-5.1799,-5.2259,-5.1898,-5.2451,-5.3534,-5.3197,-5.3365,-5.3822,-5.3822,-5.3521,-5.2892,-5.2764,-5.167,-5.0432,-5.0121,-4.9516,-4.8907,-4.8907,-4.8907,-4.8907,-4.8907,-4.8907,-4.8907,-4.8907,-4.8907,-4.8907,-4.8907,-4.8907,-4.8907,-4.8907,-4.8907,-4.8907,-4.8907,-4.9359,-4.9964,-5.0743,-5.167,-5.2436,-5.3219,-5.3672,-5.3822,-5.3822,-5.3822,-5.3822,-5.3822,-5.3966,-5.4231,-5.4568,-5.476,-5.5241,-5.6155,-5.6227,-5.6601,-5.7582,-5.8369,-5.9148,-6.0048,-6.0533,-6.0837,-6.1292,-6.2044,-6.2044,-6.1292,-6.2492,-6.3553,-6.431,-6.431,-6.431,0.0,0.0,0.0,-3.3753,-3.4092,-3.487,-3.6962,-3.645,-3.6642,-4.0216,-4.0066,-4.019,-4.3476,-4.4117,-4.444,-4.5661,-4.598,-4.6002,-4.6002,-4.6002,-4.6002,-4.598,-4.4913,-4.4479,-4.4921,-4.304,-4.1882,-4.1863,-4.1002,-4.0418,-3.9995,-4.1455,-4.2793,-4.3678,-4.2812,-4.3167,-4.5005,-4.683,-4.8149,-4.8664,-4.9374,-5.0272,-5.1013,-5.0496,-5.0981,-5.2163,-5.1153,-5.1586,-5.3029,-5.3029,-5.3317,-5.3774,-5.3798,-5.3798,-5.3648,-5.2892,-5.2154,-5.1385,-5.0432,-4.9673,-4.8907,-4.8907,-4.8907,-4.8907,-4.8907,-4.8907,-4.8907,-4.8907,-4.8907,-4.8907,-4.8907,-4.8907,-4.8907,-4.8907,-4.8907,-4.8907,-4.8907,-4.8907,-4.9201,-4.9964,-5.0743,-5.1693,-5.2459,-5.3219,-5.3822,-5.3822,-5.3822,-5.3822,-5.3822,-5.4255,-5.4592,-5.4616,-5.5073,-5.5626,-5.6179,-5.6251,-5.7072,-5.8812,-5.8837,-6.0048,-6.2343,-6.1443,-6.1292,-6.2492,-6.2492,-6.2492,-6.2492,-6.37,-6.431,-6.431,-6.431,-6.431,-3.2226,0.0,0.0,0.0,0.0,0.0,-3.503,-3.5018,-3.506,-3.6412,-3.7601,-3.8767,-4.0057,-4.1163,-4.241,-4.3615,-4.5101,-4.6002,-4.6002,-4.6002,-4.5871,-4.5544,-4.5487,-4.5317,-4.4776,-4.4238,-4.371,-4.3055,-4.1973,-4.1445,-4.1661,-4.2052,-4.2973,-4.4577,-4.3095,-4.331,-4.5728,-4.5427,-4.5966,-4.7223,-4.7768,-4.8236,-4.8873,-4.9375,-4.9935,-5.022,-5.0532,-5.1177,-5.1922,-5.1922,-5.2235,-5.274,-5.3125,-5.3269,-5.3317,-5.3378,-5.2916,-5.2154,-5.1362,-5.0432,-4.9673,-4.9044,-4.8907,-4.8907,-4.8907,-4.8907,-4.8907,-4.8907,-4.8907,-4.8907,-4.8907,-4.8907,-4.8907,-4.8907,-4.8907,-4.8907,-4.8907,-4.8907,-4.9201,-4.9964,-5.0277,-5.0898,-5.2283,-5.274,-5.3044,-5.3672,-5.3822,-5.3822,-5.3822,-5.3942,-5.4183,-5.4568,-5.5073,-5.5912,-5.7376,-5.7925,-5.8688,-6.0074,-6.0964,-6.1744,-6.2492,-6.2964,-6.3406,-6.3846,-6.3846,-6.3846,-6.3846,-6.4165,-6.431,-6.431,-6.431,-6.431,-3.2372,-3.2984,-3.3749,-3.4047,0.0,0.0,-3.411,-3.4018,-3.4018,-3.444,-3.5582,-3.6922,-3.797,-3.9151,-4.0372,-4.175,-4.2963,-4.4123,-4.5222,-4.5412,-4.5303,-4.5041,-4.4798,-4.4439,-4.388,-4.3569,-4.3166,-4.2631,-4.2421,-4.2289,-4.2913,-4.2086,-4.2396,-4.4061,-4.2236,-4.2201,-4.4165,-4.4037,-4.4485,-4.5363,-4.6343,-4.7047,-4.7611,-4.82,-4.8933,-4.9509,-4.9961,-5.058,-5.1153,-5.1153,-5.161,-5.2307,-5.262,-5.286,-5.3101,-5.3389,-5.3179,-5.2436,-5.1693,-5.0743,-4.9964,-4.9201,-4.8907,-4.8907,-4.8907,-4.8907,-4.8907,-4.8907,-4.8907,-4.8907,-4.8907,-4.8907,-4.8907,-4.8907,-4.8907,-4.8907,-4.8907,-4.8907,-4.9065,-4.9516,-4.9808,-5.0588,-5.1824,-5.2459,-5.2916,-5.3672,-5.3822,-5.3822,-5.3822,-5.4015,-5.4406,-5.5302,-5.6033,-5.7057,-5.8604,-5.9285,-5.9972,-6.0956,-6.1913,-6.2535,-6.2912,-6.3738,-6.431,-6.431,-6.431,-6.431,-6.431,-6.431,-6.431,-6.431,-6.431,-6.431,-3.2777,-3.3225,-3.3861,-3.4165,-3.411,0.0,-3.3817,-3.3578,-3.345,-3.3743,-3.4165,-3.4963,-3.6837,-3.7643,-3.836,-3.9865,-4.0217,-4.1275,-4.3918,-4.4294,-4.4416,-4.4373,-4.3504,-4.2899,-4.2794,-4.222,-4.1736,-4.1545,-4.2216,-4.2877,-4.3436,-4.1661,-4.1445,-4.3224,-4.1187,-4.0754,-4.2119,-4.2978,-4.3573,-4.3722,-4.523,-4.6381,-4.6971,-4.7163,-4.8064,-4.9365,-4.9509,-4.9961,-5.0696,-5.0696,-5.1249,-5.2115,-5.2163,-5.2524,-5.298,-5.3053,-5.2941,-5.2612,-5.1824,-5.0898,-5.0121,-4.9359,-4.8907,-4.8907,-4.8907,-4.8907,-4.8907,-4.8907,-4.8907,-4.8907,-4.8907,-4.8907,-4.8907,-4.8907,-4.8907,-4.8907,-4.8907,-4.8907,-4.8907,-4.8907,-4.9516,-5.0277,-5.1053,-5.1977,-5.2764,-5.3521,-5.3672,-5.3822,-5.3822,-5.4279,-5.5072,-5.6327,-5.7396,-5.8502,-5.9942,-6.0503,-6.1158,-6.19,-6.2297,-6.2792,-6.355,-6.4039,-6.431,-6.431,-6.431,-6.431,-6.431,-6.431,-6.431,-6.431,-6.431,-6.431,-3.301,-3.3395,-3.3743,-3.389,-3.411,0.0,-3.389,-3.4,-3.411,-3.3853,-3.4403,-3.4954,-3.5388,-3.6017,-3.6866,-3.7788,-3.8739,-3.9838,-4.16,-4.2648,-4.3106,-4.2581,-4.3601,-4.399,-4.323,-4.3637,-4.338,-4.2105,-4.1875,-4.1967,-4.2068,-4.1942,-4.2524,-4.3981,-4.2252,-4.229,-4.4546,-4.3405,-4.3382,-4.4446,-4.507,-4.5456,-4.575,-4.6735,-4.7794,-4.8667,-4.9221,-4.9961,-5.0696,-5.0696,-5.0816,-5.1056,-5.1489,-5.197,-5.2475,-5.2908,-5.324,-5.3521,-5.2588,-5.1824,-5.1053,-5.0121,-4.9359,-4.8907,-4.8907,-4.8907,-4.8907,-4.8907,-4.8907,-4.8907,-4.8907,-4.8907,-4.8907,-4.8907,-4.8907,-4.8907,-4.8907,-4.8907,-4.8907,-4.8907,-4.9044,-4.9359,-5.0277,-5.1053,-5.1847,-5.2764,-5.337,-5.3822,-5.3822,-5.4279,-5.4913,-5.5501,-5.7032,-5.8652,-6.0328,-6.11,-6.2112,-6.3657,-6.3506,-6.3452,-6.412,-6.4256,-6.431,-6.431,-6.431,-6.431,-6.431,-6.431,-6.431,-6.431,-6.431,-6.431,-3.3175,-3.3505,-3.3853,-3.4055,-3.411,0.0,0.0,-3.3963,-3.4,-3.3596,-3.4,-3.4422,-3.4422,-3.4752,-3.5226,-3.6005,-3.6428,-3.7143,-3.8413,-4.0823,-4.2193,-4.1957,-4.2343,-4.245,-4.1979,-4.2152,-4.1979,-4.1379,-4.1645,-4.1698,-4.1344,-4.1997,-4.259,-4.259,-4.0943,-4.1022,-4.2795,-4.1959,-4.2147,-4.3349,-4.4663,-4.5325,-4.5325,-4.6249,-4.7038,-4.7794,-4.8667,-4.9389,-5.0104,-5.0554,-5.0696,-5.072,-5.1008,-5.1586,-5.2307,-5.2572,-5.3173,-5.3672,-5.2892,-5.2307,-5.1824,-5.0432,-4.9808,-4.9359,-4.9065,-4.8907,-4.8907,-4.8907,-4.8907,-4.8907,-4.8907,-4.8907,-4.8907,-4.8907,-4.8907,-4.8907,-4.8907,-4.8907,-4.8907,-4.8907,-4.8907,-4.9201,-4.9964,-5.0743,-5.1693,-5.2436,-5.3219,-5.3822,-5.3822,-5.452,-5.5436,-5.6624,-5.8127,-5.9792,-6.1895,-6.198,-6.2507,-6.3822,-6.3577,-6.355,-6.3849,-6.4147,-6.431,-6.431,-6.431,-6.431,-6.431,-6.431,-6.431,-6.431,-6.431,-6.431,-3.3303,-3.3578,-3.389,-3.4202,-3.411,-3.3908,0.0,0.0,0.0,-3.3413,-3.3651,-3.3927,-3.3927,-3.4,-3.4238,-3.4807,-3.4821,-3.5129,-3.6128,-3.909,-4.1108,-4.1366,-4.1082,-4.0932,-4.1122,-4.0268,-3.9858,-4.0492,-4.1131,-4.1357,-4.1036,-4.1662,-4.1891,-4.1319,-3.9543,-3.9308,-4.0776,-4.0695,-4.1235,-4.2285,-4.4171,-4.5041,-4.5063,-4.5609,-4.6315,-4.7051,-4.7895,-4.8667,-4.9509,-5.0246,-5.0554,-5.0696,-5.0696,-5.1345,-5.2283,-5.2283,-5.2932,-5.3672,-5.3068,-5.274,-5.2436,-5.1053,-5.0432,-4.9964,-4.9201,-4.8907,-4.8907,-4.8907,-4.8907,-4.8907,-4.8907,-4.8907,-4.8907,-4.8907,-4.8907,-4.8907,-4.8907,-4.8907,-4.8907,-4.8907,-4.8907,-4.9065,-4.983,-5.0588,-5.1385,-5.2283,-5.3044,-5.3672,-5.3822,-5.4664,-5.5814,-5.7293,-5.8701,-6.0289,-6.2232,-6.2095,-6.2382,-6.3118,-6.3181,-6.3127,-6.3415,-6.3876,-6.4201,-6.431,-6.431,-6.431,-6.431,-6.431,-6.431,-6.431,-6.431,-6.431,-3.3541,-3.378,-3.3817,-3.3872,-3.411,-3.4238,-3.389,0.0,-3.422,-3.3835,0.0,-3.433,-3.433,0.0,0.0,-3.4513,-3.5567,-3.6379,-3.6532,-3.7727,-3.909,-4.041,-4.1101,-4.1978,-4.2849,-4.061,-3.9556,-4.0605,-3.977,-3.9778,-4.1435,-4.0284,-4.0574,-4.2648,-3.9988,-3.9623,-4.1958,-4.154,-4.1919,-4.311,-4.3774,-4.4036,-4.4058,-4.4976,-4.583,-4.6558,-4.7153,-4.8209,-4.9509,-4.9652,-5.0104,-5.0696,-5.0696,-5.1345,-5.2283,-5.2283,-5.2932,-5.3822,-5.3672,-5.3219,-5.2588,-5.2436,-5.1362,-4.9964,-4.9201,-4.8907,-4.8907,-4.8907,-4.8907,-4.8907,-4.8907,-4.8907,-4.8907,-4.8907,-4.8907,-4.8907,-4.8907,-4.8907,-4.8907,-4.8907,-4.8907,-4.8907,-4.9065,-4.9673,-5.0588,-5.1385,-5.2283,-5.3044,-5.3672,-5.4327,-5.4816,-5.5048,-5.6914,-5.8324,-5.8629,-5.9488,-6.0892,-6.2508,-6.2059,-6.2232,-6.3415,-6.3496,-6.3767,-6.431,-6.431,-6.431,-6.431,-6.431,-6.431,-6.431,-6.431,-6.431,-3.3945,-3.3982,-3.3872,-3.4092,-3.411,-3.4073,-3.4147,-3.4275,-3.4348,-3.4183,0.0,0.0,0.0,0.0,0.0,0.0,-3.4956,-3.5444,-3.5687,-3.6258,-3.7451,-3.9798,-3.9269,-3.8647,-3.8465,-3.7584,-3.7364,-3.8246,-3.8105,-3.8524,-4.0023,-3.951,-3.9394,-4.0091,-3.9493,-3.9394,-3.9685,-4.0781,-4.1693,-4.2159,-4.3339,-4.4014,-4.4298,-4.4713,-4.5187,-4.5888,-4.6525,-4.7196,-4.7797,-4.8961,-4.9652,-5.0104,-5.0554,-5.1153,-5.1826,-5.1826,-5.2475,-5.3389,-5.3389,-5.3432,-5.3219,-5.2764,-5.1516,-4.9964,-4.9673,-4.9201,-4.8907,-4.8907,-4.8907,-4.8907,-4.8907,-4.8907,-4.8907,-4.8907,-4.8907,-4.8907,-4.8907,-4.8907,-4.8907,-4.8907,-4.8907,-4.8907,-4.8907,-4.9516,-5.0432,-5.1231,-5.213,-5.2892,-5.3672,-5.4279,-5.4799,-5.5062,-5.6597,-5.7849,-5.8454,-5.9054,-5.9861,-6.1391,-6.152,-6.2246,-6.393,-6.3605,-6.3686,-6.431,-6.431,-6.431,-6.431,-6.431,-6.431,-6.431,-6.431,-6.431,-3.4055,-3.4037,-3.389,-3.4165,-3.4018,-3.389,-3.4183,-3.433,-3.4403,-3.4403,-3.4495,0.0,0.0,0.0,-3.4532,-3.4422,0.0,-3.4715,-3.5137,-3.5276,-3.6325,-3.8905,-3.8127,-3.7016,-3.618,-3.601,-3.6099,-3.6425,-3.6742,-3.7201,-3.7946,-3.8122,-3.8047,-3.7797,-3.8496,-3.87,-3.8409,-3.9838,-4.0841,-4.141,-4.2621,-4.3478,-4.3954,-4.4242,-4.4648,-4.5129,-4.5821,-4.6301,-4.6636,-4.8436,-4.9365,-4.9509,-5.0104,-5.0794,-5.1321,-5.161,-5.2379,-5.3269,-5.3269,-5.351,-5.3672,-5.2892,-5.1824,-5.0743,-5.0277,-4.9673,-4.9201,-4.8907,-4.8907,-4.8907,-4.8907,-4.8907,-4.8907,-4.8907,-4.8907,-4.8907,-4.8907,-4.8907,-4.8907,-4.8907,-4.8907,-4.8907,-4.8907,-4.9359,-5.0121,-5.0921,-5.167,-5.2659,-5.3561,-5.4079,-5.4582,-5.5237,-5.62,-5.7046,-5.7951,-5.8528,-5.9437,-6.0857,-6.1711,-6.271,-6.4039,-6.3659,-6.3686,-6.431,-6.431,-6.431,-6.431,-6.431,-6.431,-6.431,-6.431,-6.431,-3.3725,-3.3817,-3.3817,-3.3835,-3.3817,-3.3817,-3.3835,-3.4128,-3.4403,-3.4403,-3.4733,-3.5009,-3.5009,-3.5009,-3.488,-3.4477,-3.4752,0.0,0.0,-3.5247,-3.5712,-3.7402,-3.8442,-3.901,-3.8868,-3.7871,-3.6828,-3.6143,-3.5874,-3.5675,-3.5566,-3.5687,-3.6197,-3.7374,-3.6735,-3.7383,-3.957,-3.8555,-3.9261,-4.141,-4.1431,-4.1683,-4.2268,-4.3435,-4.4146,-4.4648,-4.5107,-4.5742,-4.6636,-4.7881,-4.8812,-4.9509,-4.9509,-4.9961,-5.0864,-5.1874,-5.2908,-5.3798,-5.3798,-5.3798,-5.3672,-5.2892,-5.2588,-5.2283,-5.0588,-5.0121,-4.9964,-4.9044,-4.8907,-4.8907,-4.8907,-4.8907,-4.8907,-4.8907,-4.8907,-4.8907,-4.8907,-4.8907,-4.8907,-4.8907,-4.8907,-4.8907,-4.8907,-4.8907,-4.9201,-4.9964,-5.0898,-5.1855,-5.327,-5.368,-5.4039,-5.452,-5.5073,-5.5385,-5.554,-5.7573,-5.9642,-6.1406,-6.2694,-6.3442,-6.3442,-6.3442,-6.3686,-6.431,-6.431,-6.431,-6.431,-6.431,-6.431,-6.431,-6.431,-6.431,-3.4587,-3.4422,-3.4147,-3.3872,-3.3817,-3.3817,-3.3817,-3.411,-3.4403,-3.4403,-3.4733,-3.5027,-3.5027,-3.5247,-3.5284,-3.488,-3.5155,-3.5284,0.0,-3.4477,-3.4508,-3.5321,-3.6348,-3.677,-3.6066,-3.5642,-3.5565,-3.6226,-3.4822,-3.4778,-3.6384,-3.5161,-3.4931,-3.6178,-3.6764,-3.7118,-3.7364,-3.9241,-3.9838,-3.9116,-4.0698,-4.1662,-4.2102,-4.2216,-4.2913,-4.4124,-4.4626,-4.4968,-4.5467,-4.7599,-4.8523,-4.8812,-4.9365,-5.0175,-5.1273,-5.1007,-5.1725,-5.2884,-5.3582,-5.3606,-5.3365,-5.3401,-5.3044,-5.2436,-5.1977,-5.1053,-4.9964,-4.983,-4.9359,-4.8907,-4.8907,-4.8907,-4.8907,-4.8907,-4.8907,-4.8907,-4.8907,-4.8907,-4.8907,-4.8907,-4.8907,-4.8907,-4.8907,-4.9359,-4.983,-5.0121,-5.0898,-5.1739,-5.2694,-5.3466,-5.4015,-5.4544,-5.5073,-5.5554,-5.5914,-5.6903,-5.8163,-5.9642,-5.9743,-6.0294,-6.1581,-6.1241,-6.1616,-6.3085,-6.3111,-6.3553,-6.431,-6.431,-6.431,-6.431,-6.431,-6.431,-3.5027,-3.4825,-3.4532,-3.4128,-3.4018,-3.4018,-3.4018,-3.433,-3.4623,-3.4623,-3.5064,-3.5357,-3.5082,-3.5467,-3.565,-3.5119,-3.5247,-3.5119,0.0,-3.4092,-3.411,-3.4367,-3.5097,-3.5276,-3.4422,-3.466,-3.4874,-3.4929,-3.4064,-3.3942,-3.5239,-3.4321,-3.4238,-3.5155,-3.6193,-3.6764,-3.6588,-3.8583,-3.8971,-3.797,-3.955,-4.0638,-4.1503,-4.1477,-4.2479,-4.4146,-4.4451,-4.4692,-4.5055,-4.7163,-4.8086,-4.84,-4.8644,-4.9576,-5.0771,-5.0359,-5.1198,-5.2427,-5.3461,-5.3485,-5.3149,-5.3654,-5.3521,-5.2892,-5.274,-5.1824,-5.0944,-5.0814,-5.0121,-4.9403,-4.9579,-4.9175,-4.8907,-4.8907,-4.8907,-4.8907,-4.8907,-4.8907,-4.8907,-4.8907,-4.8907,-4.8907,-4.8907,-4.9359,-4.9673,-4.9673,-5.0588,-5.1608,-5.2387,-5.301,-5.3784,-5.4808,-5.5193,-5.5853,-5.7047,-5.7412,-5.8006,-5.9028,-5.9006,-5.9312,-6.0378,-6.0676,-6.1666,-6.3416,-6.3282,-6.3875,-6.526,-6.4609,-6.431,-6.431,-6.431,-6.431]}]]